[[{"header":{"parameterUnit":"m.s-1","parameterCategory":1,"la1":30.6,"la2":29.2853,"lo1":-89.7004,"lo2":-87.6739,"dy":0.0162,"dx":0.0183,"nx":112,"ny":82,"refTime":"2023-08-10T12:00:00:Z","depth":0,"parameterNumber":2,"parameterNumberName":"U-component_of_WINDS"},"data":[0.0,0.0,0.0,0.0,0.0,0.0,0.0,0.0,0.0,0.0,0.0,0.0,0.0,0.0,0.0,0.0,0.0,0.0,0.0,0.0,0.0,0.0,0.0,0.0,0.0,0.0,0.0,0.0,0.0,0.0,0.0,0.0,0.0,0.0,0.0,0.0,0.0,0.0,0.0,0.0,0.0,0.0,0.0,0.0,0.0,0.0,0.0,0.0,0.0,0.0,0.0,0.0,0.0,0.0,0.0,0.0,0.0,0.0,0.0,0.0,0.0,0.0,0.0,0.0,0.0,0.0,0.0,0.0,0.0,0.0,0.0,0.0,0.0,0.0,0.0,0.0,0.0,0.0,0.0,0.0,0.0,0.0,0.0,0.0,0.0,0.0,0.0,0.0,0.0,0.0,0.0,-0.6498,-0.7482,-0.7864,-0.7082,-0.7825,-0.7885,-0.6768,0.0,0.0,0.0,0.0,0.0,0.0,0.0,0.0,0.0,0.0,0.0,0.0,0.0,0.0,0.0,0.0,0.0,0.0,0.0,0.0,0.0,0.0,0.0,0.0,0.0,0.0,0.0,0.0,0.0,0.0,0.0,0.0,0.0,0.0,0.0,0.0,0.0,0.0,0.0,0.0,0.0,0.0,0.0,0.0,0.0,0.0,0.0,0.0,0.0,0.0,0.0,0.0,0.0,0.0,0.0,0.0,0.0,0.0,0.0,0.0,0.0,0.0,0.0,0.0,0.0,0.0,0.0,0.0,0.0,0.0,0.0,0.0,0.0,0.0,0.0,0.0,0.0,0.0,0.0,0.0,0.0,0.0,0.0,0.0,0.0,0.0,0.0,0.0,0.0,0.0,0.0,0.0,0.0,0.0,0.0,0.0,0.0,0.0,0.0,0.0,0.0,0.0,0.0,0.0,-0.6742,-0.7116,-0.7354,-0.75,-0.7619,-0.7332,-0.7107,-0.6867,0.0,0.0,0.0,0.0,0.0,0.0,0.0,0.0,0.0,0.0,0.0,0.0,0.0,0.0,0.0,0.0,0.0,0.0,0.0,0.0,0.0,0.0,0.0,0.0,0.0,0.0,0.0,0.0,0.0,0.0,0.0,0.0,0.0,0.0,0.0,0.0,0.0,0.0,0.0,0.0,0.0,0.0,0.0,0.0,0.0,0.0,0.0,0.0,0.0,0.0,0.0,0.0,0.0,0.0,0.0,0.0,0.0,0.0,0.0,0.0,0.0,0.0,0.0,0.0,0.0,0.0,0.0,0.0,0.0,0.0,0.0,0.0,0.0,0.0,0.0,0.0,0.0,0.0,0.0,0.0,0.0,0.0,0.0,0.0,0.0,0.0,0.0,0.0,0.0,0.0,0.0,0.0,0.0,0.0,0.0,0.0,0.0,0.0,0.0,0.0,0.0,0.0,0.0,-0.6917,-0.7102,-0.7385,-0.7621,-0.7642,-0.7462,-0.7312,-0.6981,-0.6456,-0.6098,0.0,0.0,0.0,0.0,0.0,0.0,0.0,0.0,0.0,0.0,0.0,0.0,0.0,0.0,0.0,0.0,0.0,0.0,0.0,0.0,0.0,0.0,0.0,0.0,0.0,0.0,0.0,0.0,0.0,0.0,0.0,0.0,0.0,0.0,0.0,0.0,0.0,0.0,0.0,0.0,0.0,0.0,0.0,0.0,0.0,0.0,0.0,0.0,0.0,0.0,0.0,0.0,0.0,0.0,0.0,0.0,0.0,0.0,0.0,0.0,0.0,0.0,0.0,0.0,0.0,0.0,0.0,0.0,0.0,0.0,0.0,0.0,0.0,0.0,0.0,0.0,0.0,0.0,0.0,0.0,0.0,0.0,0.0,0.0,0.0,0.0,0.0,0.0,0.0,0.0,0.0,0.0,0.0,0.0,0.0,0.0,0.0,0.0,0.0,0.0,0.0,0.0,-0.7352,-0.7509,-0.7654,-0.7862,-0.7808,-0.7356,-0.7202,-0.6775,-0.5991,-0.5545,0.0,0.0,0.0,0.0,0.0,0.0,0.0,0.0,0.0,0.0,0.0,0.0,0.0,0.0,0.0,0.0,0.0,0.0,0.0,0.0,0.0,0.0,0.0,0.0,0.0,0.0,0.0,0.0,0.0,0.0,0.0,0.0,0.0,0.0,0.0,0.0,0.0,0.0,0.0,0.0,0.0,0.0,0.0,0.0,0.0,0.0,0.0,0.0,0.0,0.0,0.0,0.0,0.0,0.0,0.0,0.0,0.0,0.0,0.0,0.0,0.0,0.0,0.0,0.0,0.0,0.0,0.0,0.0,0.0,0.0,0.0,0.0,0.0,0.0,0.0,0.0,0.0,0.0,0.0,0.0,0.0,0.0,0.0,0.0,0.0,0.0,0.0,0.0,0.0,0.0,0.0,0.0,0.0,0.0,0.0,0.0,0.0,0.0,0.0,0.0,0.0,0.0,-0.7923,-0.8084,-0.8304,-0.7859,-0.7629,-0.7766,-0.6689,-0.5999,-0.5912,-0.5375,0.0,0.0,0.0,0.0,0.0,0.0,0.0,0.0,0.0,0.0,0.0,0.0,0.0,0.0,0.0,0.0,0.0,0.0,0.0,0.0,0.0,0.0,0.0,0.0,0.0,0.0,0.0,0.0,0.0,0.0,0.0,0.0,0.0,0.0,0.0,0.0,0.0,0.0,0.0,0.0,0.0,0.0,0.0,0.0,0.0,0.0,0.0,0.0,0.0,0.0,0.0,0.0,0.0,0.0,0.0,0.0,0.0,0.0,0.0,0.0,0.0,0.0,0.0,0.0,0.0,0.0,0.0,0.0,0.0,0.0,0.0,0.0,0.0,0.0,0.0,0.0,0.0,0.0,0.0,0.0,0.0,0.0,0.0,0.0,0.0,0.0,0.0,0.0,0.0,0.0,0.0,0.0,0.0,0.0,0.0,0.0,0.0,0.0,0.0,0.0,0.0,0.0,-0.803,-0.8025,0.0,-0.7944,-0.7863,-0.7322,-0.6788,-0.6325,-0.5938,0.0,0.0,0.0,0.0,0.0,0.0,0.0,0.0,0.0,0.0,0.0,0.0,0.0,0.0,0.0,0.0,0.0,0.0,0.0,0.0,0.0,0.0,0.0,0.0,0.0,0.0,0.0,0.0,0.0,0.0,0.0,0.0,0.0,0.0,0.0,0.0,0.0,0.0,0.0,0.0,0.0,0.0,0.0,0.0,0.0,0.0,0.0,0.0,0.0,0.0,0.0,0.0,0.0,0.0,0.0,0.0,0.0,0.0,0.0,0.0,0.0,0.0,0.0,0.0,0.0,0.0,0.0,0.0,0.0,0.0,0.0,0.0,0.0,0.0,0.0,0.0,0.0,0.0,0.0,0.0,0.0,0.0,0.0,0.0,0.0,0.0,0.0,0.0,0.0,0.0,0.0,0.0,0.0,0.0,0.0,0.0,0.0,0.0,0.0,0.0,0.0,0.0,-0.8178,-0.8255,-0.8174,0.0,-0.794,-0.771,-0.7022,-0.6633,-0.6247,-0.5864,0.0,0.0,0.0,0.0,0.0,0.0,0.0,0.0,0.0,0.0,0.0,0.0,0.0,0.0,0.0,0.0,0.0,0.0,0.0,0.0,0.0,0.0,0.0,0.0,0.0,0.0,0.0,0.0,0.0,0.0,0.0,0.0,0.0,0.0,0.0,0.0,0.0,0.0,0.0,0.0,0.0,0.0,0.0,0.0,0.0,0.0,0.0,0.0,0.0,0.0,0.0,0.0,0.0,0.0,0.0,0.0,0.0,0.0,0.0,0.0,0.0,0.0,0.0,0.0,0.0,0.0,0.0,0.0,0.0,0.0,0.0,0.0,0.0,0.0,0.0,0.0,0.0,0.0,0.0,0.0,0.0,0.0,0.0,0.0,0.0,0.0,0.0,0.0,0.0,0.0,0.0,0.0,0.0,0.0,0.0,0.0,0.0,0.0,0.0,0.0,0.0,0.0,-0.8403,-0.8551,-0.8703,-0.8703,-0.7633,-0.7022,-0.7188,-0.6099,-0.5401,0.0,0.0,0.0,0.0,0.0,0.0,0.0,0.0,0.0,0.0,0.0,0.0,0.0,0.0,0.0,0.0,0.0,0.0,0.0,0.0,0.0,0.0,0.0,0.0,0.0,0.0,0.0,0.0,0.0,0.0,0.0,0.0,0.0,0.0,0.0,0.0,0.0,0.0,0.0,0.0,0.0,0.0,0.0,0.0,0.0,0.0,0.0,0.0,0.0,0.0,0.0,0.0,0.0,0.0,0.0,0.0,0.0,0.0,0.0,0.0,0.0,0.0,0.0,0.0,0.0,0.0,0.0,0.0,0.0,0.0,0.0,0.0,0.0,0.0,0.0,0.0,0.0,0.0,0.0,0.0,0.0,0.0,0.0,0.0,0.0,0.0,0.0,0.0,0.0,0.0,0.0,0.0,0.0,0.0,0.0,0.0,0.0,0.0,0.0,0.0,0.0,0.0,0.0,-0.8627,-0.8627,-0.8684,-0.8751,-0.8843,-0.8899,-0.9039,-0.7965,-0.7398,-0.7604,0.0,0.0,0.0,0.0,0.0,0.0,0.0,0.0,0.0,0.0,0.0,0.0,0.0,0.0,0.0,0.0,0.0,0.0,0.0,0.0,0.0,0.0,0.0,0.0,0.0,0.0,0.0,0.0,0.0,0.0,0.0,0.0,0.0,0.0,0.0,0.0,0.0,0.0,0.0,0.0,0.0,0.0,0.0,0.0,0.0,0.0,0.0,0.0,0.0,0.0,0.0,0.0,0.0,0.0,0.0,0.0,0.0,0.0,0.0,0.0,0.0,0.0,0.0,0.0,0.0,0.0,0.0,0.0,0.0,0.0,0.0,0.0,0.0,0.0,0.0,0.0,0.0,0.0,0.0,0.0,0.0,0.0,0.0,0.0,0.0,0.0,0.0,0.0,0.0,0.0,0.0,0.0,0.0,0.0,0.0,0.0,0.0,0.0,0.0,0.0,0.0,0.0,-0.9169,-0.9184,-0.9311,-0.9518,-0.9692,-0.9822,-0.9872,-0.9119,-0.8698,-0.8819,0.0,0.0,0.0,0.0,0.0,0.0,0.0,0.0,0.0,0.0,0.0,0.0,0.0,0.0,0.0,0.0,0.0,0.0,0.0,0.0,0.0,0.0,0.0,0.0,0.0,0.0,0.0,0.0,0.0,0.0,0.0,0.0,0.0,0.0,0.0,0.0,0.0,0.0,0.0,0.0,0.0,0.0,0.0,0.0,0.0,0.0,0.0,0.0,0.0,0.0,0.0,0.0,0.0,0.0,0.0,0.0,0.0,0.0,0.0,0.0,0.0,0.0,0.0,0.0,0.0,0.0,0.0,0.0,0.0,0.0,0.0,0.0,0.0,0.0,0.0,0.0,0.0,0.0,0.0,0.0,0.0,0.0,0.0,0.0,0.0,0.0,0.0,0.0,0.0,0.0,0.0,0.0,0.0,0.0,0.0,0.0,0.0,0.0,0.0,0.0,0.0,0.0,-0.9943,-1.005,-1.0222,-1.073,-1.0319,-1.0004,-1.0198,-0.9688,-0.9351,-0.937,0.0,0.0,0.0,0.0,0.0,0.0,0.0,0.0,0.0,0.0,0.0,0.0,0.0,0.0,0.0,0.0,0.0,0.0,0.0,0.0,0.0,0.0,0.0,0.0,0.0,0.0,0.0,0.0,0.0,0.0,0.0,0.0,0.0,0.0,0.0,0.0,0.0,0.0,0.0,0.0,0.0,0.0,0.0,0.0,0.0,0.0,0.0,0.0,0.0,0.0,0.0,0.0,0.0,0.0,0.0,0.0,0.0,0.0,0.0,0.0,-1.5643,0.0,0.0,0.0,0.0,0.0,0.0,0.0,0.0,0.0,0.0,0.0,0.0,0.0,0.0,0.0,0.0,0.0,0.0,0.0,0.0,0.0,0.0,0.0,0.0,0.0,0.0,0.0,0.0,0.0,0.0,0.0,0.0,0.0,0.0,0.0,0.0,0.0,0.0,0.0,0.0,0.0,-0.9963,-1.0293,-1.0773,-1.1381,-1.1398,-1.1227,-1.1075,-1.0831,-1.0129,-0.8763,-0.8497,0.0,0.0,0.0,0.0,0.0,0.0,0.0,0.0,0.0,0.0,0.0,0.0,0.0,0.0,0.0,0.0,0.0,0.0,0.0,0.0,0.0,0.0,0.0,0.0,0.0,0.0,0.0,0.0,0.0,0.0,0.0,0.0,0.0,0.0,0.0,0.0,0.0,0.0,0.0,0.0,0.0,0.0,0.0,0.0,0.0,0.0,0.0,0.0,0.0,0.0,0.0,0.0,0.0,0.0,0.0,0.0,0.0,0.0,0.0,0.0,-1.5037,0.0,0.0,0.0,0.0,0.0,0.0,0.0,0.0,0.0,0.0,0.0,0.0,0.0,0.0,0.0,0.0,0.0,0.0,0.0,0.0,0.0,0.0,0.0,0.0,0.0,0.0,0.0,0.0,0.0,0.0,0.0,0.0,0.0,0.0,0.0,0.0,0.0,0.0,0.0,0.0,-1.0945,-1.1205,-1.1511,-1.2152,-1.2163,-1.2132,-1.2003,-1.2064,-1.1697,-1.0788,-1.0324,0.0,0.0,0.0,0.0,0.0,0.0,0.0,0.0,0.0,0.0,0.0,0.0,0.0,0.0,0.0,0.0,0.0,0.0,0.0,0.0,0.0,0.0,0.0,0.0,0.0,0.0,0.0,0.0,0.0,0.0,0.0,0.0,0.0,0.0,0.0,0.0,0.0,0.0,0.0,0.0,0.0,0.0,0.0,0.0,0.0,0.0,0.0,0.0,0.0,0.0,0.0,0.0,0.0,-1.9486,-1.8746,-1.7906,-1.7757,-1.7009,-1.5702,-1.4972,-1.4298,-1.366,0.0,0.0,0.0,0.0,0.0,0.0,0.0,0.0,0.0,0.0,0.0,0.0,0.0,0.0,0.0,0.0,0.0,0.0,0.0,0.0,0.0,0.0,0.0,0.0,0.0,-1.0795,-1.0987,0.0,0.0,0.0,0.0,0.0,0.0,0.0,0.0,0.0,0.0,0.0,0.0,-1.1901,-1.21,-1.2272,-1.2619,-1.2705,-1.2619,-1.2448,-1.2881,-1.2966,-1.2619,-1.2272,-1.2015,0.0,0.0,0.0,0.0,0.0,0.0,0.0,0.0,0.0,0.0,0.0,0.0,0.0,0.0,0.0,0.0,0.0,0.0,0.0,0.0,0.0,0.0,0.0,0.0,0.0,0.0,0.0,0.0,0.0,0.0,0.0,0.0,-1.9246,-2.0012,0.0,0.0,0.0,0.0,0.0,0.0,0.0,0.0,0.0,0.0,0.0,0.0,0.0,-2.1317,-2.0744,-2.0603,-2.0032,-1.9029,-1.8883,-1.8424,-1.7647,-1.6925,-1.6489,-1.6253,-1.5425,0.0,-1.4418,-1.508,0.0,0.0,0.0,0.0,0.0,0.0,0.0,0.0,0.0,0.0,0.0,0.0,0.0,0.0,0.0,0.0,0.0,0.0,0.0,0.0,0.0,0.0,-1.2805,-1.2561,-1.2123,-1.1742,0.0,-1.2311,-1.2482,-1.1688,-1.2117,0.0,0.0,0.0,0.0,0.0,0.0,0.0,-1.2009,-1.2357,-1.2619,-1.2705,-1.2705,-1.2357,-1.1585,-1.2448,-1.2443,-1.0788,-1.1752,-1.2009,-1.1133,-1.1117,0.0,0.0,0.0,0.0,0.0,0.0,0.0,0.0,0.0,0.0,0.0,0.0,0.0,0.0,0.0,0.0,0.0,0.0,0.0,0.0,0.0,0.0,0.0,0.0,0.0,0.0,0.0,0.0,0.0,-1.917,-1.9703,-2.0815,-2.1494,-2.2446,0.0,0.0,0.0,0.0,0.0,0.0,0.0,0.0,0.0,-2.342,-2.2468,-2.1628,-2.0974,-2.0974,-2.0676,-2.0151,-2.0151,-1.944,-1.8184,-1.7804,-1.7116,-1.6182,-1.5797,-1.5564,-1.538,-1.5381,-1.5142,-1.4847,0.0,0.0,0.0,0.0,-1.4762,-1.4606,-1.4279,-1.4279,0.0,-1.413,0.0,0.0,0.0,0.0,0.0,0.0,0.0,0.0,0.0,0.0,0.0,-1.2619,-1.241,-1.2444,-1.2864,-1.3105,-1.3054,0.0,-1.2416,-1.264,-1.2091,0.0,0.0,0.0,0.0,0.0,-1.2357,-1.2534,-1.279,-1.2881,-1.2875,-1.279,-1.2534,-1.3045,-1.313,-1.226,-1.296,-1.3137,-1.2778,-1.2357,-1.21,0.0,0.0,0.0,0.0,0.0,0.0,0.0,0.0,0.0,0.0,0.0,0.0,0.0,0.0,0.0,0.0,0.0,0.0,0.0,0.0,0.0,0.0,0.0,0.0,0.0,0.0,0.0,0.0,-1.9541,-2.0106,-2.1389,-2.1854,-2.2684,0.0,0.0,0.0,0.0,0.0,0.0,-2.5829,-2.5308,-2.4728,-2.405,-2.3037,-2.2159,-2.1625,-2.1625,-2.1625,-2.1703,-2.1703,-2.0879,-1.9416,-1.9174,-1.8237,-1.67,-1.6467,-1.6337,-1.6214,-1.5625,-1.5332,-1.5332,-1.5332,-1.5332,-1.5332,-1.5245,-1.5166,-1.5087,-1.4922,-1.4677,-1.4446,-1.4692,0.0,-1.3567,-1.4034,0.0,0.0,0.0,0.0,-1.3098,-1.3414,-1.3418,-1.3246,-1.2991,-1.2813,-1.2875,-1.3307,-1.3476,-1.3328,0.0,-1.2825,-1.2875,-1.2705,0.0,0.0,0.0,0.0,-1.279,-1.279,-1.2875,-1.2966,-1.3137,-1.3137,-1.3222,-1.3392,-1.3568,-1.3737,-1.3737,-1.3913,-1.4088,-1.4088,-1.3398,-1.3052,-1.3052,0.0,0.0,0.0,0.0,0.0,0.0,0.0,0.0,0.0,0.0,0.0,0.0,0.0,0.0,0.0,0.0,0.0,0.0,0.0,0.0,0.0,0.0,0.0,0.0,0.0,0.0,0.0,0.0,0.0,-2.1694,-2.1845,0.0,0.0,0.0,0.0,-2.5073,-2.4921,-2.472,-2.447,-2.4312,-2.3917,-2.3075,-2.2783,-2.2646,-2.2798,-2.2798,-2.2879,-2.3122,-2.3122,-2.2514,-2.1482,-2.0745,-1.9626,-1.8371,-1.7576,-1.7056,-1.6648,-1.6214,-1.6041,-1.6041,-1.6041,-1.6041,-1.6034,-1.6265,-1.6183,-1.5951,-1.5253,-1.5018,-1.4873,-1.351,-1.2917,-1.2747,-1.2747,-1.2747,0.0,0.0,-1.3691,-1.3937,-1.5184,-1.4615,-1.3795,-1.4461,-1.3626,-1.2705,-1.2705,-1.279,-1.2954,0.0,-1.3639,-1.3476,-1.279,0.0,-1.2705,-1.2705,-1.2881,-1.3058,-1.3058,-1.3222,-1.3398,-1.3398,-1.3398,-1.3392,-1.3398,-1.3568,-1.3737,-1.3737,-1.3913,-1.4088,-1.4088,-1.4082,-1.4004,-1.4004,-1.3997,0.0,0.0,0.0,0.0,0.0,0.0,0.0,0.0,0.0,0.0,0.0,0.0,0.0,0.0,0.0,0.0,0.0,0.0,0.0,0.0,0.0,0.0,0.0,0.0,0.0,0.0,0.0,0.0,-2.2713,-2.2446,0.0,-2.554,-2.5151,-2.528,-2.6554,-2.6591,-2.6518,-2.6578,-2.6107,-2.5447,-2.4658,-2.4154,-2.3556,-2.3113,-2.3103,-2.3113,-2.3184,-2.3184,-2.2411,-2.0894,-2.0643,-1.9645,-1.8002,-1.776,-1.7525,-1.7405,-1.7235,-1.6891,-1.6492,-1.6492,-1.6492,-1.6492,-1.6394,-1.6312,-1.6237,-1.5974,-1.5891,-1.5816,-1.4977,-1.4391,-1.3977,-1.3977,-1.3977,-1.4055,-1.4314,-1.4314,-1.4482,-1.4901,-1.4734,-1.4405,-1.465,-1.4559,-1.4468,-1.4468,-1.4615,-1.4692,-1.4378,-1.3802,-1.3307,-1.3137,-1.3137,-1.3137,-1.3137,-1.3222,-1.3313,-1.3313,-1.3392,-1.3476,-1.3568,-1.3568,-1.3652,-1.3828,-1.3913,-1.3997,-1.3997,-1.4082,-1.4088,-1.4088,-1.4088,-1.4088,-1.4088,-1.4088,-1.3828,0.0,0.0,0.0,0.0,0.0,0.0,0.0,0.0,0.0,0.0,0.0,0.0,0.0,0.0,0.0,0.0,0.0,0.0,0.0,0.0,0.0,0.0,0.0,0.0,0.0,0.0,-2.2025,-2.3635,-2.3275,-2.3884,-2.6419,-2.6,-2.5969,-2.6839,-2.7162,-2.7385,-2.7471,-2.7206,-2.6606,-2.5888,-2.526,-2.4487,-2.365,-2.3639,-2.3639,-2.3639,-2.3298,-2.235,-2.0888,-2.0544,-1.9522,-1.7946,-1.7946,-1.7882,-1.7771,-1.7771,-1.7501,-1.7072,-1.6961,-1.6841,-1.6656,-1.6566,-1.6484,-1.6476,-1.6229,-1.5982,-1.5726,-1.5235,-1.4734,-1.4398,-1.4559,-1.4727,-1.4977,-1.5137,-1.513,-1.5213,-1.5387,-1.5054,-1.472,-1.497,-1.4894,-1.4727,-1.4727,-1.4956,-1.4949,-1.4461,-1.3964,-1.3548,-1.3392,-1.3398,-1.3398,-1.3398,-1.3483,-1.3483,-1.3483,-1.3568,-1.3659,-1.3822,-1.3828,-1.3913,-1.4088,-1.4088,-1.4088,-1.4088,-1.4088,-1.4088,-1.4088,-1.3828,-1.3652,-1.3652,-1.3652,-1.3307,-1.2705,0.0,0.0,0.0,0.0,0.0,0.0,0.0,0.0,0.0,0.0,0.0,0.0,0.0,0.0,0.0,0.0,0.0,0.0,0.0,0.0,0.0,0.0,0.0,-2.1363,-2.1696,-2.2579,-2.431,-2.4182,-2.4714,-2.6621,-2.6065,-2.567,-2.5935,-2.6598,-2.6962,-2.6962,-2.7456,-2.7281,-2.6336,-2.5991,-2.5421,-2.454,-2.454,-2.454,-2.4454,-2.3551,-2.2658,-2.1695,-2.0709,-1.9611,-1.8319,-1.8319,-1.8209,-1.789,-1.789,-1.7882,-1.7842,-1.7421,-1.708,-1.677,-1.6762,-1.677,-1.668,-1.602,-1.5347,-1.4678,-1.401,-1.3848,-1.3926,-1.4398,-1.4992,-1.5582,-1.5959,-1.6116,-1.6288,-1.6894,-1.5982,-1.4977,-1.5643,-1.4657,-1.3587,-1.3587,-1.3587,-1.3587,-1.3763,-1.4328,-1.4482,-1.3561,-1.3392,-1.3392,-1.3392,-1.3568,0.0,-1.3737,-1.3913,-1.4088,-1.4088,-1.4088,-1.4088,-1.4088,-1.4088,-1.4088,-1.4088,-1.4088,-1.4088,-1.4088,-1.3222,-1.2705,-1.2705,-1.2705,-1.2705,-1.2705,0.0,0.0,0.0,0.0,0.0,0.0,0.0,0.0,0.0,0.0,0.0,0.0,0.0,0.0,0.0,0.0,0.0,0.0,0.0,0.0,0.0,0.0,-2.306,-2.3099,-2.352,-2.4426,-2.6024,-2.562,-2.6093,-2.8124,-2.7605,-2.7609,-2.8651,-2.8919,-2.8996,-2.8996,-2.9145,-2.8482,-2.6944,-2.6826,-2.6008,-2.454,-2.454,-2.454,-2.4454,-2.3551,-2.2746,-2.2227,-2.1248,-2.0395,-1.9768,-1.9768,-1.9718,-1.9617,-1.9617,-1.9457,-1.918,-1.8118,-1.7572,-1.7571,-1.7912,-1.8253,-1.8405,-1.7912,-1.7555,-1.7103,-1.6357,-1.6522,-1.6931,-1.686,-1.7461,-1.8143,-1.8304,-1.8296,-1.838,-1.8566,-1.8304,-1.8041,-1.8219,-1.8135,-1.788,-1.7196,-1.729,-1.7118,-1.5828,-1.5741,-1.5425,-1.4155,-1.3913,-1.3913,-1.3913,-1.3913,0.0,-1.3997,-1.4082,-1.4088,-1.4088,-1.4088,-1.4088,-1.4088,-1.4088,-1.4088,-1.4088,-1.4088,-1.4088,-1.4088,-1.3828,-1.3743,-1.3743,-1.3052,-1.2705,0.0,0.0,0.0,0.0,0.0,0.0,0.0,0.0,0.0,0.0,0.0,0.0,0.0,0.0,0.0,0.0,0.0,0.0,0.0,0.0,0.0,0.0,-2.335,-2.3847,-2.4793,-2.4836,-2.525,-2.6564,-2.6853,-2.7591,-2.9099,-2.8895,-2.8954,-2.9767,-2.9792,-2.9869,-2.9934,-2.9934,-2.9118,-2.7476,-2.7395,-2.6577,-2.4786,-2.4786,-2.4786,-2.4786,-2.3541,-2.2833,-2.2473,-2.1257,-2.0555,0.0,-2.0292,-2.0292,-2.0292,-2.0292,-2.0163,0.0,0.0,0.0,0.0,0.0,-1.8973,-1.9136,-1.8887,-1.8526,-1.8164,-1.7668,-1.7834,-1.8251,-1.8267,-1.8879,-1.9571,-1.9742,-1.9742,-1.9742,-1.9742,-1.9478,-1.9221,-1.9221,-1.9136,-1.8879,-1.8362,-1.8094,-1.766,-1.6521,-1.6006,0.0,-1.4596,-1.4456,-1.4456,-1.4456,-1.4349,-1.4269,-1.4269,-1.4162,-1.4088,-1.4088,-1.4088,-1.4088,-1.4088,-1.4088,0.0,0.0,0.0,-1.3913,-1.3568,-1.3483,0.0,0.0,0.0,-1.2272,-1.2705,0.0,0.0,0.0,-1.177,-1.1764,0.0,0.0,0.0,0.0,0.0,0.0,0.0,0.0,0.0,0.0,0.0,0.0,0.0,0.0,0.0,0.0,-2.3691,-2.4511,-2.6257,-2.5844,-2.5775,-2.6746,-2.7937,-2.8961,-2.9792,-2.9869,-2.9869,-2.9869,-2.9869,-2.9934,-3.0152,0.0,0.0,0.0,0.0,-2.6823,-2.52,-2.52,-2.52,-2.52,-2.3521,-2.2736,-2.2746,-2.1078,-2.0382,-2.0473,-2.0473,-2.0473,-2.0473,-2.0473,-2.0473,-2.0439,-2.0004,-1.966,-1.9436,-1.9436,-1.9436,-1.9436,-1.9436,0.0,0.0,-1.8365,-1.846,-1.8634,-1.898,-1.9522,-2.0139,-2.0565,-2.0659,-2.0659,-2.0659,-2.0045,-1.9522,-1.9522,-1.891,-1.8303,-1.8216,-1.75,-1.6795,-1.6536,-1.5845,-1.5244,-1.5154,-1.501,-1.4963,-1.4963,-1.4736,-1.4569,-1.4569,-1.4342,-1.4175,-1.4142,0.0,0.0,-1.4088,-1.4088,-1.4088,-1.4088,-1.4088,-1.3743,-1.2875,-1.2875,-1.2875,-1.2875,-1.1843,-1.1671,-1.2534,-1.158,-1.1154,-1.1149,-1.1235,-1.1327,0.0,0.0,0.0,0.0,0.0,0.0,0.0,0.0,0.0,0.0,0.0,0.0,0.0,0.0,0.0,-2.4293,-2.4353,-2.4809,-2.5986,-2.6653,-2.7577,-2.8971,-2.9394,-2.9702,-3.0011,-3.0011,-3.0075,-3.0292,-3.0292,-3.0292,-3.0368,-2.9651,-2.8846,-2.781,-2.708,-2.6268,-2.52,-2.52,-2.52,-2.52,0.0,0.0,-2.3309,-2.1615,-2.1096,-2.1463,-2.1463,-2.1463,-2.1463,-2.1463,-2.1463,-2.1365,-2.0477,-2.0399,-2.0678,-2.0678,-2.0864,-2.1139,-2.0766,-2.0766,-2.0864,-1.9684,-2.0043,-2.0864,-2.0214,-2.0678,0.0,-2.1414,-2.1502,-2.1502,-2.1502,-2.1316,-2.1228,-2.1228,-2.1051,-2.0775,-2.0035,-1.9667,-1.9035,-1.7405,-1.6957,-1.6586,-1.5752,-1.5277,-1.4963,-1.4963,-1.4917,-1.4877,-1.4877,-1.483,-1.4703,-1.4462,-1.4436,-1.4342,-1.4108,-1.4088,-1.4088,-1.4088,-1.4088,-1.3997,-1.3828,-1.3828,-1.3828,-1.3828,-1.2186,-1.1408,-1.158,-1.0636,-1.0202,-1.0202,-1.0982,-1.1327,0.0,0.0,0.0,0.0,0.0,0.0,0.0,0.0,0.0,0.0,0.0,-2.4519,0.0,0.0,-2.508,-2.4914,-2.4871,-2.5359,-2.6719,-2.7383,-2.8131,-2.9275,-2.9831,-3.0152,-3.0228,-3.0216,-3.0292,-3.0368,-3.0368,-3.0444,-3.0533,-2.9729,-2.8924,-2.8108,-2.7325,-2.6445,-2.5549,-2.5786,-2.5733,-2.5369,-2.4344,-2.384,-2.3689,-2.251,-2.2061,-2.2346,-2.2346,-2.2346,-2.2346,-2.2346,-2.2346,-2.2254,-2.1785,-2.1543,-2.1365,-2.1365,-2.1463,-2.1642,-2.1463,-2.1454,-2.1553,-2.0817,-2.1096,-2.1642,-2.1177,-2.1365,-2.1741,-2.1741,-2.1741,-2.1741,-2.1741,-2.1741,-2.1741,-2.1741,-2.1741,-2.1553,-2.1087,-2.0619,-1.9886,-1.8334,-1.7785,-1.7138,-1.6015,-1.5685,-1.5589,-1.5398,-1.5277,-1.5177,-1.5177,-1.5057,-1.4993,-1.492,-1.4906,-1.4933,-1.4877,-1.464,-1.4406,-1.425,-1.4166,-1.4088,-1.4088,-1.4088,-1.3913,-1.3398,-1.2015,-1.1068,-1.0636,-0.9689,-0.9257,-0.9257,-0.9689,-1.0207,0.0,0.0,0.0,0.0,0.0,0.0,0.0,0.0,-2.4584,-2.4798,-2.4873,-2.4909,-2.5126,-2.52,-2.52,-2.52,-2.52,-2.5852,-2.7637,-2.7879,-2.8279,-2.9316,-3.0037,-3.0444,-3.0444,-3.0444,-3.0444,-3.052,-3.052,-3.052,-3.0533,-2.9651,-2.8895,-2.8342,-2.7487,-2.6813,-2.6168,-2.639,-2.6215,-2.5591,-2.5128,-2.4569,-2.3942,-2.3224,-2.2857,-2.2857,-2.2857,-2.2857,-2.2857,-2.2857,-2.2857,-2.2857,-2.2857,-2.2455,-2.197,-2.197,-2.197,-2.197,-2.197,-2.197,-2.1961,-2.1878,-2.1851,-2.1841,-2.1759,-2.1741,-2.1741,-2.1741,-2.1741,-2.1731,-2.1741,-2.1741,-2.182,-2.183,-2.182,-2.183,-2.183,-2.1177,-2.0249,-1.9063,-1.8334,-1.7505,-1.6109,-1.6028,-1.613,-1.5927,-1.5725,-1.557,-1.567,-1.546,-1.5375,-1.548,-1.5473,-1.5542,-1.5672,-1.5258,-1.4922,-1.4675,-1.4443,-1.4338,-1.4253,-1.4193,-1.3737,-1.2705,-1.1757,-1.0809,-0.9859,-0.8999,-0.8568,-0.8568,-0.8568,-0.8999,-2.904,-2.8495,-2.8075,-2.7921,-2.694,-2.6074,0.0,0.0,-2.5408,-2.5199,-2.5199,-2.5136,-2.5189,-2.52,-2.52,-2.52,-2.52,-2.5841,-2.7775,-2.8096,-2.873,-3.0583,-3.0596,-3.0444,-3.0622,-3.0698,-3.0773,-3.0911,-3.0911,-3.0583,-2.9871,-2.8991,-2.8333,-2.8006,-2.7126,-2.6823,-2.7151,-2.6587,-2.6151,-2.6072,-2.4742,-2.4127,-2.3942,-2.3224,-2.2857,-2.2857,-2.2857,-2.2857,-2.2857,-2.2857,-2.2857,-2.2857,-2.2857,-2.2802,-2.2729,-2.2729,-2.2729,-2.2729,-2.2729,-2.2729,-2.2758,-2.2382,-2.2263,-2.219,-2.1841,-2.1741,-2.1741,-2.1741,-2.1741,-2.1731,-2.2008,-2.2097,-2.2097,-2.2264,-2.2344,-2.2264,-2.2097,-2.2008,-2.1266,-1.9155,-1.8696,-1.8149,-1.6407,-1.6218,-1.6224,-1.613,-1.6096,-1.617,-1.6438,-1.6411,-1.6378,-1.6106,-1.6071,-1.5959,-1.5693,-1.5637,-1.5602,-1.5567,-1.5221,-1.4981,-1.4802,-1.4542,-1.3802,-1.2705,-1.1757,-1.0809,-0.9859,-0.8999,-0.8568,-0.8568,-0.8568,-0.8652,-2.9217,-2.8375,0.0,0.0,-2.6535,-2.5775,-2.5913,-2.5909,-2.5728,-2.5475,-2.5549,-2.5549,-2.5464,-2.5946,-2.6351,0.0,-2.6351,-2.6999,-2.8821,-2.8573,-2.8978,-3.0748,-3.0823,-3.0761,-3.0836,-3.0836,-3.0911,-3.0986,-3.0986,-3.0725,-3.0168,-2.9309,-2.8657,-2.8344,-2.7445,-2.7119,-2.7315,-2.687,-2.636,-2.59,-2.5124,-2.4488,-2.4113,-2.3842,-2.3657,-2.3657,-2.3657,-2.3657,-2.3657,-2.3657,-2.3657,-2.3657,-2.3657,-2.3657,-2.3602,-2.3125,-2.2857,-2.2857,-2.2857,-2.2857,-2.2923,-2.2917,-2.2852,-2.2917,-2.2842,-2.2887,-2.2887,-2.2887,-2.2887,-2.2887,-2.2978,-2.307,-2.307,-2.3161,-2.3161,-2.3095,-2.2768,-2.2721,-2.1997,-1.9662,-1.9338,-1.8788,-1.677,-1.6595,-1.6697,-1.6697,-1.6501,-1.6494,-1.6588,-1.6588,-1.6633,-1.67,-1.6765,-1.6721,-1.6411,-1.6299,-1.6041,-1.5857,-1.5634,-1.5469,-1.5381,-1.4542,-1.3517,-1.2394,-1.1258,-1.0148,-0.917,-0.874,-0.8568,-0.8568,-0.8568,-0.8568,-3.0011,0.0,0.0,-2.8179,-2.729,-2.6623,-2.6919,-2.661,-2.6218,-2.6052,-2.5979,-2.5822,-2.5738,-2.6302,-2.6869,-2.6869,-2.7021,-2.773,-2.9147,-2.8978,-2.9225,-3.0508,-3.0823,-3.0823,-3.0343,-3.0495,-3.0659,-3.0659,-3.0586,-3.0287,-2.9707,-2.9306,-2.8864,-2.8437,-2.7856,-2.7577,-2.7708,-2.7133,-2.6547,-2.5983,-2.5344,-2.4824,-2.435,-2.435,-2.435,-2.435,-2.435,-2.435,-2.435,-2.435,-2.435,-2.435,-2.435,-2.435,-2.4276,-2.3684,-2.3376,-2.3376,-2.3472,-2.3472,-2.3453,-2.3513,-2.357,-2.3551,-2.371,-2.3672,-2.3672,-2.3672,-2.3672,-2.3672,-2.3765,-2.3765,-2.3868,-2.3858,-2.3858,-2.3782,-2.3486,-2.3136,-2.23,-2.0247,-1.9734,-1.9082,-1.7311,-1.7063,-1.7108,-1.7196,-1.7022,-1.677,-1.677,-1.677,-1.6871,-1.7066,-1.7239,-1.723,-1.7004,-1.6805,-1.662,-1.6389,-1.6109,-1.588,-1.5521,-1.4527,-1.3297,-1.1758,-1.0865,-0.9818,-0.8714,-0.8714,-0.8714,-0.8714,-0.8714,-0.8714,0.0,0.0,-3.1763,-3.1776,-3.0758,-2.9884,-2.9909,-2.8426,-2.7185,-2.7185,-2.6456,-2.5895,-2.5906,-2.5906,-2.5895,-2.5895,-2.6622,-2.7499,-2.8347,-2.9147,-2.9704,-2.9704,-3.0508,-3.0343,0.0,-2.9225,-2.9704,-2.9704,-2.9413,-2.8916,-2.8027,-2.839,-2.8449,-2.8003,-2.8014,-2.8244,-2.8702,-2.7295,-2.6628,-2.6839,-2.5294,-2.4627,-2.4833,-2.4833,-2.4833,-2.4833,-2.4833,-2.4833,-2.4833,-2.4833,-2.4833,-2.4833,-2.4833,-2.4833,-2.4833,-2.4805,-2.4698,-2.4492,-2.4796,-2.4796,-2.4739,-2.443,-2.4307,-2.4231,-2.3805,-2.3672,-2.3672,-2.3672,-2.3672,-2.3775,-2.4054,-2.4063,-2.4146,-2.4322,-2.4414,-2.4322,-2.4137,-2.3271,-2.2123,-2.0866,-1.97,-1.8739,-1.7987,-1.7631,-1.7527,-1.7705,-1.753,-1.7232,-1.7232,-1.7232,-1.7232,-1.7333,-1.7326,-1.7326,-1.7318,-1.7318,-1.7311,-1.7296,-1.7011,-1.6288,-1.5094,-1.4637,-1.3393,-1.1017,-1.093,-1.0283,-0.908,-0.908,-0.908,-0.908,-0.908,-0.908,0.0,0.0,-3.1009,-3.1009,-3.0203,-2.9319,-2.9319,-2.8706,-2.8176,-2.8176,-2.7596,-2.716,-2.7498,-2.7392,-2.7311,-2.7532,-2.7517,-2.7715,-2.8299,-2.8199,-2.8438,-2.9549,-2.9459,0.0,0.0,0.0,0.0,-2.9358,-2.9229,-2.9059,-2.8809,-2.9003,-2.888,-2.8495,-2.8782,-2.8767,-2.8279,-2.76,-2.6935,-2.638,-2.5314,-2.4984,-2.5348,-2.5348,-2.55,-2.5755,-2.5755,-2.5755,-2.5755,-2.5755,-2.5755,-2.5755,-2.5755,-2.5594,-2.5358,-2.5557,-2.5376,-2.503,-2.4932,-2.4932,-2.4913,-2.4975,-2.4927,-2.4996,-2.5044,-2.5006,-2.5006,-2.5006,-2.5006,-2.5006,-2.5111,-2.5197,-2.5197,-2.5293,-2.5293,-2.5014,-2.3946,-2.3404,-2.2547,-2.0467,-1.9747,-1.9259,-1.8299,-1.8112,-1.8047,-1.8138,-1.7677,-1.7326,-1.7326,-1.7326,-1.7326,-1.7326,-1.7326,-1.7326,-1.7326,-1.7326,-1.7326,-1.7326,-1.7051,-1.6427,-1.5276,-1.4339,-1.2986,-1.1229,-1.0485,-0.9772,-0.9096,-0.9096,-0.9096,-0.9096,-0.9096,-0.9096,0.0,-3.1703,-3.1158,-3.1158,-3.0594,-3.0037,-3.0037,-2.9426,-2.8827,-2.8827,-2.809,-2.7589,-2.8132,-2.7827,-2.7733,-2.8427,-2.8138,-2.8041,-2.8378,-2.8199,-2.8279,-2.8755,-2.8585,0.0,0.0,0.0,0.0,-2.874,-2.8783,-2.8758,-2.8791,-2.8982,-2.9138,-2.9024,-2.9013,-2.8735,-2.8269,-2.7505,-2.6739,-2.6045,-2.5807,-2.5829,-2.6088,-2.6088,-2.6018,-2.5844,-2.6275,-2.6275,-2.5844,-2.6275,-2.649,-2.649,-2.649,-2.6327,-2.6097,-2.6299,-2.6126,-2.5846,-2.534,-2.5235,-2.5235,-2.544,-2.544,-2.544,-2.5645,-2.5742,-2.5742,-2.5742,-2.5742,-2.5742,-2.5742,-2.5742,-2.5742,-2.5742,-2.5742,-2.546,-2.4475,-2.3721,-2.2654,-2.104,-2.0119,-1.9437,-1.875,-1.8555,-1.8438,-1.8321,-1.7947,-1.7633,-1.7516,-1.7399,-1.7326,-1.7326,-1.7326,-1.7326,-1.7326,-1.7326,-1.7326,-1.7326,-1.6864,-1.6096,-1.5026,-1.3788,-1.2368,-1.0976,-1.0215,-0.9686,-0.9287,-0.9287,-0.9287,-0.9287,-0.9287,-0.9287,-3.2182,-3.2182,-3.2182,-3.2182,-3.2036,-3.189,-3.1863,-3.0477,-2.9162,-2.9124,-2.8064,-2.7259,0.0,0.0,-2.7129,-2.8464,-2.8469,-2.8311,-2.8255,-2.8978,-2.8912,0.0,0.0,0.0,0.0,0.0,0.0,-2.7939,0.0,-2.8047,-2.808,-2.8506,-2.9024,-2.9393,-2.8549,-2.8279,-2.8571,-2.6996,-2.6084,-2.6016,-2.6725,-2.7031,-2.6939,-2.6939,-2.6304,-2.524,-2.6435,-2.6323,-2.5353,-2.6548,-2.708,-2.708,-2.708,-2.707,-2.7051,-2.7051,-2.7031,-2.6894,-2.6084,-2.5801,-2.5801,-2.5801,-2.5801,-2.5801,-2.5781,-2.5771,-2.5762,-2.5742,-2.5742,-2.5742,-2.5742,-2.5742,-2.5742,-2.5742,-2.5742,-2.5635,-2.5635,-2.4007,-2.2484,-2.2391,-2.068,-1.9279,-1.9279,-1.9023,-1.8708,-1.8401,-1.8343,-1.8211,-1.7882,-1.7574,-1.7369,-1.7355,-1.7355,-1.7347,-1.7326,-1.7232,-1.7232,-1.7232,-1.6278,-1.5222,-1.4268,-1.3017,-1.1663,-1.0413,-1.0117,-0.992,-0.9628,-0.9628,-0.9628,-0.9628,-0.9628,-0.9628,-3.2182,-3.2182,-3.2182,-3.2182,-3.2182,-3.1988,-3.1554,-3.0954,-3.0427,-2.9963,-2.9057,-2.8755,0.0,0.0,0.0,-2.8578,-2.7684,0.0,-2.6565,-2.6693,0.0,0.0,0.0,-2.7217,-2.7522,-2.7765,0.0,0.0,-2.7984,-2.82,-2.8549,-2.905,-2.9024,-2.8362,-2.8839,-2.8629,-2.7544,-2.7013,-2.6738,-2.6754,-2.6963,-2.6756,-2.6206,-2.6206,-2.5709,-2.4872,-2.6098,-2.6439,-2.6215,-2.7419,-2.7969,-2.7969,-2.7969,-2.7773,-2.75,-2.75,-2.7295,-2.6982,-2.6768,-2.6689,-2.6689,-2.6689,-2.6689,-2.6631,-2.6318,-2.6221,-2.6152,-2.583,-2.5742,-2.5742,-2.5742,-2.5742,-2.5742,-2.5742,-2.5742,-2.543,-2.4707,-2.3493,-2.2291,-2.1489,-2.0181,-1.9279,-1.9279,-1.9206,-1.9118,-1.9038,-1.8818,-1.8547,-1.8218,-1.8101,-1.7962,-1.7721,-1.7691,-1.7589,-1.7347,-1.656,-1.6177,-1.6177,-1.5038,-1.389,-1.2823,-1.2549,-1.1678,-1.0117,-1.0216,-1.0117,-0.9628,-0.9628,-0.9628,-0.9628,-0.9628,-0.9628,-3.2182,-3.2182,-3.2114,-3.1857,-3.1789,-3.1639,-3.1042,-3.0551,-3.0129,-2.9779,-2.9161,0.0,0.0,0.0,0.0,0.0,0.0,0.0,-2.6505,-2.6456,-2.6539,0.0,-2.6576,0.0,-2.7581,-2.7866,-2.8123,0.0,-2.8353,-2.8473,-2.8735,-2.8839,-2.8642,-2.8362,-2.8378,-2.8038,-2.7042,-2.665,-2.6551,-2.6551,-2.6188,-2.5745,-2.5415,-2.5415,-2.4876,-2.4069,0.0,-2.5735,-2.5845,-2.6961,-2.7853,-2.8291,-2.8291,-2.8144,-2.7939,-2.7939,-2.7783,-2.7578,-2.7578,-2.7578,-2.7614,-2.762,-2.7693,-2.7653,-2.7412,-2.7332,-2.7182,-2.6457,-2.6299,-2.626,-2.6074,-2.6025,-2.5977,-2.5781,-2.5742,-2.5538,-2.4913,-2.3601,-2.2089,-2.0483,-1.968,-1.9279,-1.9279,-1.9279,-1.9279,-1.9279,-1.9118,-1.873,-1.8034,-1.8175,-1.8233,-1.805,-1.7533,-1.7204,-1.6894,-1.5896,-1.5268,-1.5134,-1.3986,-1.3119,-1.2533,-1.1965,-1.1292,-1.0413,-1.0314,-1.0117,-0.9727,-0.9628,-0.9628,-0.9628,-0.9628,-0.9628,-3.2182,-3.2182,-3.2046,-3.1436,-3.13,-3.111,-3.0446,-2.9727,-2.9188,-2.9121,0.0,0.0,-2.9107,0.0,-2.7717,-2.9035,0.0,-2.7105,-2.7021,-2.7021,-2.6809,-2.6078,-2.6431,-2.69,-2.737,-2.785,-2.8309,-2.8724,-2.8653,-2.8664,-2.8757,-2.8269,-2.8196,-2.8531,-2.7626,-2.7112,-2.6885,-2.6244,-2.5907,-2.5693,-2.502,-2.4616,-2.4505,-2.4505,-2.3855,-2.2869,0.0,0.0,-2.4616,-2.5735,-2.6961,-2.8067,-2.8067,-2.8184,-2.8291,-2.8291,-2.8291,-2.8291,-2.8291,-2.8291,-2.8377,-2.8706,-2.8742,-2.8842,-2.8869,-2.8859,-2.8459,-2.752,-2.7114,-2.6934,-2.6562,-2.6475,-2.6377,-2.5996,-2.5908,-2.5898,-2.584,-2.4044,-2.1887,-1.968,-1.9279,-1.9279,-1.9279,-1.9279,-1.9279,-1.9279,-1.9279,-1.8959,-1.7898,-1.8055,-1.811,-1.796,-1.7055,-1.6327,-1.6124,-1.5122,-1.4335,-1.4195,-1.318,-1.2586,-1.2586,-1.1492,-1.0801,-1.0801,-1.0314,-1.0117,-1.0019,-0.9727,-0.9628,-0.9628,-0.9628,-0.9628,-3.2182,-3.2182,-3.2046,-3.1436,-3.13,-3.1002,-2.9889,-2.955,0.0,0.0,0.0,-2.8698,-2.9374,-2.8549,0.0,-2.8275,0.0,0.0,0.0,0.0,-2.6217,0.0,0.0,0.0,0.0,0.0,0.0,0.0,0.0,-2.807,-2.8746,-2.8445,-2.8041,-2.7672,-2.7622,-2.7149,-2.6051,-2.6332,-2.5864,-2.4963,-2.4803,-2.4181,-2.3303,-2.3303,-2.2644,-2.1539,-2.2757,0.0,-2.3416,-2.4514,-2.5735,-2.6853,-2.6853,-2.7413,-2.8291,-2.8291,-2.8291,-2.8291,-2.8291,-2.8291,-2.8475,-2.9329,-2.9684,-2.9818,-3.0342,-2.9833,-2.9063,-2.8479,-2.7693,-2.6992,-2.6924,-2.6904,-2.6894,-2.6807,-2.6797,-2.6699,-2.6348,-2.4245,-2.1887,-1.968,-1.9279,-1.9279,-1.9279,-1.9279,-1.9279,-1.9279,-1.9279,-1.9279,-1.9063,-1.8227,-1.7224,-1.6034,-1.57,-1.5487,-1.5218,-1.419,-1.3565,-1.3527,-1.2349,-1.1759,-1.1759,-1.1387,-1.0998,-1.0801,-1.0703,-1.0413,-1.0019,-0.992,-0.9826,-0.9628,-0.9628,-0.9628,-3.2182,-3.2182,-3.2046,-3.1436,-3.1056,-3.0595,-2.9686,0.0,0.0,0.0,0.0,-2.8682,-2.8967,0.0,0.0,0.0,0.0,0.0,0.0,0.0,0.0,0.0,0.0,0.0,0.0,0.0,0.0,0.0,0.0,-2.7778,-2.8175,-2.7725,-2.7283,-2.7062,-2.6891,-2.6574,-2.6243,-2.5217,-2.4411,-2.3855,-2.3191,-2.2644,-2.2093,-2.2093,-2.1767,-2.1211,-2.1759,0.0,-2.3087,-2.3631,-2.4514,-2.5626,-2.63,-2.6853,-2.7413,-2.8077,-2.8291,-2.8291,-2.8291,-2.8291,-2.8495,-2.9513,-3.0338,-3.0813,-3.12,-3.0922,-3.0381,-2.9536,-2.8478,-2.7627,-2.7412,-2.7353,-2.7295,-2.707,-2.7012,-2.6749,-2.6028,-2.4356,-2.2602,-2.0779,-1.9934,-1.9477,-1.9301,-1.9279,-1.9279,-1.9279,-1.9279,-1.9063,-1.8534,-1.7463,-1.6666,-1.6533,-1.5463,-1.4622,-1.4367,-1.332,-1.2655,-1.2535,-1.203,-1.1671,-1.1671,-1.1472,-1.1264,-1.1165,-1.0955,-1.0609,-1.0216,-1.0117,-0.9821,-0.9628,-0.9628,-0.9628,-3.2182,-3.2182,-3.2046,-3.1436,-3.0853,-3.0242,-2.9618,-2.9021,0.0,0.0,-2.8587,-2.8587,-2.8587,0.0,0.0,0.0,0.0,0.0,0.0,0.0,0.0,0.0,0.0,0.0,0.0,0.0,0.0,0.0,0.0,0.0,-2.7345,-2.7019,-2.678,-2.6718,-2.6281,-2.6098,-2.6073,-2.4086,-2.2869,-2.2652,-2.1653,-2.1211,-2.1211,-2.1211,-2.1211,-2.1211,-2.1211,0.0,0.0,-2.2644,-2.3303,-2.4394,-2.5415,-2.5863,-2.63,-2.7511,-2.796,-2.796,-2.8184,-2.8291,-2.8388,-2.9313,-3.0442,-3.1677,-3.188,-3.1982,-3.1677,-3.0546,-2.9523,-2.8522,-2.7986,-2.7803,-2.7715,-2.7373,-2.7217,-2.683,-2.5776,-2.4517,-2.3203,-2.1877,-2.0689,-1.9762,-1.944,-1.9381,-1.936,-1.9286,-1.9279,-1.8855,-1.7793,-1.6611,-1.618,-1.6829,-1.5018,-1.3767,-1.3572,-1.2728,-1.2129,-1.1959,-1.1907,-1.1888,-1.1888,-1.169,-1.1562,-1.152,-1.1151,-1.0847,-1.0511,-1.0216,-0.992,-0.9727,-0.9628,-0.9628,-3.2182,-3.2182,-3.2046,-3.1436,-3.0853,-3.0242,-2.9618,0.0,0.0,0.0,-2.8587,-2.8587,-2.8587,-2.8158,0.0,0.0,0.0,0.0,0.0,0.0,0.0,0.0,0.0,0.0,0.0,0.0,0.0,0.0,0.0,0.0,-2.6438,-2.6981,-2.7334,-2.7265,-2.67,-2.5927,-2.4837,-2.3631,-2.2425,-2.1318,-2.1203,-2.1211,-2.1211,-2.1211,-2.1211,-2.1211,-2.1211,0.0,0.0,-2.1318,-2.2093,-2.3199,-2.3311,-2.3966,-2.5058,-2.6191,-2.6636,-2.6853,-2.796,-2.8291,-2.8291,-2.8398,-2.9838,-3.1779,-3.2789,-3.3101,-3.2789,-3.1779,-3.065,-2.9503,-2.8552,-2.8232,-2.8223,-2.8184,-2.7881,-2.7284,-2.6185,-2.4703,-2.3279,-2.2199,-2.0924,-2.0091,-1.9777,-1.9718,-1.9616,-1.9323,-1.9279,-1.8855,-1.7793,-1.6611,-1.5547,-1.4595,-1.33,-1.254,-1.2516,-1.2408,-1.2403,-1.2384,-1.2209,-1.211,-1.211,-1.1902,-1.1704,-1.152,-1.1501,-1.1193,-1.0801,-1.0511,-1.0216,-0.992,-0.9727,-0.9628,-3.2182,-3.2182,-3.2114,-3.1884,-3.111,-3.0351,-3.0093,0.0,0.0,-2.8587,-2.8587,-2.8587,-2.8587,-2.8183,-2.7613,0.0,0.0,0.0,0.0,0.0,0.0,0.0,0.0,0.0,0.0,0.0,0.0,0.0,0.0,0.0,-2.6184,-2.6691,-2.6672,-2.625,-2.5648,-2.4846,-2.3743,-2.2539,-2.1653,-2.1211,-2.1211,-2.1211,-2.1211,-2.1211,-2.1211,-2.1211,-2.1211,0.0,0.0,-2.1211,-2.1432,-2.1987,-2.2757,-2.3303,-2.3855,-2.5744,-2.6527,-2.6636,-2.7853,-2.8291,-2.8291,-2.8291,-2.9313,-3.065,-3.1051,-3.1246,-3.1154,-3.0753,-2.9828,-2.8804,-2.8388,-2.8291,-2.8291,-2.8291,-2.8164,-2.7931,-2.7487,-2.5703,-2.4105,-2.3453,-2.1814,-2.0428,-2.0106,-2.0047,-1.9938,-1.9616,-1.9572,-1.9069,-1.7813,-1.6611,-1.5435,-1.4272,-1.3088,-1.2441,-1.2441,-1.2441,-1.2441,-1.2441,-1.2365,-1.2318,-1.2318,-1.212,-1.1973,-1.1893,-1.1765,-1.1392,-1.0693,-1.0593,-1.0332,-0.9727,-0.9628,-0.9628,-3.2128,-3.2182,-3.2182,-3.2182,-3.1422,-3.0622,0.0,0.0,-2.8804,-2.8627,-2.8587,-2.8522,-2.8392,-2.7921,-2.7426,0.0,0.0,0.0,0.0,0.0,0.0,0.0,0.0,0.0,0.0,0.0,0.0,0.0,0.0,0.0,0.0,-2.6208,-2.6096,-2.5765,-2.4717,-2.3855,-2.2982,-2.1759,-2.1211,-2.1211,-2.1211,-2.1211,-2.1211,-2.1211,-2.1211,-2.1211,0.0,0.0,0.0,-2.1211,-2.1211,-2.1325,-2.2093,-2.2425,-2.2765,-2.4753,-2.5634,-2.6182,-2.7295,-2.796,-2.8291,-2.8291,-2.8804,-2.9418,-2.9418,-2.9922,-3.0338,-3.0026,-2.9112,-2.8291,-2.8291,-2.8291,-2.8291,-2.8291,-2.8291,-2.8184,-2.7853,-2.6173,-2.4539,-2.4065,-2.2284,-2.0764,-2.0435,-2.0377,-2.0274,-1.9952,-1.9571,-1.8912,-1.7423,-1.6196,-1.4985,-1.3851,-1.2871,-1.2441,-1.2441,-1.2441,-1.2441,-1.2441,-1.2441,-1.2441,-1.2441,-1.2304,-1.22,-1.2139,-1.1992,-1.1606,-1.0999,-1.0839,-1.0436,-0.9904,-0.9751,-0.9628,-3.2019,-3.2182,-3.2182,-3.2182,-3.1721,-3.1124,0.0,0.0,-2.9306,-2.8709,-2.8587,-2.8457,-2.7921,-2.7377,-2.6837,-2.6302,-2.5841,0.0,0.0,0.0,0.0,0.0,0.0,0.0,0.0,0.0,0.0,0.0,0.0,0.0,0.0,-2.5507,-2.556,-2.649,-2.4197,-2.2974,-2.2974,-2.1759,-2.1211,-2.1211,-2.1211,-2.1211,-2.1211,-2.1211,-2.1211,0.0,0.0,0.0,0.0,-2.1211,-2.1211,-2.1211,-2.1211,-2.1211,-2.1318,-2.2539,-2.3743,-2.4948,-2.6073,-2.7295,-2.8291,-2.8291,-2.8291,-2.8291,-2.8291,-2.9838,-3.137,-3.0235,-2.9112,-2.8291,-2.8291,-2.8291,-2.8291,-2.8291,-2.8291,-2.796,-2.6744,-2.5516,-2.4394,-2.3191,-2.1979,-2.1101,-2.0772,-2.072,-2.0603,-2.0281,-1.9222,-1.789,-1.6502,-1.5268,-1.3978,-1.2569,-1.2441,-1.2441,-1.2441,-1.2441,-1.2441,-1.2441,-1.2441,-1.2441,-1.2441,-1.2436,-1.2342,-1.2143,-1.2139,-1.203,-1.1813,-1.1105,-1.0712,-1.0703,-0.9913,-0.9628,-3.2019,-3.2182,-3.2182,-3.2182,-3.1734,-3.1246,-3.1056,0.0,-2.9348,-2.8746,-2.8332,-2.7908,-2.7377,-2.6837,-2.6427,-2.6233,-2.6043,0.0,0.0,0.0,0.0,0.0,0.0,0.0,0.0,0.0,0.0,0.0,0.0,0.0,0.0,-2.3713,-2.3836,-2.4776,-2.362,-2.2652,-2.1759,-2.1432,-2.1211,-2.1211,-2.1211,-2.1211,-2.1211,-2.1211,0.0,0.0,0.0,0.0,0.0,-2.1211,-2.1211,-2.1211,-2.1211,-2.1211,-2.1318,-2.2539,-2.3199,-2.3743,-2.4846,-2.6063,-2.7079,-2.7079,-2.7628,-2.8291,-2.8291,-2.8804,-2.9323,-2.891,-2.8601,-2.8291,-2.8291,-2.8291,-2.8291,-2.8291,-2.8291,-2.796,-2.6744,-2.5507,-2.4394,-2.3191,-2.1987,-2.1181,-2.1072,-2.1057,-2.0947,-2.0618,-2.0226,-1.9202,-1.6888,-1.6032,-1.4916,-1.2889,-1.2531,-1.2441,-1.2441,-1.2441,-1.2441,-1.2441,-1.2441,-1.2441,-1.2441,-1.2441,-1.2408,-1.2346,-1.2346,-1.2135,-1.1723,-1.1344,-1.0759,-1.0192,-0.9932,-0.9742,0.0,-3.2006,-3.2182,-3.2182,-3.1897,0.0,0.0,0.0,-2.9889,-2.8862,-2.8424,-2.7839,-2.6875,-2.6427,-2.6164,-2.5873,-2.5802,0.0,0.0,0.0,0.0,0.0,0.0,0.0,0.0,0.0,0.0,0.0,0.0,0.0,0.0,-2.2352,-2.2127,-2.2774,-2.2307,-2.1866,-2.1211,-2.1211,-2.1211,-2.1211,-2.1211,-2.1211,-2.1211,-2.1211,0.0,0.0,0.0,0.0,0.0,-2.1211,-2.1211,-2.1211,-2.1211,-2.1211,-2.1318,-2.2093,-2.2652,-2.3087,-2.3855,-2.5186,-2.6527,-2.6527,-2.7295,-2.8291,-2.8291,-2.8291,-2.8291,-2.8291,-2.8291,-2.8291,-2.8291,-2.8291,-2.8291,-2.8291,-2.8291,-2.796,-2.6744,-2.5507,-2.4394,-2.3191,-2.1987,-2.1211,-2.1211,-2.1211,-2.1137,-2.094,-2.0444,-1.9398,-1.7165,-1.6316,-1.5149,-1.3005,-1.2644,-1.2531,-1.2446,-1.2441,-1.2441,-1.2441,-1.2441,-1.2441,-1.2441,-1.2441,-1.2441,-1.2441,-1.2441,-1.2267,-1.193,-1.1536,-1.0809,-0.9985,-0.9916,-0.9827,0.0,0.0,0.0,0.0,0.0,0.0,0.0,0.0,0.0,-2.9127,-2.8726,-2.8173,-2.6521,-2.6213,-2.5992,-2.5382,-2.5312,0.0,0.0,0.0,0.0,0.0,0.0,0.0,0.0,0.0,0.0,0.0,0.0,0.0,0.0,-2.1283,-2.0431,-2.0332,-2.0499,-2.0787,-2.1174,-2.1196,-2.1211,-2.1211,-2.1211,-2.1203,-2.1089,-2.1211,0.0,0.0,0.0,0.0,0.0,-2.1211,-2.1211,-2.1211,-2.1211,-2.1211,-2.1211,-2.1211,-2.1873,-2.2869,-2.2869,-2.442,-2.6409,-2.6527,-2.7413,-2.8291,-2.8291,-2.8291,-2.8291,-2.8291,-2.8291,-2.8291,-2.8291,-2.8291,-2.8291,-2.8291,-2.8291,-2.796,-2.6636,-2.5507,-2.4283,-2.3087,-2.1987,-2.1211,-2.1211,-2.1211,-2.1211,-2.1211,-2.0148,-1.8873,-1.7436,-1.6132,-1.4818,-1.3184,-1.2893,-1.2682,-1.2479,-1.245,-1.2441,-1.2441,-1.2441,-1.2441,-1.2441,-1.2441,-1.2441,-1.2441,-1.2327,-1.2332,-1.2327,-1.1608,-1.089,-1.0176,-0.9989,-0.9896,-2.9835,0.0,-3.1612,-3.206,0.0,0.0,0.0,0.0,0.0,0.0,0.0,-2.8125,-2.6443,-2.613,-2.5924,-2.5372,0.0,0.0,0.0,0.0,0.0,0.0,0.0,0.0,0.0,0.0,0.0,0.0,0.0,0.0,0.0,-1.9949,-1.9611,-1.8992,-1.9215,-1.9682,-2.0478,-2.0965,-2.1211,-2.1211,-2.1211,-2.0737,-1.9795,-2.0737,0.0,0.0,0.0,0.0,-2.1211,-2.1211,-2.1211,-2.1211,-2.1211,-2.1211,-2.1211,-2.1211,-2.1432,-2.1653,-2.1653,-2.3199,-2.5397,-2.7286,-2.8077,-2.8291,-2.8291,-2.8291,-2.8291,-2.8291,-2.8291,-2.8291,-2.8291,-2.8291,-2.8291,-2.8291,-2.8291,-2.7736,-2.5617,-2.4948,-2.4061,-2.1979,-2.1432,-2.1211,-2.1211,-2.1211,-2.1211,-2.1211,-2.0974,-2.0242,-1.8988,-1.751,-1.6195,-1.485,-1.3517,-1.2748,-1.2696,-1.2535,-1.2441,-1.2441,-1.2441,-1.2441,-1.2441,-1.2441,-1.2441,-1.2441,-1.2223,-1.2005,-1.1787,-1.1415,-1.0866,-1.0367,-1.018,-1.0022,-2.9401,-3.0364,-3.1368,-3.1694,-3.1734,-3.1703,0.0,0.0,0.0,0.0,0.0,0.0,-2.6723,0.0,0.0,0.0,0.0,0.0,0.0,0.0,0.0,0.0,0.0,0.0,0.0,0.0,0.0,0.0,0.0,0.0,0.0,-1.8878,-1.8561,-1.8149,-1.8449,-1.9181,-2.0029,-2.0583,-2.0863,-2.0984,-2.1137,-2.05,-1.9325,-2.0615,-2.0148,0.0,0.0,0.0,-2.0385,-2.0974,-2.1211,-2.1211,-2.1211,-2.1211,-2.1211,-2.1211,-2.1211,-2.1211,-2.1211,-2.2749,-2.5058,-2.6844,-2.7853,-2.8291,-2.8291,-2.8291,-2.8291,-2.8291,-2.8291,-2.8291,-2.8291,-2.8291,-2.8291,-2.8291,-2.8291,-2.7843,-2.5954,-2.5067,-2.4181,-2.2425,-2.1539,-2.1211,-2.1211,-2.1211,-2.1211,-2.1211,-2.1211,-2.05,-1.8622,-1.778,-1.6489,-1.4665,-1.3551,-1.2866,-1.2776,-1.2564,-1.2441,-1.2441,-1.2441,-1.2441,-1.2441,-1.2441,-1.2441,-1.2441,-1.2114,-1.1896,-1.1568,-1.124,-1.0862,-1.055,-1.0371,-1.0188,-2.9197,-3.0147,-3.0953,-3.1118,-3.1135,-3.1053,0.0,0.0,0.0,0.0,0.0,0.0,0.0,0.0,0.0,0.0,0.0,0.0,0.0,0.0,0.0,0.0,0.0,0.0,0.0,0.0,0.0,0.0,0.0,0.0,0.0,-1.8094,-1.7582,-1.7582,-1.8049,-1.8739,-1.9526,-2.0,-2.041,-2.0655,-2.0933,-2.0266,-1.9021,-2.0315,-1.9516,0.0,0.0,0.0,-1.9441,-2.0622,-2.1211,-2.1211,-2.1211,-2.1211,-2.1211,-2.1211,-2.1211,-2.1211,-2.1432,-2.2749,-2.4616,-2.5854,-2.707,-2.8067,-2.8067,-2.8174,-2.8291,-2.8291,-2.8291,-2.8291,-2.8291,-2.8291,-2.8291,-2.8291,-2.8291,-2.796,-2.6518,-2.5397,-2.4292,-2.2974,-2.1873,-2.1211,-2.1211,-2.1211,-2.1211,-2.1211,-2.0974,-2.0148,-1.7917,-1.7331,-1.6194,-1.4035,-1.336,-1.3032,-1.2828,-1.2611,-1.2474,-1.2441,-1.2441,-1.2441,-1.2441,-1.2441,-1.2327,-1.2332,-1.2114,-1.1787,-1.1568,-1.1236,-1.0907,-1.0688,-1.0542,-1.0375,-2.8695,-2.8944,-2.9431,-3.0283,-3.0553,-3.0506,-3.0441,0.0,0.0,0.0,0.0,0.0,0.0,0.0,0.0,0.0,0.0,0.0,0.0,0.0,0.0,0.0,0.0,0.0,0.0,0.0,0.0,0.0,0.0,0.0,0.0,-1.7687,-1.7582,-1.7582,-1.7734,-1.7887,-1.8259,-1.9347,-1.9967,-2.0311,-2.0362,-1.9277,-1.7346,-1.8604,-1.7924,-1.6042,0.0,-1.9441,-1.9441,-2.0622,-2.1211,-2.1211,-2.1211,-2.1211,-2.1211,-2.1211,-2.1211,-2.1318,-2.232,-2.2982,-2.3416,-2.4616,-2.5735,-2.6744,-2.6744,-2.752,-2.8291,-2.8291,-2.8291,-2.8291,-2.8291,-2.8291,-2.8291,-2.8291,-2.8291,-2.7736,-2.5507,-2.4837,-2.4069,-2.1873,-2.1325,-2.1211,-2.1211,-2.1211,-2.1211,-2.1211,-2.0263,-1.9441,-1.9087,-1.7214,-1.5677,-1.529,-1.4157,-1.3254,-1.3041,-1.2833,-1.2639,-1.245,-1.2441,-1.2441,-1.2441,-1.2441,-1.2332,-1.2114,-1.1787,-1.1459,-1.1126,-1.0911,-1.0692,-1.0692,-1.0664,-1.0558,-2.8183,-2.8011,-2.8004,-2.8758,-2.9038,-2.9135,-2.9151,0.0,0.0,0.0,0.0,0.0,0.0,0.0,0.0,0.0,0.0,0.0,0.0,0.0,0.0,0.0,0.0,0.0,0.0,0.0,0.0,0.0,0.0,0.0,0.0,0.0,-1.7582,-1.7582,-1.7582,-1.7694,-1.8016,-1.8709,-1.9256,-1.9765,-2.0048,-1.9071,-1.6827,-1.8071,-1.7353,-1.5313,0.0,-1.8931,-1.9085,-2.0366,-2.105,-2.1211,-2.1211,-2.1211,-2.1211,-2.1211,-2.1211,-2.1325,-2.1873,-2.2425,-2.3087,-2.3631,-2.4514,-2.5626,-2.63,-2.6862,-2.7305,-2.7305,-2.7853,-2.8291,-2.8291,-2.8291,-2.8184,-2.752,-2.7853,-2.7511,-2.4411,-2.4292,-2.3958,-2.1653,-2.1211,-2.1211,-2.1211,-2.1211,-2.1211,-2.1211,-2.0148,-1.9087,-1.8383,-1.6744,-1.5337,-1.4629,-1.3858,-1.3301,-1.3084,-1.288,-1.2673,-1.2455,-1.2441,-1.2441,-1.2441,-1.2441,-1.2219,-1.2005,-1.1787,-1.1459,-1.1126,-1.0802,-1.0692,-1.0692,-1.0692,-1.0599,-2.7643,-2.7288,-2.7145,-2.7494,-2.7782,-2.8047,-2.806,0.0,0.0,0.0,0.0,0.0,0.0,0.0,0.0,0.0,0.0,0.0,0.0,0.0,0.0,0.0,0.0,0.0,0.0,0.0,0.0,0.0,0.0,0.0,0.0,0.0,-1.7582,-1.7582,-1.7582,-1.7694,-1.7905,-1.822,-1.8661,-1.9227,-1.9786,-1.8823,-1.6666,-1.7552,-1.6814,-1.4875,-1.7092,-1.8335,-1.8778,-2.0039,-2.0757,-2.0984,-2.0984,-2.0984,-2.0984,-2.0984,-2.0984,-2.0984,-2.0984,-2.1579,-2.2398,-2.2321,-2.3221,-2.4361,-2.5169,-2.5585,-2.5919,-2.5919,-2.6574,-2.738,-2.7795,-2.7853,-2.7628,-2.6744,-2.6961,-2.6626,-2.364,-2.3743,-2.3743,-2.1653,-2.1211,-2.1211,-2.1211,-2.1211,-2.1211,-2.1211,-1.991,-1.85,-1.756,-1.6037,-1.4748,-1.3808,-1.3551,-1.3353,-1.3088,-1.2838,-1.2621,-1.245,-1.2441,-1.2332,-1.2327,-1.2327,-1.211,-1.1787,-1.1568,-1.135,-1.1017,-1.0802,-1.0692,-1.0692,-1.0737,-1.0664,-2.704,-2.7085,-2.7065,-2.715,-2.7471,0.0,-2.7897,-2.7881,0.0,0.0,0.0,0.0,0.0,0.0,0.0,0.0,0.0,0.0,0.0,0.0,0.0,0.0,0.0,0.0,0.0,0.0,0.0,0.0,0.0,0.0,0.0,0.0,0.0,-1.7582,-1.7582,-1.7582,-1.7582,-1.7905,-1.8345,-1.8905,-1.9233,-1.8314,-1.6186,-1.6296,-1.5771,-1.4875,-1.6198,-1.7445,-1.8477,-1.9711,-2.0281,-2.0303,-2.0303,-2.0303,-2.0303,-2.0303,-2.0303,-2.0303,-2.0303,-2.0501,-2.0818,-2.0509,-2.147,-2.2646,-2.2417,-2.307,-2.4043,-2.4043,-2.4043,-2.4527,-2.6217,-2.6636,-2.6636,-2.6527,-2.5735,-2.4616,-2.3303,-2.3087,-2.2757,-2.1432,-2.1211,-2.1211,-2.1211,-2.1211,-2.1211,-2.1211,-1.9087,-1.7443,-1.7443,-1.5332,-1.3808,-1.3688,-1.3674,-1.3504,-1.3102,-1.2696,-1.2455,-1.2441,-1.2441,-1.2332,-1.2005,-1.2005,-1.1782,-1.1126,-1.1126,-1.1021,-1.0692,-1.0692,-1.0692,-1.0696,-1.0871,-1.085,-2.6496,-2.6098,-2.5862,-2.6743,0.0,0.0,0.0,0.0,0.0,0.0,0.0,0.0,0.0,0.0,0.0,0.0,0.0,0.0,0.0,0.0,0.0,0.0,0.0,0.0,0.0,0.0,0.0,0.0,0.0,0.0,0.0,0.0,0.0,-1.7582,-1.7582,-1.7582,-1.7582,-1.7905,-1.8122,-1.8338,-1.8108,-1.7199,-1.5701,-1.5161,-1.5104,-1.551,-1.594,-1.7347,-1.9283,-1.9722,-2.0062,-2.0237,-2.0237,-2.0237,-2.0237,-2.0237,-2.0237,-2.0237,-2.0237,-2.0318,-2.0398,-2.0274,-2.0639,-2.1144,-2.1858,-2.2355,-2.2675,-2.2675,-2.3216,-2.392,-2.4632,-2.4818,-2.4657,-2.4124,-2.4284,-2.4014,-2.2266,-2.2425,-2.2644,-2.1432,-2.1211,-2.1211,-2.1211,-2.1211,-2.1211,-2.1211,-1.9087,-1.7443,-1.7443,-1.5213,-1.3688,-1.3688,-1.3457,-1.3188,-1.2904,-1.2496,-1.2114,-1.2114,-1.2114,-1.2219,-1.2223,-1.2114,-1.1782,-1.1459,-1.1459,-1.1131,-1.0692,-0.9919,-0.9585,-0.9588,-0.8863,-0.8523,-2.5746,-2.5505,-2.5436,0.0,0.0,0.0,0.0,0.0,0.0,0.0,0.0,0.0,0.0,0.0,0.0,0.0,0.0,0.0,0.0,0.0,0.0,0.0,0.0,0.0,0.0,0.0,0.0,0.0,0.0,0.0,0.0,0.0,0.0,-1.7582,-1.7582,-1.7582,-1.7582,-1.7799,-1.7694,-1.7371,-1.6611,-1.5968,-1.5339,-1.4595,-1.4804,-1.5861,-1.5861,-1.7357,-1.9608,-1.9608,-1.974,-1.993,-1.993,-1.993,-1.993,-1.993,-1.993,-1.993,-1.993,-2.0003,-2.0069,-1.9967,-2.0003,-2.017,-2.0903,-2.1183,-2.1183,-2.1183,-2.1706,-2.2346,-2.2346,-2.2828,-2.3061,-2.2445,-2.2711,-2.2565,-2.1182,-2.1639,-2.2045,-2.1163,-2.1137,-2.1211,-2.1211,-2.1211,-2.1211,-2.1211,-1.9087,-1.7443,-1.7443,-1.5213,-1.3665,-1.3603,-1.3277,-1.2984,-1.2669,-1.2234,-1.2005,-1.2005,-1.1896,-1.2005,-1.2114,-1.1896,-1.1673,-1.1459,-1.135,-1.0907,-1.0139,-0.9254,-0.8699,-0.8364,-0.7473,-0.7138,-2.479,-2.553,0.0,0.0,0.0,0.0,0.0,0.0,0.0,0.0,0.0,0.0,0.0,0.0,0.0,0.0,0.0,0.0,0.0,0.0,0.0,0.0,0.0,0.0,0.0,0.0,0.0,0.0,0.0,0.0,0.0,0.0,-1.7582,-1.7582,-1.7582,-1.7582,-1.7582,-1.7582,-1.7041,-1.5861,-1.5007,-1.49,-1.5339,-1.4595,-1.4804,-1.5861,-1.5861,-1.7246,-1.9279,-1.9279,-1.9279,-1.9279,-1.9279,-1.9279,-1.9279,-1.9279,-1.9279,-1.9279,-1.9279,-1.9484,-1.9703,-1.9381,-1.9491,-1.9696,-1.9374,-1.9279,-1.9279,-1.9279,-1.9279,-1.9279,-1.9279,-2.068,-2.2017,-2.2025,-2.1078,-2.023,-2.0237,-2.0494,-2.072,-2.072,-2.0984,-2.1203,-2.1211,-2.1211,-2.1211,-2.1211,-1.9087,-1.7443,-1.7325,-1.5219,-1.3613,-1.3405,-1.3197,-1.2871,-1.2329,-1.2124,-1.2005,-1.2005,-1.1787,-1.1568,-1.1568,-1.1236,-1.1126,-1.1126,-1.0802,-1.0139,-0.892,-0.892,-0.8251,-0.7138,-0.7027,-0.7027,-2.5182,0.0,0.0,0.0,0.0,0.0,0.0,0.0,0.0,0.0,0.0,0.0,0.0,0.0,0.0,0.0,0.0,0.0,0.0,0.0,0.0,0.0,0.0,0.0,0.0,0.0,0.0,0.0,0.0,0.0,0.0,0.0,-1.7582,-1.7582,-1.7582,-1.7582,-1.7582,-1.7582,-1.747,-1.7041,-1.6187,-1.5114,-1.3938,-1.3835,-1.4583,-1.5968,-1.6723,-1.7891,-1.9279,-1.9279,-1.9279,-1.9279,-1.9279,-1.9279,-1.9279,-1.9279,-1.9279,-1.9279,-1.9279,-1.9345,-1.9403,-1.9308,-1.9345,-1.9403,-1.9301,-1.9279,-1.9279,-1.9279,-1.9279,-1.9279,-1.9279,-1.9725,-2.0129,-2.0362,-2.0215,-1.9967,-2.0186,-2.0311,-2.045,-2.0676,-2.0801,-2.094,-2.1167,-2.1211,-2.1211,-2.1211,-1.9087,-1.6738,-1.4981,-1.4157,-1.3556,-1.3202,-1.3102,-1.2923,-1.2454,-1.2146,-1.1896,-1.1678,-1.1455,-1.1459,-1.1896,-1.1564,-1.135,-1.1126,-1.0245,-0.9471,-0.892,-0.7257,-0.6258,-0.5924,-0.5033,-0.4589,-2.4371,0.0,0.0,0.0,0.0,0.0,0.0,0.0,0.0,0.0,0.0,0.0,0.0,0.0,0.0,0.0,0.0,0.0,0.0,0.0,0.0,0.0,0.0,0.0,0.0,0.0,0.0,0.0,0.0,0.0,0.0,-1.7582,-1.7582,-1.7582,-1.7582,-1.7582,-1.7582,-1.7582,-1.7364,-1.6935,-1.6399,-1.5328,-1.383,-1.4153,-1.49,-1.5749,-1.7569,-1.8639,-1.9279,-1.9279,-1.9279,-1.9279,-1.9279,-1.9279,-1.9279,-1.9279,-1.9279,-1.9279,-1.9279,-1.9279,-1.9279,-1.9279,-1.9279,-1.9279,-1.9279,-1.9279,-1.9279,-1.9279,-1.9279,-1.9279,-1.9279,-1.9279,-1.9323,-1.952,-1.9572,-1.9623,-1.9813,-1.9959,-2.0106,-2.0303,-2.0442,-2.0633,-2.0955,-2.1013,-2.1057,-2.1189,-1.9087,-1.6503,-1.4043,-1.3618,-1.3438,-1.3102,-1.2994,-1.2697,-1.2142,-1.1896,-1.1678,-1.1459,-1.124,-1.1236,-1.1673,-1.1345,-1.1017,-1.0464,-0.9581,-0.8699,-0.7479,-0.6038,-0.5148,-0.4702,-0.3921,-0.3587,0.0,0.0,0.0,0.0,0.0,0.0,0.0,0.0,0.0,0.0,0.0,0.0,0.0,0.0,0.0,0.0,0.0,0.0,0.0,0.0,0.0,0.0,0.0,0.0,0.0,0.0,0.0,0.0,0.0,0.0,0.0,-1.7582,-1.7582,-1.7582,-1.7582,-1.7582,-1.7582,-1.7582,-1.7041,-1.6074,-1.6074,-1.5541,-1.4793,-1.5227,-1.5648,-1.5843,-1.8311,-1.9279,-1.9279,-1.9279,-1.9279,-1.9279,-1.9279,-1.9279,-1.9279,-1.9279,-1.9279,-1.9279,-1.9279,-1.9279,-1.9279,-1.9279,-1.9279,-1.9279,-1.9279,-1.9279,-1.9279,-1.9279,-1.9279,-1.9279,-1.9279,-1.9279,-1.9279,-1.9279,-1.9279,-1.9279,-1.9279,-1.9506,-1.9725,-1.9755,-1.9996,-2.0296,-2.0625,-2.0676,-2.0667,-2.0723,-1.8777,-1.6323,-1.3984,-1.3471,-1.3277,-1.306,-1.2876,-1.2455,-1.1695,-1.1568,-1.1459,-1.1131,-1.1126,-1.1126,-1.1017,-1.0802,-1.0139,-0.9361,-0.8809,-0.7479,-0.5371,-0.526,-0.4702,-0.3587,-0.3587,-0.3587,0.0,0.0,0.0,0.0,0.0,0.0,0.0,0.0,0.0,0.0,0.0,0.0,0.0,0.0,0.0,0.0,0.0,0.0,0.0,0.0,0.0,0.0,0.0,0.0,0.0,0.0,0.0,0.0,0.0,0.0,-1.7582,-1.7582,-1.7582,-1.7582,-1.7582,-1.7582,-1.7582,-1.7582,-1.7477,0.0,-1.7259,-1.6723,-1.5648,-1.6174,-1.7134,-1.852,-1.9063,-1.9279,-1.9279,-1.9279,-1.9279,-1.9279,-1.9279,-1.9279,-1.9279,-1.9279,-1.9279,-1.9279,-1.9279,-1.9279,-1.9279,-1.9279,-1.9279,-1.9279,-1.9279,-1.9279,-1.9279,-1.9279,-1.9279,-1.9279,-1.9279,-1.9279,-1.9279,-1.9279,-1.9279,-1.9279,-1.9279,-1.933,-1.9455,-1.9711,-1.982,-1.9967,-2.0289,-2.034,-1.9686,-1.794,-1.6368,-1.49,-1.3428,-1.3164,-1.2946,-1.2514,-1.2455,-1.2233,-1.1695,-1.1568,-1.1459,-1.1131,-1.1126,-1.1017,-1.0802,-1.0025,-0.9475,-0.9034,-0.7146,-0.5926,-0.5371,-0.448,-0.381,-0.3587,-0.3587,-0.3587,0.0,0.0,0.0,0.0,0.0,0.0,0.0,0.0,0.0,0.0,0.0,0.0,0.0,0.0,0.0,0.0,0.0,0.0,0.0,0.0,0.0,0.0,0.0,0.0,0.0,0.0,0.0,0.0,0.0,-1.7375,-1.7375,-1.7508,-1.7582,-1.7582,-1.7582,-1.7582,-1.7582,-1.7582,-1.7582,-1.7582,-1.7582,-1.7364,-1.6935,-1.681,-1.7562,-1.9071,-1.9279,-1.9279,-1.9279,-1.9279,-1.9279,-1.9279,-1.9279,-1.9279,-1.9279,-1.9279,-1.9279,-1.9279,-1.9279,-1.9279,-1.9279,-1.9279,-1.9279,-1.9279,-1.9279,-1.9279,-1.9279,-1.9279,-1.9279,-1.9279,-1.9279,-1.9279,-1.9279,-1.9279,-1.9279,-1.9279,-1.9279,-1.9279,-1.9323,-1.9499,-1.9528,-1.963,-1.9952,-2.0135,-1.9449,-1.7092,-1.6198,-1.5079,-1.3288,-1.2866,-1.2655,-1.2324,-1.2117,-1.1793,-1.1358,-1.135,-1.124,-1.0907,-1.0911,-1.0802,-1.0692,-0.9695,-0.8806,-0.8029,-0.6258,-0.5148,-0.4592,-0.3923,-0.3587,-0.3587,-0.3587,-0.3587,0.0,0.0,0.0,0.0,0.0,0.0,0.0,0.0,0.0,0.0,0.0,0.0,0.0,0.0,0.0,0.0,0.0,0.0,0.0,0.0,0.0,0.0,0.0,0.0,0.0,0.0,0.0,0.0,0.0,-1.7074,-1.7074,-1.7301,-1.7428,-1.7428,-1.7428,-1.7428,-1.7428,-1.7428,-1.7428,-1.7428,-1.7428,-1.7539,-1.7755,-1.7101,-1.7553,-1.879,-1.9095,-1.9191,-1.9191,-1.9191,-1.922,-1.9279,-1.9279,-1.9279,-1.9279,-1.9279,-1.9279,-1.9279,-1.9279,-1.9279,-1.9279,-1.9279,-1.9279,-1.9279,-1.9279,-1.9279,-1.9279,-1.9279,-1.9279,-1.9279,-1.9279,-1.9279,-1.9279,-1.9279,-1.9279,-1.9279,-1.9279,-1.9279,-1.9279,-1.9279,-1.9279,-1.936,-1.963,-1.9564,-1.8844,-1.7066,-1.6285,-1.5289,-1.3404,-1.2585,-1.226,-1.2149,-1.1775,-1.1345,-1.1017,-1.1021,-1.0911,-1.0692,-1.0692,-1.0692,-1.0692,-0.9585,-0.8475,-0.7473,-0.6035,-0.4814,-0.3587,-0.3587,-0.3587,-0.3587,-0.3587,-0.3587,0.0,0.0,0.0,0.0,0.0,0.0,0.0,0.0,0.0,0.0,0.0,0.0,0.0,0.0,0.0,0.0,0.0,0.0,0.0,0.0,0.0,0.0,0.0,0.0,0.0,0.0,0.0,0.0,-1.674,-1.6767,-1.6767,-1.68,-1.682,-1.682,-1.682,-1.682,-1.682,-1.682,-1.682,-1.682,-1.682,-1.6827,-1.6928,-1.7029,-1.7583,-1.8461,-1.876,-1.8855,-1.8855,-1.8855,-1.9023,-1.9279,-1.9279,-1.9279,-1.9279,-1.9279,-1.9279,-1.9279,-1.9279,-1.9279,-1.9279,-1.9279,-1.9279,-1.9279,-1.9279,-1.9279,-1.9279,-1.9279,-1.9279,-1.9279,-1.9279,-1.9279,-1.9279,-1.9279,-1.9279,-1.9279,-1.9279,-1.9279,-1.9279,-1.9279,-1.9279,-1.9286,-1.933,-1.7761,-1.6719,-1.737,-1.4894,-1.3168,-1.3604,-1.2711,-1.1827,-1.1274,-1.1253,-1.1017,-1.0802,-1.0802,-1.0692,-1.0692,-1.0692,-1.0692,-1.0692,-0.9585,-0.8809,-0.8699,-0.648,-0.4814,-0.3587,-0.3587,-0.3587,-0.3587,-0.3587,-0.3587,0.0,0.0,0.0,0.0,0.0,0.0,0.0,0.0,0.0,0.0,0.0,0.0,0.0,0.0,0.0,0.0,0.0,0.0,0.0,0.0,0.0,0.0,0.0,0.0,0.0,0.0,0.0,0.0,-1.6366,-1.6466,-1.6466,-1.662,-1.6707,-1.6707,-1.6707,-1.6707,-1.6707,-1.6707,-1.6707,-1.6707,-1.6707,-1.6707,-1.6707,-1.7014,-1.7389,-1.7917,-1.8225,-1.8418,-1.8518,-1.8518,-1.8606,-1.873,-1.873,-1.873,-1.873,-1.873,-1.8847,-1.9001,-1.9001,-1.9118,-1.9279,-1.9279,-1.9279,-1.9279,-1.9279,-1.9279,-1.9279,-1.9279,-1.9279,-1.9279,-1.9279,-1.9279,-1.9279,-1.9279,-1.9279,-1.9279,-1.9279,-1.9279,-1.9279,-1.9279,-1.9279,-1.9279,-1.9279,-1.8422,-1.7569,-1.6717,-1.5328,-1.3932,-1.2866,-1.2219,-1.1564,-1.1126,-1.1017,-1.0802,-1.0692,-1.0692,-1.0692,-1.0692,-1.0692,-1.0692,-1.0692,-1.0139,-0.9585,-0.8923,-0.7254,-0.5813,-0.4592,-0.4592,-0.4257,-0.3589,-0.3623,-0.362,0.0,0.0,0.0,0.0,0.0,0.0,0.0,0.0,0.0,0.0,0.0,0.0,0.0,0.0,0.0,0.0,0.0,0.0,0.0,0.0,0.0,0.0,0.0,0.0,0.0,0.0,0.0,0.0,-1.6039,-1.6159,-1.6159,-1.6366,-1.648,-1.648,-1.648,-1.648,-1.648,-1.648,-1.648,-1.648,-1.648,-1.648,-1.6486,-1.6691,-1.6888,-1.7183,-1.7563,-1.7894,-1.8182,-1.8182,-1.8225,-1.8299,-1.8299,-1.8299,-1.8299,-1.8299,-1.846,-1.8664,-1.8664,-1.8877,-1.9155,-1.9155,-1.9206,-1.9279,-1.9279,-1.9279,-1.9279,-1.9279,-1.9279,-1.9279,-1.9279,-1.9279,-1.9279,-1.9279,-1.9279,-1.9279,-1.9279,-1.9279,-1.9279,-1.9279,-1.9279,-1.9279,-1.9279,-1.9063,-1.8318,-1.6929,-1.5861,-1.4685,-1.2861,-1.2001,-1.135,-1.1021,-1.0802,-1.0692,-1.0692,-1.0692,-1.0692,-1.0692,-1.0692,-1.0692,-1.0692,-1.0692,-1.0249,-0.9364,-0.8472,-0.7252,-0.5813,-0.5506,-0.4946,-0.4035,-0.3764,-0.3646,0.0,0.0,0.0,0.0,0.0,0.0,0.0,0.0,0.0,0.0,0.0,0.0,0.0,0.0,0.0,0.0,0.0,0.0,0.0,0.0,0.0,0.0,0.0,0.0,0.0,0.0,0.0,0.0,-1.5845,-1.5852,-1.5852,-1.5865,-1.5872,-1.5872,-1.5872,-1.5872,-1.5872,-1.5872,-1.5872,-1.5872,-1.5872,-1.5872,-1.5872,-1.5872,-1.5974,-1.6286,-1.7049,-1.7563,-1.7838,-1.7838,-1.8021,-1.8299,-1.8299,-1.8299,-1.8299,-1.8299,-1.8313,-1.8328,-1.8328,-1.854,-1.8811,-1.8811,-1.9023,-1.9279,-1.9279,-1.9279,-1.9279,-1.9279,-1.9279,-1.9279,-1.9279,-1.9279,-1.9279,-1.9279,-1.9279,-1.9279,-1.9279,-1.9279,-1.9279,-1.9279,-1.9279,-1.9279,-1.9279,-1.8429,-1.7905,-1.8653,-1.5974,-1.3938,-1.4363,-1.2531,-1.1017,-1.0802,-1.0692,-1.0692,-1.0692,-1.0692,-1.0692,-1.0692,-1.0692,-1.0692,-1.0692,-1.0692,-1.0692,-1.0582,-1.0578,-0.9357,-0.703,-0.6021,-0.5455,-0.5262,-0.4218,-0.3646,0.0,0.0,0.0,0.0,0.0,0.0,0.0,0.0,0.0,0.0,0.0,0.0,0.0,0.0,0.0,0.0,0.0,0.0,0.0,0.0,0.0,0.0,0.0,0.0,0.0,0.0,0.0,0.0,0.0,-1.5832,-1.5832,-1.5832,-1.5832,-1.5832,-1.5832,-1.5832,-1.5832,-1.5832,-1.5832,-1.5832,-1.5832,-1.5832,-1.5832,-1.5832,-1.5927,-1.6231,-1.6524,-1.6859,-1.7326,-1.7414,-1.7574,-1.7677,-1.7677,-1.7677,-1.7677,-1.7677,-1.7808,-1.7991,-1.7991,-1.8203,-1.8474,-1.8474,-1.8694,-1.8964,-1.8964,-1.9111,-1.9279,-1.9279,-1.9279,-1.9279,-1.9279,-1.9279,-1.9279,-1.9279,-1.9279,-1.9279,-1.9279,-1.9279,-1.9279,-1.9279,-1.9279,-1.9279,-1.9279,-1.8862,-1.8331,-1.7786,-1.6505,-1.5334,-1.4685,-1.3176,-1.2096,-1.1769,-1.1122,-1.0692,-1.0692,-1.0692,-1.0692,-1.0692,-1.0692,-1.0692,-1.0692,-1.0692,-1.0692,-1.0692,-1.0692,-0.9915,-0.8251,-0.7859,-0.7299,-0.648,-0.6136,-0.5903,0.0,0.0,0.0,0.0,0.0,0.0,0.0,0.0,0.0,0.0,0.0,0.0,0.0,0.0,0.0,0.0,0.0,0.0,0.0,0.0,0.0,0.0,0.0,0.0,0.0,0.0,0.0,0.0,0.0,0.0,-1.5832,-1.5832,-1.5832,-1.5832,-1.5832,-1.5832,-1.5832,-1.5832,-1.5832,-1.5832,-1.5832,-1.5832,-1.5832,-1.5832,-1.5927,-1.6028,-1.613,-1.6414,-1.6878,-1.7153,-1.7246,-1.7239,-1.7239,-1.7326,-1.7326,-1.7326,-1.7465,-1.7655,-1.7655,-1.7867,-1.8138,-1.8138,-1.8357,-1.865,-1.876,-1.8942,-1.9133,-1.9242,-1.9279,-1.9279,-1.9279,-1.9279,-1.9279,-1.9279,-1.9279,-1.9279,-1.9279,-1.9279,-1.9279,-1.9279,-1.9279,-1.9279,-1.9279,-1.9175,-1.8646,-1.7674,-1.7035,-1.6293,-1.5215,-1.4035,-1.3068,-1.2413,-1.1769,-1.1126,-1.0692,-1.0692,-1.0692,-1.0692,-1.0692,-1.0692,-1.0692,-1.0692,-1.0692,-1.0692,-1.0692,-1.0359,-0.9475,-0.9085,-0.8523,-0.7697,-0.7376,-0.7142,0.0,0.0,0.0,0.0,0.0,0.0,0.0,0.0,0.0,0.0,0.0,0.0,0.0,0.0,0.0,0.0,0.0,0.0,0.0,0.0,0.0,0.0,0.0,0.0,0.0,0.0,0.0,0.0,-1.5832,-1.5832,-1.5832,-1.5832,-1.5832,-1.5832,-1.5832,-1.5832,-1.5832,-1.5832,-1.5832,-1.5832,-1.5832,-1.5832,-1.5832,-1.5832,-1.5832,-1.5832,-1.6123,-1.6312,-1.6588,-1.6878,-1.6979,-1.6979,-1.7239,-1.7232,-1.7232,-1.7232,-1.7232,-1.7232,-1.7333,-1.7538,-1.7801,-1.7801,-1.8021,-1.835,-1.8664,-1.8767,-1.884,-1.9169,-1.9257,-1.9264,-1.9272,-1.9279,-1.9279,-1.9279,-1.9279,-1.9279,-1.9279,-1.9279,-1.9279,-1.9279,-1.9279,-1.9279,-1.9279,-1.9272,-1.9063,-1.8527,-1.7457,-1.6599,-1.6074,-1.4888,-1.3706,-1.263,-1.2521,-1.1987,-1.0907,-1.0802,-1.0802,-1.0802,-1.0692,-1.0692,-1.0692,-1.0692,-1.0692,-1.0692,-1.0692,-1.0692,-1.0692,-0.9633,-0.9066,-0.8923,-0.7826,-0.7249,-2.0566,0.0,0.0,0.0,0.0,0.0,0.0,0.0,0.0,0.0,0.0,0.0,0.0,0.0,0.0,0.0,0.0,0.0,0.0,0.0,0.0,0.0,0.0,0.0,0.0,0.0,0.0,0.0,-1.5832,-1.5832,-1.5832,-1.5832,-1.5832,-1.5832,-1.5832,-1.5832,-1.5832,-1.5832,-1.5832,-1.5832,-1.5832,-1.5832,-1.5832,-1.5832,-1.5832,-1.5832,-1.5927,-1.5927,-1.6015,-1.6494,-1.6683,-1.6683,-1.677,-1.677,-1.677,-1.677,-1.677,-1.6864,-1.7066,-1.7124,-1.729,-1.737,-1.7684,-1.7969,-1.8057,-1.8247,-1.8503,-1.8833,-1.8921,-1.8979,-1.9213,-1.9279,-1.9279,-1.9279,-1.9279,-1.9279,-1.9279,-1.9279,-1.9279,-1.9279,-1.9279,-1.9279,-1.9279,-1.9175,-1.8974,-1.8757,-1.8115,-1.7582,-1.7477,-1.6287,-1.5316,-1.5001,-1.4137,-1.3491,-1.3166,-1.2417,-1.1878,-1.1878,-1.1122,-1.0692,-1.0692,-1.0692,-1.0692,-1.0692,-1.0692,-1.0692,-1.0692,-1.041,-1.0185,-1.0139,-0.985,-0.9735,0.0,0.0,0.0,0.0,0.0,0.0,-2.0898,-2.0957,0.0,0.0,0.0,0.0,0.0,0.0,0.0,0.0,0.0,0.0,0.0,0.0,0.0,0.0,0.0,0.0,0.0,-1.5832,-1.5832,-1.5832,-1.5832,-1.5832,-1.5832,-1.5832,-1.5832,-1.5832,-1.5832,-1.5832,-1.5832,-1.5832,-1.5832,-1.5832,-1.5832,-1.5832,-1.5832,-1.5832,-1.5832,-1.5832,-1.5832,-1.5832,-1.5825,-1.6109,-1.6305,-1.64,-1.6588,-1.6588,-1.6588,-1.6588,-1.6588,-1.6581,-1.6784,-1.6784,-1.6878,-1.7059,-1.7283,-1.7552,-1.7779,-1.7947,-1.8167,-1.8496,-1.8686,-1.8869,-1.9191,-1.9279,-1.9279,-1.9279,-1.9279,-1.9279,-1.9279,-1.9279,-1.9279,-1.9279,-1.9279,-1.9279,-1.9279,-1.9175,-1.8974,-1.8757,-1.8436,-1.8122,-1.7905,-1.7153,-1.6399,-1.5968,-1.5316,-1.4674,-1.4132,-1.3491,-1.3058,-1.3058,-1.2521,-1.1878,-1.145,-1.1446,-1.1232,-1.0692,-1.0692,-1.0692,-1.0692,-1.0692,-1.0692,-1.0692,-1.0582,-1.0582,0.0,0.0,0.0,0.0,0.0,0.0,-2.0566,-2.0566,-2.0566,0.0,0.0,0.0,0.0,0.0,0.0,0.0,0.0,0.0,0.0,0.0,0.0,0.0,0.0,0.0,-1.5732,-1.5758,-1.5785,-1.5785,-1.5812,-1.5832,-1.5832,-1.5832,-1.5832,-1.5832,-1.5832,-1.5832,-1.5832,-1.5832,-1.5832,-1.5832,-1.5832,-1.5832,-1.5832,-1.5832,-1.5832,-1.5832,-1.5832,-1.5832,-1.5832,-1.5832,-1.5927,-1.6218,-1.64,-1.6487,-1.6487,-1.6487,-1.6487,-1.6487,-1.6588,-1.6588,-1.6588,-1.6885,-1.6979,-1.7124,-1.7588,-1.7765,-1.783,-1.8152,-1.8511,-1.8855,-1.9147,-1.925,-1.9279,-1.9279,-1.9279,-1.9279,-1.9279,-1.9279,-1.9279,-1.9279,-1.9279,-1.9279,-1.9279,-1.9279,-1.9063,-1.8534,-1.8422,-1.8213,-1.7687,-1.7582,-1.7259,-1.618,-1.6074,-1.5642,-1.4561,-1.4347,-1.4347,-1.4347,-1.4132,-1.3599,-1.263,-1.263,-1.2091,-1.1122,-1.1126,-1.1017,-1.1017,-1.0802,-1.0692,-1.0692,-1.0363,-1.0257,0.0,0.0,0.0,0.0,0.0,0.0,-2.0566,-2.0566,-2.0411,0.0,0.0,0.0,0.0,0.0,0.0,0.0,0.0,0.0,0.0,0.0,0.0,0.0,0.0,0.0,-1.5137,-1.5344,-1.5478,-1.5478,-1.5698,-1.5832,-1.5832,-1.5832,-1.5832,-1.5832,-1.5832,-1.5832,-1.5832,-1.5832,-1.5832,-1.5832,-1.5832,-1.5832,-1.5832,-1.5832,-1.5832,-1.5832,-1.5832,-1.5832,-1.5832,-1.5832,-1.5832,-1.5927,-1.5927,-1.592,-1.592,-1.592,-1.592,-1.6021,-1.6218,-1.6312,-1.6312,-1.6588,-1.6784,-1.6994,-1.7145,-1.7247,-1.7494,-1.7816,-1.8335,-1.8803,-1.8869,-1.9074,-1.9279,-1.9279,-1.9279,-1.9279,-1.9279,-1.9279,-1.9279,-1.9279,-1.9279,-1.9279,-1.9279,-1.9279,-1.9175,-1.8869,-1.8541,-1.8318,-1.7911,-1.7694,-1.7477,-1.7259,-1.7259,-1.7147,-1.6935,-1.6074,-1.5535,-1.5535,-1.4674,-1.4024,-1.3809,-1.3814,-1.3706,-1.3491,-1.3491,-1.328,-1.3078,-1.145,-1.0582,-1.0366,-1.0366,-1.0147,0.0,0.0,0.0,-2.0566,0.0,0.0,0.0,-2.0566,-2.0489,-2.001,0.0,0.0,0.0,0.0,0.0,0.0,0.0,0.0,0.0,0.0,0.0,0.0,0.0,0.0,-1.5053,-1.5097,-1.5177,-1.5177,-1.5317,-1.5398,-1.5398,-1.5398,-1.5398,-1.5398,-1.5398,-1.5471,-1.5611,-1.5611,-1.5685,-1.5832,-1.5832,-1.5832,-1.5832,-1.5832,-1.5832,-1.5832,-1.5832,-1.5832,-1.5832,-1.5832,-1.5832,-1.5832,-1.5832,-1.5832,-1.5832,-1.5832,-1.5832,-1.5832,-1.5927,-1.6028,-1.6021,-1.6305,-1.6501,-1.6602,-1.6784,-1.6871,-1.7022,-1.744,-1.7862,-1.8151,-1.8503,-1.8789,-1.903,-1.903,-1.9162,-1.9279,-1.9279,-1.9279,-1.9279,-1.9279,-1.9279,-1.9279,-1.9279,-1.9175,-1.8966,-1.875,-1.8436,-1.8115,-1.7799,-1.7687,-1.7582,-1.7582,-1.7582,-1.7582,-1.7582,-1.7041,-1.6723,-1.6723,-1.618,-1.5642,-1.4995,-1.4995,-1.4674,-1.4137,-1.3927,-1.3825,-1.3727,-1.2531,-1.1882,-1.1773,-1.1669,-1.1555,0.0,0.0,0.0,0.0,0.0,-2.0566,0.0,0.0,0.0,-2.0566,0.0,0.0,0.0,0.0,0.0,0.0,0.0,0.0,0.0,0.0,0.0,0.0,0.0,0.0,0.0,-1.5362,-1.5246,-1.5046,-1.5143,-1.5136,-1.5053,-1.4963,-1.4963,-1.4963,-1.4963,-1.5077,-1.5311,-1.5311,-1.5458,-1.5745,-1.5745,-1.5772,-1.5832,-1.5832,-1.5832,-1.5832,-1.5832,-1.5832,-1.5832,-1.5832,-1.5832,-1.5832,-1.5832,-1.5832,-1.5832,-1.5832,-1.5832,-1.5832,-1.5832,-1.5832,-1.5832,-1.6028,-1.613,-1.6218,-1.6494,-1.6588,-1.6732,-1.7088,-1.7298,-1.7502,-1.8047,-1.8452,-1.8708,-1.8774,-1.8994,-1.9199,-1.9264,-1.9279,-1.9279,-1.9279,-1.9279,-1.9279,-1.9279,-1.9071,-1.8862,-1.8429,-1.822,-1.7911,-1.7687,-1.7582,-1.7582,-1.7582,-1.7582,-1.7582,-1.7582,-1.7582,-1.7582,-1.7582,-1.7582,-1.7153,-1.6287,-1.618,-1.5749,-1.4776,-1.4578,-1.4347,-1.4303,-1.3976,-1.368,-1.3181,-1.2925,-1.2798,0.0,0.0,0.0,0.0,-2.0566,0.0,0.0,0.0,-2.0566,-2.0566,0.0,0.0,0.0,0.0,0.0,0.0,0.0,0.0,0.0,0.0,0.0,0.0,0.0,0.0,0.0,-1.6752,-1.6376,-1.5116,-1.5747,-1.5835,-1.5053,-1.4963,-1.4963,-1.4963,-1.4963,-1.4977,-1.5017,-1.5017,-1.5157,-1.5444,-1.5444,-1.5578,-1.5832,-1.5832,-1.5832,-1.5832,-1.5832,-1.5832,-1.5832,-1.5832,-1.5832,-1.5832,-1.5832,-1.5832,-1.5832,-1.5832,-1.5832,-1.5832,-1.5832,-1.5832,-1.5832,-1.5832,-1.6028,-1.6218,-1.6494,-1.6588,-1.6595,-1.663,-1.7032,-1.7452,-1.7488,-1.792,-1.843,-1.8723,-1.8818,-1.8921,-1.9213,-1.9279,-1.9279,-1.9279,-1.9279,-1.9279,-1.9279,-1.9272,-1.9063,-1.8527,-1.8422,-1.8213,-1.7687,-1.7582,-1.7582,-1.7582,-1.7582,-1.7582,-1.7582,-1.7582,-1.7582,-1.7582,-1.7582,-1.7582,-1.7371,-1.7371,-1.7364,-1.7259,-1.7153,-1.6924,-1.6374,-1.6056,-1.4901,-1.296,-1.2661,-1.2361,0.0,0.0,0.0,0.0,0.0,0.0,-2.0566,0.0,-2.0566,0.0,0.0,0.0,0.0,0.0,0.0,0.0,0.0,0.0,0.0,0.0,0.0,0.0,0.0,0.0,0.0,0.0,0.0,0.0,-1.5547,-1.5376,-1.4542,-1.4456,-1.4456,-1.4456,-1.4456,-1.4536,-1.4703,-1.4703,-1.4856,-1.5144,-1.5144,-1.5297,-1.5578,-1.5578,-1.5671,-1.5832,-1.5832,-1.5832,-1.5832,-1.5832,-1.5832,-1.5832,-1.5832,-1.5832,-1.5832,-1.5832,-1.5832,-1.5832,-1.5832,-1.5832,-1.5832,-1.5832,-1.5927,-1.6028,-1.6116,-1.6109,-1.6211,-1.6312,-1.6497,-1.6791,-1.7077,-1.7498,-1.7869,-1.8196,-1.8364,-1.8591,-1.8921,-1.8994,-1.9052,-1.9242,-1.9175,-1.9078,-1.9078,-1.8959,-1.8743,-1.8422,-1.8108,-1.7898,-1.7582,-1.7582,-1.7582,-1.7582,-1.7582,-1.7582,-1.7582,-1.7582,-1.7582,-1.7582,-1.7582,-1.7582,-1.7582,-1.7422,-1.7328,-1.7328,-1.7065,-1.6612,-1.6291,-1.5973,-1.5306,-1.4173,-1.4068,-1.3914,-2.0566,0.0,0.0,0.0,0.0,0.0,0.0,0.0,0.0,0.0,0.0,0.0,0.0,0.0,0.0,0.0,0.0,0.0,0.0,0.0,0.0,0.0,0.0,0.0,0.0,0.0,0.0,-1.5801,-1.5718,-1.5394,-1.4496,-1.425,-1.4088,-1.4088,-1.4088,-1.4188,-1.4402,-1.4402,-1.4549,-1.4843,-1.4843,-1.4997,-1.5284,-1.5357,-1.5511,-1.5712,-1.5792,-1.5832,-1.5832,-1.5832,-1.5832,-1.5832,-1.5832,-1.5832,-1.5832,-1.5832,-1.5832,-1.5832,-1.5832,-1.5832,-1.5832,-1.5832,-1.5832,-1.5832,-1.5832,-1.5832,-1.5832,-1.6028,-1.6123,-1.6319,-1.6697,-1.6954,-1.7234,-1.7505,-1.7804,-1.8057,-1.8383,-1.8455,-1.855,-1.8875,-1.8837,-1.8658,-1.8743,-1.8534,-1.8422,-1.8325,-1.801,-1.7687,-1.7582,-1.7582,-1.7582,-1.7582,-1.7582,-1.7582,-1.7582,-1.7582,-1.7582,-1.7582,-1.7508,-1.7462,-1.7462,-1.7181,-1.7027,-1.7027,-1.6524,-1.6179,-1.5889,-1.5582,-1.5251,-1.4989,-1.4968,-1.4998,0.0,0.0,0.0,-2.0566,0.0,0.0,0.0,0.0,-2.0566,0.0,0.0,0.0,0.0,0.0,0.0,-2.0566,0.0,0.0,0.0,0.0,0.0,0.0,0.0,0.0,0.0,0.0,0.0,-1.678,-1.6698,-1.6288,-1.5394,-1.458,-1.4088,-1.4088,-1.4088,-1.4088,-1.4102,-1.4102,-1.4249,-1.4536,-1.4536,-1.4689,-1.4983,-1.5264,-1.5398,-1.5424,-1.5705,-1.5832,-1.5832,-1.5832,-1.5832,-1.5832,-1.5832,-1.5832,-1.5832,-1.5832,-1.5832,-1.5832,-1.5832,-1.5832,-1.5832,-1.5832,-1.5832,-1.5832,-1.5832,-1.5832,-1.5832,-1.5832,-1.6028,-1.6224,-1.6224,-1.6407,-1.6679,-1.7077,-1.7154,-1.7246,-1.7563,-1.7633,-1.7725,-1.8027,-1.7981,-1.8079,-1.8373,-1.8422,-1.8318,-1.8016,-1.8016,-1.7911,-1.7582,-1.7582,-1.7582,-1.7582,-1.7582,-1.7582,-1.7582,-1.7582,-1.7582,-1.7582,-1.7321,-1.7161,-1.7161,-1.6881,-1.672,-1.672,-1.6419,-1.6182,-1.5882,-1.5398,-1.4973,-1.4725,-1.4704,-1.4733,0.0,0.0,-2.0566,-2.0566,0.0,0.0,0.0,0.0,0.0,0.0,0.0,0.0,0.0,0.0,-2.0566,-2.0566,-2.0566,0.0,0.0,0.0,0.0,0.0,0.0,0.0,0.0,0.0,0.0,-1.7674,-1.7594,-1.7188,-1.6288,-1.5966,-1.5801,-1.5801,-1.5801,-1.5801,-1.5801,-1.5801,-1.5612,-1.5057,-1.5057,-1.497,-1.4676,-1.477,-1.4923,-1.5124,-1.5418,-1.5545,-1.5558,-1.5752,-1.5832,-1.5832,-1.5832,-1.5832,-1.5832,-1.5832,-1.5832,-1.5832,-1.5832,-1.5832,-1.5832,-1.5832,-1.5832,-1.5832,-1.5832,-1.5832,-1.5832,-1.5832,-1.5832,-1.6028,-1.6123,-1.6319,-1.6434,-1.6721,-1.6742,-1.6826,-1.7239,-1.7309,-1.7394,-1.771,-1.7573,-1.7468,-1.7771,-1.7716,-1.768,-1.7989,-1.7806,-1.7687,-1.7582,-1.7582,-1.7582,-1.7582,-1.7582,-1.7582,-1.7582,-1.7408,-1.7215,-1.7014,-1.6914,-1.6854,-1.6854,-1.6374,-1.6209,-1.6209,-1.5745,-1.5409,-1.5114,-1.4921,-1.4678,-1.44,-1.4395,-1.4437,-2.0566,-2.0566,0.0,-2.0566,-2.0566,0.0,-2.0489,0.0,0.0,0.0,0.0,0.0,0.0,0.0,0.0,-2.0489,-2.0411,-2.0333,0.0,-2.0098,0.0,0.0,0.0,0.0,0.0,0.0,-1.9054,-1.8487,-1.8158,-1.7755,0.0,0.0,-1.6698,-1.6698,-1.6698,-1.6698,-1.6698,-1.6698,-1.6453,-1.5884,-1.556,-1.5175,-1.4785,-1.4642,-1.4623,-1.4823,-1.5117,-1.5304,-1.5411,-1.5598,-1.5732,-1.5832,-1.5832,-1.5832,-1.5832,-1.5832,-1.5832,-1.5832,-1.5832,-1.5832,-1.5832,-1.5832,-1.5832,-1.5832,-1.5832,-1.5832,-1.5872,-1.6079,-1.5992,-1.5879,-1.6285,-1.6184,-1.6123,-1.6305,-1.6305,-1.6353,-1.6553,-1.6594,-1.6787,-1.7092,-1.6956,-1.6953,-1.7259,-1.7096,-1.723,-1.7738,-1.7694,-1.7582,-1.7582,-1.7582,-1.7542,-1.7442,-1.7428,-1.7388,-1.7281,-1.7101,-1.6907,-1.6714,-1.6607,-1.6547,-1.6447,-1.5973,-1.5719,-1.5628,-1.5166,-1.4885,-1.4688,-1.4592,-1.4496,-1.4298,-1.4298,-1.4298]},{"header":{"parameterUnit":"m.s-1","parameterCategory":1,"la1":30.6,"la2":29.2853,"lo1":-89.7004,"lo2":-87.6739,"dy":0.0162,"dx":0.0183,"nx":112,"ny":82,"refTime":"2023-08-10T12:00:00:Z","depth":0,"parameterNumber":3,"parameterNumberName":"V-component_of_WINDS"},"data":[0.0,0.0,0.0,0.0,0.0,0.0,0.0,0.0,0.0,0.0,0.0,0.0,0.0,0.0,0.0,0.0,0.0,0.0,0.0,0.0,0.0,0.0,0.0,0.0,0.0,0.0,0.0,0.0,0.0,0.0,0.0,0.0,0.0,0.0,0.0,0.0,0.0,0.0,0.0,0.0,0.0,0.0,0.0,0.0,0.0,0.0,0.0,0.0,0.0,0.0,0.0,0.0,0.0,0.0,0.0,0.0,0.0,0.0,0.0,0.0,0.0,0.0,0.0,0.0,0.0,0.0,0.0,0.0,0.0,0.0,0.0,0.0,0.0,0.0,0.0,0.0,0.0,0.0,0.0,0.0,0.0,0.0,0.0,0.0,0.0,0.0,0.0,0.0,0.0,0.0,0.0,-3.1585,-3.2088,-3.2138,-3.1619,-3.1383,-3.1046,-3.0528,0.0,0.0,0.0,0.0,0.0,0.0,0.0,0.0,0.0,0.0,0.0,0.0,0.0,0.0,0.0,0.0,0.0,0.0,0.0,0.0,0.0,0.0,0.0,0.0,0.0,0.0,0.0,0.0,0.0,0.0,0.0,0.0,0.0,0.0,0.0,0.0,0.0,0.0,0.0,0.0,0.0,0.0,0.0,0.0,0.0,0.0,0.0,0.0,0.0,0.0,0.0,0.0,0.0,0.0,0.0,0.0,0.0,0.0,0.0,0.0,0.0,0.0,0.0,0.0,0.0,0.0,0.0,0.0,0.0,0.0,0.0,0.0,0.0,0.0,0.0,0.0,0.0,0.0,0.0,0.0,0.0,0.0,0.0,0.0,0.0,0.0,0.0,0.0,0.0,0.0,0.0,0.0,0.0,0.0,0.0,0.0,0.0,0.0,0.0,0.0,0.0,0.0,0.0,0.0,-3.2412,-3.2432,-3.2499,-3.2485,-3.2357,-3.2403,-3.2393,-3.2306,0.0,0.0,0.0,0.0,0.0,0.0,0.0,0.0,0.0,0.0,0.0,0.0,0.0,0.0,0.0,0.0,0.0,0.0,0.0,0.0,0.0,0.0,0.0,0.0,0.0,0.0,0.0,0.0,0.0,0.0,0.0,0.0,0.0,0.0,0.0,0.0,0.0,0.0,0.0,0.0,0.0,0.0,0.0,0.0,0.0,0.0,0.0,0.0,0.0,0.0,0.0,0.0,0.0,0.0,0.0,0.0,0.0,0.0,0.0,0.0,0.0,0.0,0.0,0.0,0.0,0.0,0.0,0.0,0.0,0.0,0.0,0.0,0.0,0.0,0.0,0.0,0.0,0.0,0.0,0.0,0.0,0.0,0.0,0.0,0.0,0.0,0.0,0.0,0.0,0.0,0.0,0.0,0.0,0.0,0.0,0.0,0.0,0.0,0.0,0.0,0.0,0.0,0.0,-3.2894,-3.3414,-3.3312,-3.368,-3.3775,-3.3315,-3.3328,-3.32,-3.2828,-3.2121,0.0,0.0,0.0,0.0,0.0,0.0,0.0,0.0,0.0,0.0,0.0,0.0,0.0,0.0,0.0,0.0,0.0,0.0,0.0,0.0,0.0,0.0,0.0,0.0,0.0,0.0,0.0,0.0,0.0,0.0,0.0,0.0,0.0,0.0,0.0,0.0,0.0,0.0,0.0,0.0,0.0,0.0,0.0,0.0,0.0,0.0,0.0,0.0,0.0,0.0,0.0,0.0,0.0,0.0,0.0,0.0,0.0,0.0,0.0,0.0,0.0,0.0,0.0,0.0,0.0,0.0,0.0,0.0,0.0,0.0,0.0,0.0,0.0,0.0,0.0,0.0,0.0,0.0,0.0,0.0,0.0,0.0,0.0,0.0,0.0,0.0,0.0,0.0,0.0,0.0,0.0,0.0,0.0,0.0,0.0,0.0,0.0,0.0,0.0,0.0,0.0,0.0,-3.3859,-3.4225,-3.4173,-3.4746,-3.4859,-3.4238,-3.4251,-3.4059,-3.3551,-3.3588,0.0,0.0,0.0,0.0,0.0,0.0,0.0,0.0,0.0,0.0,0.0,0.0,0.0,0.0,0.0,0.0,0.0,0.0,0.0,0.0,0.0,0.0,0.0,0.0,0.0,0.0,0.0,0.0,0.0,0.0,0.0,0.0,0.0,0.0,0.0,0.0,0.0,0.0,0.0,0.0,0.0,0.0,0.0,0.0,0.0,0.0,0.0,0.0,0.0,0.0,0.0,0.0,0.0,0.0,0.0,0.0,0.0,0.0,0.0,0.0,0.0,0.0,0.0,0.0,0.0,0.0,0.0,0.0,0.0,0.0,0.0,0.0,0.0,0.0,0.0,0.0,0.0,0.0,0.0,0.0,0.0,0.0,0.0,0.0,0.0,0.0,0.0,0.0,0.0,0.0,0.0,0.0,0.0,0.0,0.0,0.0,0.0,0.0,0.0,0.0,0.0,0.0,-3.5013,-3.5016,-3.4925,-3.5088,-3.5138,-3.5028,-3.523,-3.5374,-3.5329,-3.5434,0.0,0.0,0.0,0.0,0.0,0.0,0.0,0.0,0.0,0.0,0.0,0.0,0.0,0.0,0.0,0.0,0.0,0.0,0.0,0.0,0.0,0.0,0.0,0.0,0.0,0.0,0.0,0.0,0.0,0.0,0.0,0.0,0.0,0.0,0.0,0.0,0.0,0.0,0.0,0.0,0.0,0.0,0.0,0.0,0.0,0.0,0.0,0.0,0.0,0.0,0.0,0.0,0.0,0.0,0.0,0.0,0.0,0.0,0.0,0.0,0.0,0.0,0.0,0.0,0.0,0.0,0.0,0.0,0.0,0.0,0.0,0.0,0.0,0.0,0.0,0.0,0.0,0.0,0.0,0.0,0.0,0.0,0.0,0.0,0.0,0.0,0.0,0.0,0.0,0.0,0.0,0.0,0.0,0.0,0.0,0.0,0.0,0.0,0.0,0.0,0.0,0.0,-3.5129,-3.511,0.0,-3.5108,-3.5107,-3.5203,-3.533,-3.5416,-3.5483,0.0,0.0,0.0,0.0,0.0,0.0,0.0,0.0,0.0,0.0,0.0,0.0,0.0,0.0,0.0,0.0,0.0,0.0,0.0,0.0,0.0,0.0,0.0,0.0,0.0,0.0,0.0,0.0,0.0,0.0,0.0,0.0,0.0,0.0,0.0,0.0,0.0,0.0,0.0,0.0,0.0,0.0,0.0,0.0,0.0,0.0,0.0,0.0,0.0,0.0,0.0,0.0,0.0,0.0,0.0,0.0,0.0,0.0,0.0,0.0,0.0,0.0,0.0,0.0,0.0,0.0,0.0,0.0,0.0,0.0,0.0,0.0,0.0,0.0,0.0,0.0,0.0,0.0,0.0,0.0,0.0,0.0,0.0,0.0,0.0,0.0,0.0,0.0,0.0,0.0,0.0,0.0,0.0,0.0,0.0,0.0,0.0,0.0,0.0,0.0,0.0,0.0,-3.5075,-3.5057,-3.5056,0.0,-3.5089,-3.5141,-3.5304,-3.536,-3.543,-3.5515,0.0,0.0,0.0,0.0,0.0,0.0,0.0,0.0,0.0,0.0,0.0,0.0,0.0,0.0,0.0,0.0,0.0,0.0,0.0,0.0,0.0,0.0,0.0,0.0,0.0,0.0,0.0,0.0,0.0,0.0,0.0,0.0,0.0,0.0,0.0,0.0,0.0,0.0,0.0,0.0,0.0,0.0,0.0,0.0,0.0,0.0,0.0,0.0,0.0,0.0,0.0,0.0,0.0,0.0,0.0,0.0,0.0,0.0,0.0,0.0,0.0,0.0,0.0,0.0,0.0,0.0,0.0,0.0,0.0,0.0,0.0,0.0,0.0,0.0,0.0,0.0,0.0,0.0,0.0,0.0,0.0,0.0,0.0,0.0,0.0,0.0,0.0,0.0,0.0,0.0,0.0,0.0,0.0,0.0,0.0,0.0,0.0,0.0,0.0,0.0,0.0,0.0,-3.5001,-3.4945,-3.4908,-3.4908,-3.5157,-3.5304,-3.5331,-3.5495,-3.5608,0.0,0.0,0.0,0.0,0.0,0.0,0.0,0.0,0.0,0.0,0.0,0.0,0.0,0.0,0.0,0.0,0.0,0.0,0.0,0.0,0.0,0.0,0.0,0.0,0.0,0.0,0.0,0.0,0.0,0.0,0.0,0.0,0.0,0.0,0.0,0.0,0.0,0.0,0.0,0.0,0.0,0.0,0.0,0.0,0.0,0.0,0.0,0.0,0.0,0.0,0.0,0.0,0.0,0.0,0.0,0.0,0.0,0.0,0.0,0.0,0.0,0.0,0.0,0.0,0.0,0.0,0.0,0.0,0.0,0.0,0.0,0.0,0.0,0.0,0.0,0.0,0.0,0.0,0.0,0.0,0.0,0.0,0.0,0.0,0.0,0.0,0.0,0.0,0.0,0.0,0.0,0.0,0.0,0.0,0.0,0.0,0.0,0.0,0.0,0.0,0.0,0.0,0.0,-3.4927,-3.4927,-3.5154,-3.5761,-3.5799,-3.6026,-3.6595,-3.6304,-3.6364,-3.696,0.0,0.0,0.0,0.0,0.0,0.0,0.0,0.0,0.0,0.0,0.0,0.0,0.0,0.0,0.0,0.0,0.0,0.0,0.0,0.0,0.0,0.0,0.0,0.0,0.0,0.0,0.0,0.0,0.0,0.0,0.0,0.0,0.0,0.0,0.0,0.0,0.0,0.0,0.0,0.0,0.0,0.0,0.0,0.0,0.0,0.0,0.0,0.0,0.0,0.0,0.0,0.0,0.0,0.0,0.0,0.0,0.0,0.0,0.0,0.0,0.0,0.0,0.0,0.0,0.0,0.0,0.0,0.0,0.0,0.0,0.0,0.0,0.0,0.0,0.0,0.0,0.0,0.0,0.0,0.0,0.0,0.0,0.0,0.0,0.0,0.0,0.0,0.0,0.0,0.0,0.0,0.0,0.0,0.0,0.0,0.0,0.0,0.0,0.0,0.0,0.0,0.0,-3.5777,-3.5834,-3.6003,-3.6474,-3.6489,-3.6656,-3.7168,-3.6918,-3.6939,-3.7452,0.0,0.0,0.0,0.0,0.0,0.0,0.0,0.0,0.0,0.0,0.0,0.0,0.0,0.0,0.0,0.0,0.0,0.0,0.0,0.0,0.0,0.0,0.0,0.0,0.0,0.0,0.0,0.0,0.0,0.0,0.0,0.0,0.0,0.0,0.0,0.0,0.0,0.0,0.0,0.0,0.0,0.0,0.0,0.0,0.0,0.0,0.0,0.0,0.0,0.0,0.0,0.0,0.0,0.0,0.0,0.0,0.0,0.0,0.0,0.0,0.0,0.0,0.0,0.0,0.0,0.0,0.0,0.0,0.0,0.0,0.0,0.0,0.0,0.0,0.0,0.0,0.0,0.0,0.0,0.0,0.0,0.0,0.0,0.0,0.0,0.0,0.0,0.0,0.0,0.0,0.0,0.0,0.0,0.0,0.0,0.0,0.0,0.0,0.0,0.0,0.0,0.0,-3.7109,-3.7181,-3.7175,-3.7113,-3.7209,-3.7335,-3.7404,-3.7459,-3.7504,-3.758,0.0,0.0,0.0,0.0,0.0,0.0,0.0,0.0,0.0,0.0,0.0,0.0,0.0,0.0,0.0,0.0,0.0,0.0,0.0,0.0,0.0,0.0,0.0,0.0,0.0,0.0,0.0,0.0,0.0,0.0,0.0,0.0,0.0,0.0,0.0,0.0,0.0,0.0,0.0,0.0,0.0,0.0,0.0,0.0,0.0,0.0,0.0,0.0,0.0,0.0,0.0,0.0,0.0,0.0,0.0,0.0,0.0,0.0,0.0,0.0,-3.2072,0.0,0.0,0.0,0.0,0.0,0.0,0.0,0.0,0.0,0.0,0.0,0.0,0.0,0.0,0.0,0.0,0.0,0.0,0.0,0.0,0.0,0.0,0.0,0.0,0.0,0.0,0.0,0.0,0.0,0.0,0.0,0.0,0.0,0.0,0.0,0.0,0.0,0.0,0.0,0.0,0.0,-3.7184,-3.7115,-3.7263,-3.7817,-3.7873,-3.8209,-3.8944,-3.8404,-3.8474,-3.9528,-3.8327,0.0,0.0,0.0,0.0,0.0,0.0,0.0,0.0,0.0,0.0,0.0,0.0,0.0,0.0,0.0,0.0,0.0,0.0,0.0,0.0,0.0,0.0,0.0,0.0,0.0,0.0,0.0,0.0,0.0,0.0,0.0,0.0,0.0,0.0,0.0,0.0,0.0,0.0,0.0,0.0,0.0,0.0,0.0,0.0,0.0,0.0,0.0,0.0,0.0,0.0,0.0,0.0,0.0,0.0,0.0,0.0,0.0,0.0,0.0,0.0,-3.2619,0.0,0.0,0.0,0.0,0.0,0.0,0.0,0.0,0.0,0.0,0.0,0.0,0.0,0.0,0.0,0.0,0.0,0.0,0.0,0.0,0.0,0.0,0.0,0.0,0.0,0.0,0.0,0.0,0.0,0.0,0.0,0.0,0.0,0.0,0.0,0.0,0.0,0.0,0.0,0.0,-3.8169,-3.8134,-3.8247,-3.854,-3.8577,-3.8771,-3.9261,-3.8854,-3.8864,-3.9571,-3.8867,0.0,0.0,0.0,0.0,0.0,0.0,0.0,0.0,0.0,0.0,0.0,0.0,0.0,0.0,0.0,0.0,0.0,0.0,0.0,0.0,0.0,0.0,0.0,0.0,0.0,0.0,0.0,0.0,0.0,0.0,0.0,0.0,0.0,0.0,0.0,0.0,0.0,0.0,0.0,0.0,0.0,0.0,0.0,0.0,0.0,0.0,0.0,0.0,0.0,0.0,0.0,0.0,0.0,-3.3246,-3.3646,-3.4034,-3.4112,-3.4491,-3.5062,-3.3827,-3.3481,-3.381,0.0,0.0,0.0,0.0,0.0,0.0,0.0,0.0,0.0,0.0,0.0,0.0,0.0,0.0,0.0,0.0,0.0,0.0,0.0,0.0,0.0,0.0,0.0,0.0,0.0,-3.6443,-3.6507,0.0,0.0,0.0,0.0,0.0,0.0,0.0,0.0,0.0,0.0,0.0,0.0,-3.9231,-3.9272,-3.9219,-3.9129,-3.9101,-3.9129,-3.9183,-3.9064,-3.9036,-3.9129,-3.9219,-3.9298,0.0,0.0,0.0,0.0,0.0,0.0,0.0,0.0,0.0,0.0,0.0,0.0,0.0,0.0,0.0,0.0,0.0,0.0,0.0,0.0,0.0,0.0,0.0,0.0,0.0,0.0,0.0,0.0,0.0,0.0,0.0,0.0,-3.3001,-3.2497,0.0,0.0,0.0,0.0,0.0,0.0,0.0,0.0,0.0,0.0,0.0,0.0,0.0,-3.2055,-3.2406,-3.2496,-3.285,-3.3464,-3.3546,-3.3757,-3.4081,-3.451,-3.4764,-3.4854,-3.5057,0.0,-3.5462,-3.5101,0.0,0.0,0.0,0.0,0.0,0.0,0.0,0.0,0.0,0.0,0.0,0.0,0.0,0.0,0.0,0.0,0.0,0.0,0.0,0.0,0.0,0.0,-3.6159,-3.6224,-3.6496,-3.6682,0.0,-3.6268,-3.6251,-3.6515,-3.6478,0.0,0.0,0.0,0.0,0.0,0.0,0.0,-3.9279,-3.9192,-3.9129,-3.9101,-3.9101,-3.9192,-3.9427,-3.9183,-3.9165,-3.9571,-3.9357,-3.9279,-3.9476,-3.9419,0.0,0.0,0.0,0.0,0.0,0.0,0.0,0.0,0.0,0.0,0.0,0.0,0.0,0.0,0.0,0.0,0.0,0.0,0.0,0.0,0.0,0.0,0.0,0.0,0.0,0.0,0.0,0.0,0.0,-3.3203,-3.3117,-3.236,-3.1866,-3.1179,0.0,0.0,0.0,0.0,0.0,0.0,0.0,0.0,0.0,-3.2234,-3.2999,-3.3625,-3.406,-3.406,-3.4242,-3.4553,-3.4553,-3.4891,-3.5496,-3.571,-3.6088,-3.6559,-3.677,-3.689,-3.6904,-3.58,-3.5457,-3.5624,0.0,0.0,0.0,0.0,-3.5638,-3.5702,-3.5792,-3.5792,0.0,-3.5872,0.0,0.0,0.0,0.0,0.0,0.0,0.0,0.0,0.0,0.0,0.0,-3.7174,-3.7635,-3.8015,-3.7896,-3.7792,-3.7645,0.0,-3.7654,-3.8053,-3.8641,0.0,0.0,0.0,0.0,0.0,-3.9192,-3.9156,-3.9073,-3.9064,-3.9045,-3.9073,-3.9156,-3.8989,-3.896,-3.9181,-3.9017,-3.8979,-3.9036,-3.9192,-3.9272,0.0,0.0,0.0,0.0,0.0,0.0,0.0,0.0,0.0,0.0,0.0,0.0,0.0,0.0,0.0,0.0,0.0,0.0,0.0,0.0,0.0,0.0,0.0,0.0,0.0,0.0,0.0,0.0,-3.3846,-3.3627,-3.2779,-3.24,-3.1801,0.0,0.0,0.0,0.0,0.0,0.0,-3.0645,-3.2103,-3.3114,-3.3562,-3.4641,-3.5462,-3.5813,-3.5813,-3.5813,-3.5766,-3.5766,-3.6163,-3.6903,-3.7029,-3.7391,-3.7953,-3.8098,-3.8026,-3.7739,-3.6588,-3.6119,-3.6119,-3.6119,-3.6119,-3.6119,-3.6134,-3.6167,-3.62,-3.6248,-3.6327,-3.644,-3.6363,0.0,-3.6776,-3.6559,0.0,0.0,0.0,0.0,-3.6988,-3.6853,-3.7371,-3.7929,-3.7997,-3.8572,-3.9045,-3.8921,-3.8862,-3.8707,0.0,-3.8609,-3.9045,-3.9101,0.0,0.0,0.0,0.0,-3.9073,-3.9073,-3.9045,-3.9036,-3.8979,-3.8979,-3.895,-3.8892,-3.8851,-3.8792,-3.8792,-3.875,-3.8707,-3.8707,-3.891,-3.9007,-3.9007,0.0,0.0,0.0,0.0,0.0,0.0,0.0,0.0,0.0,0.0,0.0,0.0,0.0,0.0,0.0,0.0,0.0,0.0,0.0,0.0,0.0,0.0,0.0,0.0,0.0,0.0,0.0,0.0,0.0,-3.4717,-3.4622,0.0,0.0,0.0,0.0,-3.2237,-3.2478,-3.2656,-3.277,-3.3927,-3.48,-3.5364,-3.6638,-3.7319,-3.7203,-3.7203,-3.7153,-3.7003,-3.7003,-3.7285,-3.7776,-3.8208,-3.8312,-3.8086,-3.8567,-3.8308,-3.7613,-3.7739,-3.7791,-3.7791,-3.7791,-3.7791,-3.7773,-3.7631,-3.7667,-3.7808,-3.799,-3.8125,-3.8245,-3.8685,-3.8887,-3.8943,-3.8943,-3.8943,0.0,0.0,-3.8663,-3.8554,-3.8059,-3.8323,-3.8688,-3.8423,-3.8748,-3.9101,-3.9101,-3.9073,-3.8998,0.0,-3.8785,-3.8862,-3.9073,0.0,-3.9101,-3.9101,-3.9064,-3.9026,-3.9026,-3.895,-3.891,-3.891,-3.891,-3.8892,-3.891,-3.8851,-3.8792,-3.8792,-3.875,-3.8707,-3.8707,-3.8689,-3.8738,-3.8738,-3.8719,0.0,0.0,0.0,0.0,0.0,0.0,0.0,0.0,0.0,0.0,0.0,0.0,0.0,0.0,0.0,0.0,0.0,0.0,0.0,0.0,0.0,0.0,0.0,0.0,0.0,0.0,0.0,0.0,-3.4153,-3.4399,0.0,-3.3135,-3.3529,-3.3701,-3.3383,-3.3429,-3.3487,-3.3414,-3.4177,-3.4865,-3.538,-3.6149,-3.6798,-3.7169,-3.7153,-3.7169,-3.7102,-3.7102,-3.7483,-3.8283,-3.8418,-3.8763,-3.9274,-3.9426,-3.9361,-3.9093,-3.9169,-3.8616,-3.7703,-3.7703,-3.7703,-3.7703,-3.7703,-3.7739,-3.7792,-3.7862,-3.7897,-3.7949,-3.8267,-3.8491,-3.8664,-3.8664,-3.8664,-3.8615,-3.8541,-3.8541,-3.8478,-3.8318,-3.8382,-3.8528,-3.8415,-3.8428,-3.8442,-3.8442,-3.8323,-3.8273,-3.8455,-3.8707,-3.8921,-3.8979,-3.8979,-3.8979,-3.8979,-3.895,-3.8939,-3.8939,-3.8892,-3.8862,-3.8851,-3.8851,-3.8822,-3.878,-3.875,-3.8719,-3.8719,-3.8689,-3.8707,-3.8707,-3.8707,-3.8707,-3.8707,-3.8707,-3.878,0.0,0.0,0.0,0.0,0.0,0.0,0.0,0.0,0.0,0.0,0.0,0.0,0.0,0.0,0.0,0.0,0.0,0.0,0.0,0.0,0.0,0.0,0.0,0.0,0.0,0.0,-3.5247,-3.4069,-3.467,-3.4752,-3.3664,-3.4038,-3.4307,-3.4352,-3.4147,-3.3969,-3.3924,-3.4511,-3.5147,-3.5631,-3.6412,-3.7171,-3.7847,-3.7831,-3.7831,-3.7831,-3.8019,-3.8516,-3.9284,-3.9465,-3.9806,-4.0307,-4.0307,-4.0164,-3.9914,-3.9914,-3.9307,-3.8344,-3.8094,-3.7826,-3.7631,-3.7649,-3.7685,-3.7667,-3.7774,-3.788,-3.7966,-3.8186,-3.8382,-3.851,-3.8428,-3.8364,-3.8267,-3.8183,-3.8165,-3.8132,-3.8083,-3.8216,-3.8346,-3.8249,-3.83,-3.8364,-3.8364,-3.8212,-3.8194,-3.8423,-3.8628,-3.8796,-3.8892,-3.891,-3.891,-3.891,-3.8881,-3.8881,-3.8881,-3.8851,-3.884,-3.8762,-3.878,-3.875,-3.8707,-3.8707,-3.8707,-3.8707,-3.8707,-3.8707,-3.8707,-3.878,-3.8822,-3.8822,-3.8822,-3.8921,-3.9101,0.0,0.0,0.0,0.0,0.0,0.0,0.0,0.0,0.0,0.0,0.0,0.0,0.0,0.0,0.0,0.0,0.0,0.0,0.0,0.0,0.0,0.0,0.0,-3.5379,-3.593,-3.596,-3.4718,-3.5683,-3.5959,-3.4694,-3.5065,-3.5331,-3.521,-3.4663,-3.4355,-3.4355,-3.4985,-3.5714,-3.6416,-3.7641,-3.859,-3.9272,-3.9272,-3.9272,-3.9325,-3.9782,-4.0252,-4.0802,-4.1311,-4.1347,-4.1145,-4.1145,-4.0659,-3.9946,-3.9946,-3.9929,-3.9839,-3.9129,-3.8362,-3.7666,-3.7648,-3.7666,-3.7684,-3.797,-3.8225,-3.8488,-3.8756,-3.8835,-3.8787,-3.851,-3.8303,-3.8088,-3.7826,-3.7738,-3.7685,-3.7503,-3.788,-3.8267,-3.8,-3.8433,-3.8907,-3.8907,-3.8907,-3.8907,-3.8865,-3.8578,-3.8478,-3.8833,-3.8892,-3.8892,-3.8892,-3.8851,0.0,-3.8792,-3.875,-3.8707,-3.8707,-3.8707,-3.8707,-3.8707,-3.8707,-3.8707,-3.8707,-3.8707,-3.8707,-3.8707,-3.895,-3.9101,-3.9101,-3.9101,-3.9101,-3.9101,0.0,0.0,0.0,0.0,0.0,0.0,0.0,0.0,0.0,0.0,0.0,0.0,0.0,0.0,0.0,0.0,0.0,0.0,0.0,0.0,0.0,0.0,-3.6372,-3.5232,-3.5703,-3.5706,-3.4535,-3.5102,-3.5263,-3.4576,-3.5017,-3.5337,-3.5381,-3.5238,-3.5175,-3.5175,-3.5356,-3.5967,-3.7085,-3.7435,-3.8197,-3.9272,-3.9272,-3.9272,-3.9325,-3.9782,-4.0203,-4.0514,-4.1036,-4.1358,-4.1445,-4.1445,-4.1339,-4.1127,-4.1127,-4.0793,-4.0211,-3.9757,-3.9468,-3.9233,-3.9079,-3.8921,-3.8805,-3.9079,-3.9198,-3.9333,-3.9734,-3.9644,-3.9407,-3.948,-3.9218,-3.8907,-3.881,-3.8793,-3.8753,-3.8707,-3.881,-3.8911,-3.885,-3.889,-3.9008,-3.9314,-3.9294,-3.9369,-3.9926,-3.9961,-3.9665,-3.8891,-3.875,-3.875,-3.875,-3.875,0.0,-3.8719,-3.8689,-3.8707,-3.8707,-3.8707,-3.8707,-3.8707,-3.8707,-3.8707,-3.8707,-3.8707,-3.8707,-3.8707,-3.878,-3.881,-3.881,-3.9007,-3.9101,0.0,0.0,0.0,0.0,0.0,0.0,0.0,0.0,0.0,0.0,0.0,0.0,0.0,0.0,0.0,0.0,0.0,0.0,0.0,0.0,0.0,0.0,-3.7367,-3.7075,-3.5738,-3.6136,-3.6229,-3.5252,-3.5474,-3.5475,-3.4988,-3.5208,-3.5437,-3.5474,-3.5504,-3.5439,-3.5359,-3.5359,-3.5958,-3.7131,-3.7191,-3.778,-3.9094,-3.9094,-3.9094,-3.9094,-3.9765,-4.0153,-4.0334,-4.1053,-4.1453,0.0,-4.1604,-4.1604,-4.1604,-4.1604,-4.1341,0.0,0.0,0.0,0.0,0.0,-3.9335,-3.9234,-3.9376,-3.9504,-3.9629,-3.9917,-3.9822,-3.9589,-3.9625,-3.9359,-3.9041,-3.8955,-3.8955,-3.8955,-3.8955,-3.9066,-3.9193,-3.9193,-3.9234,-3.9359,-3.9603,-3.9704,-3.9899,-4.0384,-4.0633,0.0,-3.9832,-3.9717,-3.9717,-3.9717,-3.9423,-3.9203,-3.9203,-3.8909,-3.8707,-3.8707,-3.8707,-3.8707,-3.8707,-3.8707,0.0,0.0,0.0,-3.875,-3.8851,-3.8881,0.0,0.0,0.0,-3.9219,-3.9101,0.0,0.0,0.0,-3.9107,-3.9088,0.0,0.0,0.0,0.0,0.0,0.0,0.0,0.0,0.0,0.0,0.0,0.0,0.0,0.0,0.0,0.0,-3.7914,-3.7925,-3.6642,-3.691,-3.6982,-3.631,-3.6244,-3.6085,-3.5504,-3.5439,-3.5439,-3.5439,-3.5439,-3.5359,-3.5148,0.0,0.0,0.0,0.0,-3.7605,-3.8805,-3.8805,-3.8805,-3.8805,-3.9732,-4.0186,-4.0203,-4.1146,-4.156,-4.1515,-4.1515,-4.1515,-4.1515,-4.1515,-4.1515,-4.1445,-4.0788,-4.0087,-3.9413,-3.9413,-3.9413,-3.9413,-3.9413,0.0,0.0,-3.9838,-3.9815,-3.9734,-3.957,-3.9371,-3.9103,-3.8881,-3.8853,-3.8853,-3.8853,-3.9129,-3.9371,-3.9371,-3.9647,-3.9931,-3.9971,-4.0247,-4.0546,-4.0673,-4.101,-4.1321,-4.1354,-4.124,-4.1111,-4.1111,-4.0487,-4.0029,-4.0029,-3.9405,-3.8946,-3.8854,0.0,0.0,-3.8707,-3.8707,-3.8707,-3.8707,-3.8707,-3.881,-3.9045,-3.9045,-3.9045,-3.9045,-3.935,-3.9401,-3.9156,-3.9408,-3.9551,-3.9532,-3.9508,-3.9502,0.0,0.0,0.0,0.0,0.0,0.0,0.0,0.0,0.0,0.0,0.0,0.0,0.0,0.0,0.0,-3.8689,-3.8974,-3.8755,-3.781,-3.7367,-3.6763,-3.5776,-3.5657,-3.5554,-3.5294,-3.5294,-3.5213,-3.5001,-3.5001,-3.5001,-3.4935,-3.5494,-3.6102,-3.6906,-3.7445,-3.8042,-3.8805,-3.8805,-3.8805,-3.8805,0.0,0.0,-3.9969,-4.0866,-4.118,-4.1012,-4.1012,-4.1012,-4.1012,-4.1012,-4.1012,-4.1041,-4.1296,-4.1138,-4.0802,-4.0802,-4.0728,-4.0608,-4.0756,-4.0756,-4.0728,-4.1268,-4.1095,-4.0728,-4.099,-4.0802,0.0,-4.0486,-4.044,-4.044,-4.044,-4.0516,-4.0562,-4.0562,-4.0654,-4.0774,-4.1078,-4.1233,-4.1529,-4.228,-4.2504,-4.265,-4.2986,-4.1974,-4.1111,-4.1111,-4.0983,-4.0873,-4.0873,-4.0744,-4.0396,-3.9735,-3.9662,-3.9405,-3.8762,-3.8707,-3.8707,-3.8707,-3.8707,-3.8719,-3.878,-3.878,-3.878,-3.878,-3.9245,-3.9458,-3.9408,-3.9693,-3.9807,-3.9807,-3.9599,-3.9502,0.0,0.0,0.0,0.0,0.0,0.0,0.0,0.0,0.0,0.0,0.0,-3.722,0.0,0.0,-3.8253,-3.892,-3.904,-3.8678,-3.7632,-3.7175,-3.6662,-3.5831,-3.5394,-3.5148,-3.5082,-3.5067,-3.5001,-3.4935,-3.4935,-3.4868,-3.4817,-3.5429,-3.6039,-3.6631,-3.7266,-3.7943,-3.86,-3.8958,-3.925,-3.944,-4.0514,-4.1084,-4.1239,-4.1894,-4.2154,-4.2026,-4.2026,-4.2026,-4.2026,-4.2026,-4.2026,-4.2075,-4.2298,-4.1829,-4.1041,-4.1041,-4.1012,-4.0918,-4.1012,-4.0995,-4.0965,-4.13,-4.118,-4.0918,-4.1117,-4.1041,-4.0888,-4.0888,-4.0888,-4.0888,-4.0888,-4.0888,-4.0888,-4.0888,-4.0888,-4.0965,-4.1163,-4.1356,-4.1692,-4.2418,-4.2673,-4.2957,-4.341,-4.2803,-4.2255,-4.2304,-4.1974,-4.1699,-4.1699,-4.1368,-4.0914,-4.0441,-4.0404,-4.0207,-3.979,-3.942,-3.9048,-3.8627,-3.8658,-3.8707,-3.8707,-3.8707,-3.875,-3.891,-3.9298,-3.9575,-3.9693,-3.9975,-4.0098,-4.0098,-3.9975,-3.9826,0.0,0.0,0.0,0.0,0.0,0.0,0.0,0.0,-3.6966,-3.7644,-3.7758,-3.7992,-3.869,-3.8805,-3.8805,-3.8805,-3.8805,-3.8327,-3.7011,-3.6829,-3.6523,-3.5721,-3.5169,-3.4868,-3.4868,-3.4868,-3.4868,-3.4802,-3.4802,-3.4802,-3.4817,-3.5494,-3.6163,-3.677,-3.7487,-3.8115,-3.8796,-3.9495,-3.9985,-4.0364,-4.141,-4.2129,-4.2533,-4.2996,-4.3214,-4.3214,-4.3214,-4.3214,-4.3214,-4.3214,-4.3214,-4.3214,-4.3214,-4.2455,-4.1319,-4.1319,-4.1319,-4.1319,-4.1319,-4.1319,-4.1302,-4.1147,-4.1095,-4.1078,-4.0922,-4.0888,-4.0888,-4.0888,-4.0888,-4.0871,-4.0888,-4.0888,-4.0823,-4.084,-4.0823,-4.084,-4.084,-4.1117,-4.1516,-4.2074,-4.2418,-4.2788,-4.3375,-4.3446,-4.3429,-4.3463,-4.2913,-4.2491,-4.2475,-4.1907,-4.1397,-4.1129,-4.111,-4.1022,-4.0826,-4.0273,-3.9648,-3.899,-3.8889,-3.8865,-3.8896,-3.8731,-3.8792,-3.9101,-3.9376,-3.9647,-3.9914,-4.0176,-4.031,-4.031,-4.031,-4.0176,-3.0736,-3.1926,-3.3017,-3.3275,-3.4793,-3.622,0.0,0.0,-3.8388,-3.8619,-3.8619,-3.8707,-3.8788,-3.8805,-3.8805,-3.8805,-3.8805,-3.8311,-3.6859,-3.6615,-3.6119,-3.4721,-3.4735,-3.4868,-3.4765,-3.4698,-3.4631,-3.4481,-3.4481,-3.4721,-3.5285,-3.5961,-3.6925,-3.8196,-3.8921,-3.958,-4.0254,-4.0745,-4.1049,-4.1123,-4.2004,-4.2428,-4.2533,-4.2996,-4.3214,-4.3214,-4.3214,-4.3214,-4.3214,-4.3214,-4.3214,-4.3214,-4.3214,-4.3111,-4.2973,-4.2973,-4.2973,-4.2973,-4.2973,-4.2973,-4.2802,-4.2095,-4.1871,-4.1733,-4.1078,-4.0888,-4.0888,-4.0888,-4.0888,-4.0871,-4.0745,-4.0697,-4.0697,-4.0583,-4.0517,-4.0583,-4.0697,-4.0745,-4.1071,-4.2032,-4.2239,-4.2498,-4.3305,-4.3376,-4.3394,-4.3429,-4.3338,-4.3248,-4.3105,-4.3032,-4.2667,-4.1956,-4.1865,-4.1573,-4.0881,-4.0735,-4.0643,-4.0552,-3.9911,-3.9542,-3.9589,-3.8894,-3.8707,-3.9101,-3.9376,-3.9647,-3.9914,-4.0176,-4.031,-4.031,-4.031,-4.0272,-3.1746,-3.2786,0.0,0.0,-3.5859,-3.6982,-3.7528,-3.8052,-3.8504,-3.8672,-3.86,-3.86,-3.8655,-3.8286,-3.7985,0.0,-3.7985,-3.7504,-3.6072,-3.6244,-3.5946,-3.4601,-3.4534,-3.4616,-3.4549,-3.4549,-3.4481,-3.4414,-3.4414,-3.4882,-3.5953,-3.6682,-3.7686,-3.9013,-3.9746,-4.0205,-4.0496,-4.1377,-4.1981,-4.2266,-4.3297,-4.3951,-4.418,-4.4371,-4.4492,-4.4492,-4.4492,-4.4492,-4.4492,-4.4492,-4.4492,-4.4492,-4.4492,-4.4492,-4.4389,-4.3492,-4.3214,-4.3214,-4.3214,-4.3214,-4.3113,-4.2651,-4.253,-4.2429,-4.207,-4.1934,-4.1934,-4.1934,-4.1934,-4.1934,-4.1884,-4.1834,-4.1834,-4.1783,-4.1783,-4.1664,-4.1287,-4.1201,-4.1371,-4.1927,-4.1948,-4.2198,-4.3123,-4.3233,-4.3215,-4.3215,-4.3269,-4.3251,-4.3214,-4.3214,-4.3051,-4.2668,-4.2559,-4.2178,-4.1397,-4.1378,-4.1249,-4.0775,-4.0464,-4.0297,-4.0331,-4.0226,-4.0108,-3.9917,-4.0252,-4.0325,-4.0118,-4.0253,-4.031,-4.031,-4.031,-4.031,-3.2608,0.0,0.0,-3.511,-3.6051,-3.6811,-3.7393,-3.7828,-3.8148,-3.8262,-3.8335,-3.8464,-3.852,-3.8091,-3.7669,-3.7669,-3.7535,-3.6966,-3.5834,-3.5946,-3.577,-3.4787,-3.4534,-3.4534,-3.4905,-3.4773,-3.4654,-3.4654,-3.503,-3.5776,-3.7014,-3.7679,-3.8654,-4.0052,-4.053,-4.0885,-4.1079,-4.2183,-4.29,-4.3243,-4.4342,-4.5015,-4.5318,-4.5318,-4.5318,-4.5318,-4.5318,-4.5318,-4.5318,-4.5318,-4.5318,-4.5318,-4.5318,-4.5318,-4.518,-4.4079,-4.3734,-4.3734,-4.3683,-4.3683,-4.3649,-4.3306,-4.3186,-4.3151,-4.2774,-4.2706,-4.2706,-4.2706,-4.2706,-4.2706,-4.2654,-4.2654,-4.2619,-4.2602,-4.2602,-4.2466,-4.1938,-4.1954,-4.2161,-4.245,-4.2562,-4.2858,-4.3666,-4.3596,-4.3432,-4.3376,-4.3213,-4.3123,-4.3123,-4.3123,-4.3105,-4.3049,-4.2938,-4.2647,-4.2085,-4.2123,-4.1923,-4.1342,-4.1159,-4.1101,-4.1238,-4.1309,-4.1229,-4.1004,-4.1269,-4.129,-4.0998,-4.0998,-4.0998,-4.0998,-4.0998,-4.0998,0.0,0.0,-3.3618,-3.3632,-3.4461,-3.5145,-3.5175,-3.6384,-3.7417,-3.7417,-3.796,-3.8391,-3.8408,-3.8408,-3.8391,-3.8391,-3.7844,-3.7163,-3.6446,-3.5834,-3.54,-3.54,-3.4787,-3.4905,0.0,-3.577,-3.54,-3.54,-3.6648,-3.7684,-3.8399,-3.9076,-4.0068,-4.1517,-4.1533,-4.1873,-4.2553,-4.3469,-4.3881,-4.3798,-4.4708,-4.5123,-4.5032,-4.5032,-4.5032,-4.5032,-4.5032,-4.5032,-4.5032,-4.5032,-4.5032,-4.5032,-4.5032,-4.5032,-4.5032,-4.4981,-4.5018,-4.5108,-4.4964,-4.4964,-4.4861,-4.4073,-4.385,-4.3714,-4.2945,-4.2706,-4.2706,-4.2706,-4.2706,-4.2671,-4.2515,-4.2532,-4.2462,-4.2339,-4.2286,-4.2339,-4.2445,-4.2859,-4.3419,-4.3994,-4.4507,-4.4962,-4.5373,-4.4758,-4.4211,-4.4098,-4.3389,-4.292,-4.292,-4.292,-4.292,-4.29,-4.2882,-4.2882,-4.2864,-4.2864,-4.2846,-4.281,-4.2103,-4.1886,-4.2331,-4.1622,-4.1526,-4.2219,-4.2262,-4.2424,-4.2717,-4.2717,-4.2717,-4.2717,-4.2717,-4.2717,0.0,0.0,-3.4288,-3.4288,-3.4898,-3.5567,-3.5567,-3.6089,-3.6554,-3.6554,-3.6456,-3.6538,-3.6993,-3.6022,-3.5592,-3.687,-3.6516,-3.6119,-3.6384,-3.6585,-3.6399,-3.5529,-3.5578,0.0,0.0,0.0,0.0,-3.6743,-3.7244,-3.8214,-3.9834,-4.0103,-4.0864,-4.2245,-4.2074,-4.225,-4.2929,-4.3323,-4.3739,-4.4121,-4.4742,-4.5306,-4.573,-4.573,-4.6003,-4.6464,-4.6464,-4.6464,-4.6464,-4.6464,-4.6464,-4.6464,-4.6464,-4.6174,-4.5747,-4.5636,-4.5312,-4.4923,-4.4978,-4.4978,-4.4944,-4.4596,-4.4511,-4.4405,-4.4041,-4.3973,-4.3973,-4.3973,-4.3973,-4.3973,-4.3936,-4.3864,-4.3864,-4.3809,-4.3809,-4.3766,-4.3648,-4.3786,-4.4014,-4.4396,-4.4614,-4.4827,-4.5291,-4.5113,-4.495,-4.4892,-4.3751,-4.2882,-4.2882,-4.2882,-4.2882,-4.2882,-4.2882,-4.2882,-4.2882,-4.2882,-4.2882,-4.2882,-4.274,-4.2795,-4.3137,-4.3169,-4.3147,-4.3032,-4.3259,-4.3185,-4.2794,-4.2794,-4.2794,-4.2794,-4.2794,-4.2794,0.0,-3.3701,-3.4153,-3.4153,-3.4581,-3.5014,-3.5014,-3.5224,-3.544,-3.544,-3.5156,-3.5154,-3.5845,-3.5141,-3.4866,-3.606,-3.6014,-3.5891,-3.6322,-3.6585,-3.6523,-3.615,-3.6259,0.0,0.0,0.0,0.0,-3.7794,-3.8545,-3.9582,-4.0927,-4.1198,-4.1613,-4.2429,-4.2412,-4.2601,-4.2912,-4.3383,-4.4065,-4.4885,-4.5382,-4.5886,-4.6346,-4.6346,-4.6698,-4.7352,-4.7158,-4.7158,-4.7352,-4.7158,-4.706,-4.706,-4.706,-4.6771,-4.6363,-4.6248,-4.5943,-4.545,-4.5018,-4.4831,-4.4831,-4.4737,-4.4737,-4.4737,-4.4643,-4.4587,-4.4587,-4.4587,-4.4587,-4.4587,-4.4587,-4.4587,-4.4587,-4.4587,-4.4587,-4.4546,-4.4382,-4.4613,-4.4945,-4.5121,-4.5454,-4.5791,-4.6119,-4.5924,-4.5635,-4.5345,-4.4421,-4.3643,-4.3353,-4.3063,-4.2882,-4.2882,-4.2882,-4.2882,-4.2882,-4.2882,-4.2882,-4.2882,-4.3087,-4.3338,-4.3638,-4.4065,-4.4221,-4.4023,-4.4246,-4.4145,-4.3692,-4.3692,-4.3692,-4.3692,-4.3692,-4.3692,-3.3326,-3.3326,-3.3326,-3.3326,-3.3466,-3.3605,-3.3577,-3.3848,-3.4144,-3.4099,-3.4045,-3.427,0.0,0.0,-3.6001,-3.6106,-3.6276,-3.64,-3.6492,-3.5946,-3.6024,0.0,0.0,0.0,0.0,0.0,0.0,-3.8631,0.0,-4.1581,-4.163,-4.2261,-4.2429,-4.2174,-4.2726,-4.2929,-4.2759,-4.3839,-4.4953,-4.5983,-4.6523,-4.6819,-4.6895,-4.6895,-4.721,-4.772,-4.7203,-4.7244,-4.7683,-4.7163,-4.6904,-4.6904,-4.6904,-4.6887,-4.6853,-4.6853,-4.6819,-4.6583,-4.5179,-4.4688,-4.4688,-4.4688,-4.4688,-4.4688,-4.4654,-4.4637,-4.4621,-4.4587,-4.4587,-4.4587,-4.4587,-4.4587,-4.4587,-4.4587,-4.4587,-4.4626,-4.4626,-4.539,-4.6098,-4.6165,-4.6999,-4.7717,-4.7717,-4.7083,-4.6305,-4.5544,-4.5399,-4.5073,-4.4258,-4.3498,-4.2991,-4.2955,-4.2955,-4.2936,-4.2882,-4.292,-4.292,-4.292,-4.3249,-4.359,-4.3912,-4.4299,-4.4695,-4.5103,-4.517,-4.5213,-4.5297,-4.5297,-4.5297,-4.5297,-4.5297,-4.5297,-3.3326,-3.3326,-3.3326,-3.3326,-3.3326,-3.3269,-3.2818,-3.2905,-3.2915,-3.2413,-3.213,-3.2217,0.0,0.0,0.0,-3.5766,-3.6242,0.0,-3.7764,-3.777,0.0,0.0,0.0,-3.869,-3.8762,-4.0023,0.0,0.0,-4.1294,-4.1808,-4.2326,-4.2269,-4.2429,-4.2851,-4.2555,-4.3049,-4.4511,-4.5631,-4.6312,-4.6573,-4.6701,-4.7291,-4.8266,-4.8266,-4.8864,-4.9885,-4.9343,-4.9206,-4.9304,-4.8711,-4.8443,-4.8443,-4.8443,-4.8105,-4.7631,-4.7631,-4.7276,-4.6735,-4.6363,-4.6227,-4.6227,-4.6227,-4.6227,-4.6126,-4.5585,-4.5415,-4.5297,-4.4739,-4.4587,-4.4587,-4.4587,-4.4587,-4.4587,-4.4587,-4.4587,-4.472,-4.5035,-4.5614,-4.6213,-4.6613,-4.7258,-4.7717,-4.7717,-4.7536,-4.7319,-4.712,-4.6576,-4.5906,-4.5091,-4.4802,-4.4458,-4.386,-4.3788,-4.3534,-4.2936,-4.3142,-4.3266,-4.3266,-4.3675,-4.4053,-4.4355,-4.4495,-4.4751,-4.517,-4.5148,-4.517,-4.5297,-4.5297,-4.5297,-4.5297,-4.5297,-4.5297,-3.3326,-3.3326,-3.3255,-3.2988,-3.2918,-3.2764,-3.2145,-3.1914,-3.1749,-3.1381,-3.0864,0.0,0.0,0.0,0.0,0.0,0.0,0.0,-3.7854,-3.796,-3.7902,0.0,-3.885,0.0,-3.939,-4.0736,-4.1695,0.0,-4.2035,-4.2213,-4.2601,-4.2555,-4.2664,-4.2851,-4.3284,-4.4224,-4.5909,-4.7104,-4.7653,-4.7653,-4.8232,-4.8933,-4.9611,-4.9611,-5.0167,-5.1034,0.0,-5.0237,-5.0181,-4.9656,-4.9229,-4.9001,-4.9001,-4.8748,-4.8392,-4.8392,-4.8122,-4.7767,-4.7767,-4.7767,-4.7588,-4.6656,-4.6317,-4.625,-4.5848,-4.5714,-4.5689,-4.5595,-4.5551,-4.5483,-4.5162,-4.5077,-4.4993,-4.4654,-4.4587,-4.4682,-4.4944,-4.558,-4.631,-4.7107,-4.7511,-4.7717,-4.7717,-4.7717,-4.7717,-4.7717,-4.7319,-4.6948,-4.6676,-4.5845,-4.5128,-4.4675,-4.4796,-4.4526,-4.3725,-4.3973,-4.4029,-4.3642,-4.4023,-4.4289,-4.4438,-4.4655,-4.487,-4.5103,-4.5125,-4.517,-4.5275,-4.5297,-4.5297,-4.5297,-4.5297,-4.5297,-3.3326,-3.3326,-3.3185,-3.2553,-3.2412,-3.2216,-3.1527,-3.1053,-3.0758,-3.0687,0.0,0.0,-3.0672,0.0,-3.3774,-3.3995,0.0,-3.7306,-3.7535,-3.7535,-3.7759,-3.848,-3.9185,-3.9881,-4.0577,-4.129,-4.197,-4.2585,-4.268,-4.2696,-4.2634,-4.2912,-4.3007,-4.2902,-4.4643,-4.6026,-4.7039,-4.8335,-4.8981,-4.9093,-5.0183,-5.0751,-5.0805,-5.0805,-5.1157,-5.1669,0.0,0.0,-5.0751,-5.0237,-4.9656,-4.9107,-4.9107,-4.9063,-4.9001,-4.9001,-4.9001,-4.9001,-4.9001,-4.9001,-4.8658,-4.6616,-4.5997,-4.5934,-4.5755,-4.5739,-4.5989,-4.6488,-4.6727,-4.665,-4.6007,-4.5855,-4.5686,-4.5026,-4.4874,-4.4857,-4.4756,-4.5459,-4.6406,-4.7511,-4.7717,-4.7717,-4.7717,-4.7717,-4.7717,-4.7717,-4.7717,-4.7824,-4.819,-4.6731,-4.5682,-4.5594,-4.592,-4.5789,-4.4908,-4.5193,-4.5121,-4.4346,-4.4495,-4.4626,-4.4626,-4.484,-4.4991,-4.4991,-4.5125,-4.517,-4.5192,-4.5275,-4.5297,-4.5297,-4.5297,-4.5297,-3.3326,-3.3326,-3.3185,-3.2553,-3.2412,-3.2103,-3.0951,-3.06,0.0,0.0,0.0,-2.9848,-3.0417,-3.143,0.0,-3.4453,0.0,0.0,0.0,0.0,-3.8504,0.0,0.0,0.0,0.0,0.0,0.0,0.0,0.0,-4.3019,-4.2618,-4.2772,-4.3387,-4.45,-4.6428,-4.7742,-4.8483,-4.9263,-4.9951,-5.0342,-5.0573,-5.0982,-5.1432,-5.1432,-5.1768,-5.2322,-5.1719,0.0,-5.1381,-5.0822,-5.0237,-4.9715,-4.9715,-4.9453,-4.9001,-4.9001,-4.9001,-4.9001,-4.9001,-4.9001,-4.8827,-4.7861,-4.7504,-4.7258,-4.606,-4.6159,-4.651,-4.6022,-4.6317,-4.6752,-4.6633,-4.6599,-4.6583,-4.643,-4.6413,-4.6244,-4.5635,-4.5839,-4.6406,-4.7511,-4.7717,-4.7717,-4.7717,-4.7717,-4.7717,-4.7717,-4.7717,-4.7717,-4.7783,-4.7795,-4.7646,-4.7235,-4.7265,-4.6965,-4.6149,-4.6414,-4.654,-4.6409,-4.6089,-4.588,-4.588,-4.5249,-4.4943,-4.4991,-4.5014,-4.5103,-4.5192,-4.5213,-4.5254,-4.5297,-4.5297,-4.5297,-3.3326,-3.3326,-3.3185,-3.2553,-3.2159,-3.1682,-3.074,0.0,0.0,0.0,0.0,-2.9701,-2.9996,0.0,0.0,0.0,0.0,0.0,0.0,0.0,0.0,0.0,0.0,0.0,0.0,0.0,0.0,0.0,0.0,-4.3185,-4.2974,-4.3729,-4.474,-4.5942,-4.7529,-4.8689,-4.9355,-5.0303,-5.0893,-5.1157,-5.1482,-5.1768,-5.2048,-5.2048,-5.2228,-5.2498,-5.2209,0.0,-5.1551,-5.126,-5.0822,-5.0293,-4.9988,-4.9715,-4.9453,-4.9124,-4.9001,-4.9001,-4.9001,-4.9001,-4.8861,-4.8161,-4.7622,-4.7223,-4.6475,-4.6497,-4.6782,-4.6812,-4.7395,-4.7851,-4.7479,-4.7378,-4.7276,-4.6887,-4.6786,-4.6801,-4.6715,-4.7037,-4.7386,-4.7787,-4.8125,-4.8206,-4.7772,-4.7717,-4.7717,-4.7717,-4.7717,-4.7783,-4.797,-4.8307,-4.8402,-4.8015,-4.8308,-4.8202,-4.7361,-4.7625,-4.7645,-4.7192,-4.694,-4.6809,-4.6809,-4.6013,-4.5602,-4.5626,-4.5195,-4.5057,-4.5148,-4.517,-4.5235,-4.5297,-4.5297,-4.5297,-3.3326,-3.3326,-3.3185,-3.2553,-3.1949,-3.1316,-3.067,-3.0052,0.0,0.0,-2.9602,-2.9602,-2.9602,0.0,0.0,0.0,0.0,0.0,0.0,0.0,0.0,0.0,0.0,0.0,0.0,0.0,0.0,0.0,0.0,0.0,-4.3761,-4.4968,-4.6152,-4.7223,-4.8403,-4.9343,-5.0085,-5.107,-5.1669,-5.1786,-5.2275,-5.2498,-5.2498,-5.2498,-5.2498,-5.2498,-5.2498,0.0,0.0,-5.1768,-5.1432,-5.0858,-5.0422,-5.0215,-4.9988,-4.9376,-4.9168,-4.9168,-4.9063,-4.9001,-4.8923,-4.8306,-4.7556,-4.6742,-4.6604,-4.6534,-4.6742,-4.7489,-4.8177,-4.8664,-4.823,-4.8156,-4.8003,-4.7411,-4.7141,-4.7182,-4.7722,-4.8118,-4.8375,-4.8283,-4.874,-4.8912,-4.8116,-4.7971,-4.7916,-4.7735,-4.7717,-4.7866,-4.8229,-4.8586,-4.8711,-4.8532,-4.9123,-4.9224,-4.8528,-4.8777,-4.8647,-4.7965,-4.7757,-4.7681,-4.7681,-4.6885,-4.6373,-4.6203,-4.5569,-4.5181,-4.508,-4.5148,-4.5213,-4.5275,-4.5297,-4.5297,-3.3326,-3.3326,-3.3185,-3.2553,-3.1949,-3.1316,-3.067,0.0,0.0,0.0,-2.9602,-2.9602,-2.9602,-3.0064,0.0,0.0,0.0,0.0,0.0,0.0,0.0,0.0,0.0,0.0,0.0,0.0,0.0,0.0,0.0,0.0,-4.5334,-4.6035,-4.687,-4.7946,-4.9176,-5.0072,-5.0643,-5.126,-5.1884,-5.2434,-5.248,-5.2498,-5.2498,-5.2498,-5.2498,-5.2498,-5.2498,0.0,0.0,-5.2434,-5.2048,-5.15,-5.1449,-5.1105,-5.0535,-5.0045,-4.9832,-4.9715,-4.9168,-4.9001,-4.9001,-4.894,-4.7983,-4.6673,-4.5969,-4.5769,-4.5969,-4.6673,-4.7422,-4.8144,-4.8714,-4.89,-4.8883,-4.8815,-4.8291,-4.798,-4.8478,-4.8483,-4.8534,-4.8994,-4.9595,-4.9727,-4.8949,-4.8804,-4.855,-4.7826,-4.7717,-4.7866,-4.8229,-4.8586,-4.8937,-4.927,-4.9636,-4.9833,-4.9738,-4.9765,-4.9746,-4.9671,-4.8969,-4.8572,-4.8572,-4.7738,-4.6942,-4.6203,-4.6127,-4.574,-4.4991,-4.508,-4.5148,-4.5213,-4.5275,-4.5297,-3.3326,-3.3326,-3.3255,-3.3016,-3.2216,-3.1429,-3.1162,0.0,0.0,-2.9602,-2.9602,-2.9602,-2.9602,-2.996,-3.0802,0.0,0.0,0.0,0.0,0.0,0.0,0.0,0.0,0.0,0.0,0.0,0.0,0.0,0.0,0.0,-4.6516,-4.6699,-4.7384,-4.8598,-4.9799,-5.0661,-5.1209,-5.1835,-5.2275,-5.2498,-5.2498,-5.2498,-5.2498,-5.2498,-5.2498,-5.2498,-5.2498,0.0,0.0,-5.2498,-5.2387,-5.2114,-5.1719,-5.1432,-5.1157,-5.0254,-4.989,-4.9832,-4.9229,-4.9001,-4.9001,-4.9001,-4.8306,-4.7422,-4.7137,-4.6984,-4.7069,-4.7355,-4.7967,-4.8656,-4.8923,-4.9001,-4.9001,-4.9001,-4.8781,-4.8623,-4.883,-4.9375,-4.9697,-4.9447,-5.017,-5.056,-4.9764,-4.9619,-4.9347,-4.855,-4.8442,-4.8411,-4.8284,-4.8586,-4.8952,-4.9365,-4.9712,-4.9898,-4.9898,-4.9898,-4.9898,-4.9898,-4.9595,-4.9405,-4.9405,-4.8609,-4.8022,-4.77,-4.7188,-4.6556,-4.586,-4.5883,-4.5662,-4.5275,-4.5297,-4.5297,-3.3269,-3.3326,-3.3326,-3.3326,-3.2539,-3.171,0.0,0.0,-2.9827,-2.9645,-2.9602,-2.9665,-2.9789,-3.0205,-3.0864,0.0,0.0,0.0,0.0,0.0,0.0,0.0,0.0,0.0,0.0,0.0,0.0,0.0,0.0,0.0,0.0,-4.7039,-4.7815,-4.9232,-5.0398,-5.1157,-5.1619,-5.2209,-5.2498,-5.2498,-5.2498,-5.2498,-5.2498,-5.2498,-5.2498,-5.2498,0.0,0.0,0.0,-5.2498,-5.2498,-5.2452,-5.2048,-5.1884,-5.1736,-5.075,-5.031,-5.0028,-4.9496,-4.9168,-4.9001,-4.9001,-4.8656,-4.8242,-4.8242,-4.7885,-4.7622,-4.7819,-4.845,-4.9001,-4.9001,-4.9001,-4.9001,-4.9001,-4.9001,-4.9063,-4.9229,-5.0011,-5.0593,-5.0171,-5.0945,-5.1393,-5.0578,-5.0434,-5.018,-4.9383,-4.9368,-4.9268,-4.8862,-4.9117,-4.9398,-4.9525,-4.9769,-4.9898,-4.9898,-4.9898,-4.9898,-4.9898,-4.9898,-4.9898,-4.9898,-4.9349,-4.8932,-4.8685,-4.8098,-4.7429,-4.6711,-4.6487,-4.6119,-4.5617,-4.539,-4.5297,-3.3157,-3.3326,-3.3326,-3.3326,-3.2848,-3.223,0.0,0.0,-3.0347,-2.9729,-2.9602,-2.9727,-3.0205,-3.0673,-3.1146,-3.1625,-3.2926,0.0,0.0,0.0,0.0,0.0,0.0,0.0,0.0,0.0,0.0,0.0,0.0,0.0,0.0,-4.6979,-4.8325,-4.9821,-5.1017,-5.1601,-5.1601,-5.2209,-5.2498,-5.2498,-5.2498,-5.2498,-5.2498,-5.2498,-5.2498,0.0,0.0,0.0,0.0,-5.2498,-5.2498,-5.2498,-5.2498,-5.2498,-5.2434,-5.1835,-5.1209,-5.0589,-5.0085,-4.9496,-4.9001,-4.9001,-4.9001,-4.9001,-4.9001,-4.7983,-4.6949,-4.7688,-4.845,-4.9001,-4.9001,-4.9001,-4.9001,-4.9001,-4.9001,-4.9168,-4.9774,-5.0349,-5.0858,-5.1482,-5.2096,-5.2226,-5.1411,-5.1285,-5.0995,-5.0198,-5.0404,-5.052,-5.0045,-5.0333,-5.0402,-4.9947,-4.9898,-4.9898,-4.9898,-4.9898,-4.9898,-4.9898,-4.9898,-4.9898,-4.9898,-4.9879,-4.95,-4.8704,-4.8685,-4.8249,-4.7378,-4.6706,-4.6397,-4.6359,-4.5655,-4.5297,-3.3157,-3.3326,-3.3326,-3.3326,-3.2862,-3.2356,-3.2159,0.0,-3.0524,-3.0691,-3.0383,-3.019,-3.0673,-3.1146,-3.1495,-3.1682,-3.2741,0.0,0.0,0.0,0.0,0.0,0.0,0.0,0.0,0.0,0.0,0.0,0.0,0.0,0.0,-4.7822,-4.8872,-4.9693,-5.0943,-5.1786,-5.2209,-5.2387,-5.2498,-5.2498,-5.2498,-5.2498,-5.2498,-5.2498,0.0,0.0,0.0,0.0,0.0,-5.2498,-5.2498,-5.2498,-5.2498,-5.2498,-5.2434,-5.1835,-5.15,-5.1209,-5.0661,-5.0067,-4.9615,-4.9615,-4.9333,-4.9001,-4.9001,-4.8656,-4.8322,-4.8593,-4.8798,-4.9001,-4.9001,-4.9001,-4.9001,-4.9001,-4.9001,-4.9168,-4.9774,-5.0331,-5.0858,-5.1482,-5.2114,-5.2426,-5.2154,-5.2118,-5.1846,-5.1031,-5.102,-5.1018,-5.0843,-5.0464,-5.0357,-5.0752,-5.0258,-4.9898,-4.9898,-4.9898,-4.9898,-4.9898,-4.9898,-4.9898,-4.9898,-4.9898,-4.9765,-4.9519,-4.9519,-4.9129,-4.8365,-4.8175,-4.7548,-4.6454,-4.623,-4.5831,0.0,-3.3143,-3.3326,-3.3326,-3.3031,0.0,0.0,0.0,-3.1222,-3.1223,-3.0883,-3.0783,-3.119,-3.1495,-3.1739,-3.1951,-3.2583,0.0,0.0,0.0,0.0,0.0,0.0,0.0,0.0,0.0,0.0,0.0,0.0,0.0,0.0,-4.7935,-4.8834,-4.9118,-5.0999,-5.2144,-5.2498,-5.2498,-5.2498,-5.2498,-5.2498,-5.2498,-5.2498,-5.2498,0.0,0.0,0.0,0.0,0.0,-5.2498,-5.2498,-5.2498,-5.2498,-5.2498,-5.2434,-5.2048,-5.1786,-5.1551,-5.1157,-5.0515,-4.989,-4.989,-4.9496,-4.9001,-4.9001,-4.9001,-4.9001,-4.9001,-4.9001,-4.9001,-4.9001,-4.9001,-4.9001,-4.9001,-4.9001,-4.9168,-4.9774,-5.0331,-5.0858,-5.1482,-5.2114,-5.2498,-5.2498,-5.2498,-5.2317,-5.1828,-5.19,-5.1883,-5.1677,-5.1357,-5.1143,-5.1206,-5.0713,-5.0258,-4.9917,-4.9898,-4.9898,-4.9898,-4.9898,-4.9898,-4.9898,-4.9898,-4.9898,-4.9898,-4.9898,-4.966,-4.9219,-4.8992,-4.8257,-4.6978,-4.6653,-4.6233,0.0,0.0,0.0,0.0,0.0,0.0,0.0,0.0,0.0,-3.151,-3.1349,-3.1427,-3.1747,-3.1799,-3.1955,-3.2342,-3.2398,0.0,0.0,0.0,0.0,0.0,0.0,0.0,0.0,0.0,0.0,0.0,0.0,0.0,0.0,-4.7522,-4.8425,-4.8487,-5.1058,-5.2436,-5.2408,-5.2462,-5.2498,-5.2498,-5.2498,-5.248,-5.2526,-5.2498,0.0,0.0,0.0,0.0,0.0,-5.2498,-5.2498,-5.2498,-5.2498,-5.2498,-5.2498,-5.2498,-5.2162,-5.1669,-5.1669,-5.0911,-4.993,-4.989,-4.9453,-4.9001,-4.9001,-4.9001,-4.9001,-4.9001,-4.9001,-4.9001,-4.9001,-4.9001,-4.9001,-4.9001,-4.9001,-4.9168,-4.9832,-5.0331,-5.0911,-5.1551,-5.2114,-5.2498,-5.2498,-5.2498,-5.2498,-5.2498,-5.2831,-5.2927,-5.2492,-5.2765,-5.254,-5.1443,-5.1235,-5.0865,-5.005,-4.9936,-4.9898,-4.9898,-4.9898,-4.9898,-4.9898,-4.9898,-4.9898,-4.9898,-4.9906,-4.9925,-4.9906,-4.9296,-4.8619,-4.7876,-4.6997,-4.6557,-3.0895,0.0,-3.2736,-3.3199,0.0,0.0,0.0,0.0,0.0,0.0,0.0,-3.264,-3.2947,-3.2997,-3.2885,-3.2475,0.0,0.0,0.0,0.0,0.0,0.0,0.0,0.0,0.0,0.0,0.0,0.0,0.0,0.0,0.0,-4.8161,-4.8847,-4.9154,-5.0386,-5.1274,-5.1655,-5.2218,-5.2498,-5.2498,-5.2498,-5.2645,-5.2944,-5.2645,0.0,0.0,0.0,0.0,-5.2498,-5.2498,-5.2498,-5.2498,-5.2498,-5.2498,-5.2498,-5.2498,-5.2387,-5.2275,-5.2275,-5.15,-5.0387,-4.9479,-4.9124,-4.9001,-4.9001,-4.9001,-4.9001,-4.9001,-4.9001,-4.9001,-4.9001,-4.9001,-4.9001,-4.9001,-4.9001,-4.9273,-5.0276,-5.0589,-5.1017,-5.2096,-5.2387,-5.2498,-5.2498,-5.2498,-5.2498,-5.2498,-5.2572,-5.2733,-5.2886,-5.2715,-5.2561,-5.2653,-5.18,-5.113,-5.0921,-5.0277,-4.9898,-4.9898,-4.9898,-4.9898,-4.9898,-4.9898,-4.9898,-4.9898,-4.9952,-5.0005,-5.0057,-4.9942,-4.9525,-4.8774,-4.7895,-4.715,-3.0445,-3.1443,-3.2483,-3.282,-3.3295,-3.3701,0.0,0.0,0.0,0.0,0.0,0.0,-3.3897,0.0,0.0,0.0,0.0,0.0,0.0,0.0,0.0,0.0,0.0,0.0,0.0,0.0,0.0,0.0,0.0,0.0,0.0,-4.8234,-4.8671,-4.8867,-4.9673,-5.0295,-5.0846,-5.1592,-5.1964,-5.1937,-5.2317,-5.2717,-5.3096,-5.2672,-5.2831,0.0,0.0,0.0,-5.2761,-5.2572,-5.2498,-5.2498,-5.2498,-5.2498,-5.2498,-5.2498,-5.2498,-5.2498,-5.2498,-5.1701,-5.0535,-4.9698,-4.9229,-4.9001,-4.9001,-4.9001,-4.9001,-4.9001,-4.9001,-4.9001,-4.9001,-4.9001,-4.9001,-4.9001,-4.9001,-4.9212,-5.0124,-5.0552,-5.0982,-5.1884,-5.2322,-5.2498,-5.2498,-5.2498,-5.2498,-5.2498,-5.2498,-5.2717,-5.3326,-5.3139,-5.3104,-5.3333,-5.2397,-5.1604,-5.1244,-5.0391,-4.9898,-4.9898,-4.9898,-4.9898,-4.9898,-4.9898,-4.9898,-4.9898,-4.9978,-5.0031,-5.0108,-5.0182,-5.0026,-4.9633,-4.8793,-4.7933,-3.0235,-3.1354,-3.2475,-3.2506,-3.3243,-3.4037,0.0,0.0,0.0,0.0,0.0,0.0,0.0,0.0,0.0,0.0,0.0,0.0,0.0,0.0,0.0,0.0,0.0,0.0,0.0,0.0,0.0,0.0,0.0,0.0,0.0,-4.8075,-4.8306,-4.8306,-4.8925,-4.946,-4.9889,-5.0773,-5.1157,-5.1122,-5.181,-5.2451,-5.2978,-5.2579,-5.2901,0.0,0.0,0.0,-5.3054,-5.269,-5.2498,-5.2498,-5.2498,-5.2498,-5.2498,-5.2498,-5.2498,-5.2498,-5.2387,-5.1701,-5.0751,-5.0198,-4.9598,-4.9107,-4.9107,-4.9046,-4.9001,-4.9001,-4.9001,-4.9001,-4.9001,-4.9001,-4.9001,-4.9001,-4.9001,-4.9168,-4.9873,-5.0387,-5.0929,-5.1601,-5.2162,-5.2498,-5.2498,-5.2498,-5.2498,-5.2498,-5.2572,-5.2831,-5.3547,-5.3739,-5.3807,-5.3785,-5.3091,-5.2267,-5.1452,-5.058,-5.0031,-4.9898,-4.9898,-4.9898,-4.9898,-4.9898,-4.9906,-4.9925,-4.9978,-5.0057,-5.0108,-5.0163,-5.0236,-5.0283,-4.9595,-4.8812,-2.9715,-3.1174,-3.2687,-3.3048,-3.3197,-3.3584,-3.4559,0.0,0.0,0.0,0.0,0.0,0.0,0.0,0.0,0.0,0.0,0.0,0.0,0.0,0.0,0.0,0.0,0.0,0.0,0.0,0.0,0.0,0.0,0.0,0.0,-4.8267,-4.8306,-4.8306,-4.8396,-4.8485,-4.8513,-4.9749,-5.0366,-5.0271,-5.0397,-5.1219,-5.2604,-5.2173,-5.2802,-5.4158,0.0,-5.3054,-5.3054,-5.269,-5.2498,-5.2498,-5.2498,-5.2498,-5.2498,-5.2498,-5.2498,-5.2434,-5.1951,-5.1619,-5.1381,-5.0751,-5.0237,-4.9774,-4.9774,-4.9394,-4.9001,-4.9001,-4.9001,-4.9001,-4.9001,-4.9001,-4.9001,-4.9001,-4.9001,-4.9273,-5.0331,-5.0643,-5.1034,-5.2162,-5.2452,-5.2498,-5.2498,-5.2498,-5.2498,-5.2498,-5.2787,-5.3054,-5.3162,-5.3777,-5.4225,-5.4213,-5.3773,-5.3158,-5.2305,-5.1471,-5.0694,-4.9936,-4.9898,-4.9898,-4.9898,-4.9898,-4.9925,-4.9978,-5.0057,-5.0133,-5.0188,-5.0255,-5.0302,-5.0302,-5.0168,-4.9671,-2.996,-3.0838,-3.2073,-3.3229,-3.4301,-3.5187,-3.5679,0.0,0.0,0.0,0.0,0.0,0.0,0.0,0.0,0.0,0.0,0.0,0.0,0.0,0.0,0.0,0.0,0.0,0.0,0.0,0.0,0.0,0.0,0.0,0.0,0.0,-4.8306,-4.8306,-4.8306,-4.8286,-4.8187,-4.8739,-4.9198,-4.9542,-4.9934,-5.067,-5.1788,-5.1388,-5.1861,-5.2967,0.0,-5.2013,-5.2435,-5.2035,-5.21,-5.2498,-5.2498,-5.2498,-5.2498,-5.2498,-5.2498,-5.2452,-5.2162,-5.1884,-5.1551,-5.126,-5.0822,-5.0293,-4.9988,-4.9732,-4.9513,-4.9513,-4.9229,-4.9001,-4.9001,-4.9001,-4.9063,-4.9394,-4.9229,-4.9376,-5.0893,-5.0929,-5.1087,-5.2275,-5.2498,-5.2498,-5.2498,-5.2498,-5.2498,-5.2498,-5.2831,-5.3162,-5.3388,-5.3925,-5.4382,-5.4597,-5.4073,-5.3347,-5.2475,-5.1661,-5.0827,-4.9955,-4.9898,-4.9898,-4.9898,-4.9898,-4.9933,-5.0005,-5.0057,-5.0133,-5.0188,-5.0278,-5.0302,-5.0302,-5.0302,-4.9862,-3.0433,-3.1116,-3.2065,-3.3502,-3.4927,-3.606,-3.6569,0.0,0.0,0.0,0.0,0.0,0.0,0.0,0.0,0.0,0.0,0.0,0.0,0.0,0.0,0.0,0.0,0.0,0.0,0.0,0.0,0.0,0.0,0.0,0.0,0.0,-4.8306,-4.8306,-4.8306,-4.8286,-4.8208,-4.809,-4.8298,-4.881,-4.9282,-5.0012,-5.0916,-5.0617,-5.0991,-5.1874,-5.1083,-5.1066,-5.1591,-5.1199,-5.1375,-5.1937,-5.1937,-5.1937,-5.1937,-5.1937,-5.1937,-5.1937,-5.1937,-5.1777,-5.1513,-5.1334,-5.0954,-5.0506,-4.9933,-4.9677,-4.9526,-4.9526,-4.92,-4.889,-4.9127,-4.9229,-4.9333,-4.9774,-4.9656,-4.9815,-5.1278,-5.1209,-5.1209,-5.2275,-5.2498,-5.2498,-5.2498,-5.2498,-5.2498,-5.2498,-5.29,-5.3348,-5.3644,-5.4139,-5.4565,-5.4871,-5.4352,-5.3556,-5.2494,-5.149,-5.0618,-4.9936,-4.9898,-4.9925,-4.9906,-4.9906,-4.9959,-5.0057,-5.0108,-5.0158,-5.0212,-5.0278,-5.0302,-5.0302,-5.0512,-5.0168,-3.097,-3.2421,-3.4025,-3.4132,-3.4075,0.0,-3.6521,-3.6999,0.0,0.0,0.0,0.0,0.0,0.0,0.0,0.0,0.0,0.0,0.0,0.0,0.0,0.0,0.0,0.0,0.0,0.0,0.0,0.0,0.0,0.0,0.0,0.0,0.0,-4.8306,-4.8306,-4.8306,-4.8306,-4.8208,-4.8105,-4.7993,-4.7904,-4.866,-5.0189,-5.0153,-5.0791,-5.1874,-5.1374,-5.1026,-5.0765,-5.0362,-5.0198,-5.0253,-5.0253,-5.0253,-5.0253,-5.0253,-5.0253,-5.0253,-5.0253,-5.0741,-5.1203,-5.0443,-5.0275,-5.0271,-4.9475,-4.8915,-4.8487,-4.8487,-4.8487,-4.866,-4.9568,-4.9832,-4.9832,-4.989,-5.0237,-5.0751,-5.1432,-5.1551,-5.1719,-5.2387,-5.2498,-5.2498,-5.2498,-5.2498,-5.2498,-5.2498,-5.3162,-5.3683,-5.3683,-5.4364,-5.4871,-5.4901,-5.4844,-5.4162,-5.2551,-5.0921,-4.9955,-4.9898,-4.9898,-4.9925,-5.0005,-5.0005,-5.0038,-5.0188,-5.0188,-5.0231,-5.0302,-5.0302,-5.0302,-5.0321,-5.1142,-5.1047,-3.1437,-3.2372,-3.3553,-3.4229,0.0,0.0,0.0,0.0,0.0,0.0,0.0,0.0,0.0,0.0,0.0,0.0,0.0,0.0,0.0,0.0,0.0,0.0,0.0,0.0,0.0,0.0,0.0,0.0,0.0,0.0,0.0,0.0,0.0,-4.8306,-4.8306,-4.8306,-4.8306,-4.8208,-4.8148,-4.8087,-4.8111,-4.8568,-4.9421,-4.959,-4.9791,-4.9952,-4.9796,-4.9675,-4.9586,-4.9434,-4.9655,-5.009,-5.009,-5.009,-5.009,-5.009,-5.009,-5.009,-5.009,-5.0289,-5.0488,-5.018,-5.0137,-5.0117,-4.9383,-4.9052,-4.8905,-4.8905,-4.8673,-4.8505,-4.887,-4.8972,-4.9185,-5.0013,-5.0066,-5.0347,-5.1825,-5.1884,-5.1768,-5.2387,-5.2498,-5.2498,-5.2498,-5.2498,-5.2498,-5.2498,-5.3162,-5.3683,-5.3683,-5.4397,-5.4901,-5.4901,-5.3973,-5.2892,-5.1755,-5.0589,-4.9978,-4.9978,-4.9978,-4.9933,-4.9952,-4.9978,-5.0038,-5.0133,-5.0133,-5.0207,-5.0302,-5.044,-5.0485,-5.0504,-5.0914,-5.0932,-3.2079,-3.2792,-3.3755,0.0,0.0,0.0,0.0,0.0,0.0,0.0,0.0,0.0,0.0,0.0,0.0,0.0,0.0,0.0,0.0,0.0,0.0,0.0,0.0,0.0,0.0,0.0,0.0,0.0,0.0,0.0,0.0,0.0,0.0,-4.8306,-4.8306,-4.8306,-4.8306,-4.8247,-4.8286,-4.8382,-4.8586,-4.8781,-4.9023,-4.927,-4.9188,-4.8816,-4.8816,-4.8678,-4.8532,-4.8532,-4.8858,-4.9329,-4.9329,-4.9329,-4.9329,-4.9329,-4.9329,-4.9329,-4.9329,-4.951,-4.9673,-4.942,-4.951,-4.9611,-4.8946,-4.8719,-4.8719,-4.8719,-4.8467,-4.8196,-4.8196,-4.8402,-4.8897,-4.9826,-4.9834,-5.0093,-5.1455,-5.1604,-5.1622,-5.2054,-5.2317,-5.2498,-5.2498,-5.2498,-5.2498,-5.2498,-5.3162,-5.3683,-5.3683,-5.4397,-5.4806,-5.456,-5.3252,-5.2077,-5.129,-5.0472,-5.0005,-5.0005,-5.0031,-5.0005,-4.9978,-5.0031,-5.0063,-5.0133,-5.0158,-5.0236,-5.0396,-5.0546,-5.0625,-5.0662,-5.0761,-5.079,-3.2897,-3.388,0.0,0.0,0.0,0.0,0.0,0.0,0.0,0.0,0.0,0.0,0.0,0.0,0.0,0.0,0.0,0.0,0.0,0.0,0.0,0.0,0.0,0.0,0.0,0.0,0.0,0.0,0.0,0.0,0.0,0.0,-4.8306,-4.8306,-4.8306,-4.8306,-4.8306,-4.8306,-4.8458,-4.8816,-4.9085,-4.9118,-4.9023,-4.927,-4.9188,-4.8816,-4.8816,-4.8365,-4.7717,-4.7717,-4.7717,-4.7717,-4.7717,-4.7717,-4.7717,-4.7717,-4.7717,-4.7717,-4.7717,-4.8224,-4.8768,-4.7971,-4.8242,-4.8749,-4.7953,-4.7717,-4.7717,-4.7717,-4.7717,-4.7717,-4.7717,-4.8425,-4.9162,-4.918,-4.9657,-5.0071,-5.009,-5.0723,-5.1285,-5.1285,-5.1937,-5.248,-5.2498,-5.2498,-5.2498,-5.2498,-5.3162,-5.3683,-5.372,-5.4416,-5.4598,-5.3764,-5.293,-5.2106,-5.1353,-5.0499,-5.0005,-5.0005,-5.0057,-5.0108,-5.0108,-5.0163,-5.0188,-5.0188,-5.0278,-5.0396,-5.0587,-5.0587,-5.0661,-5.079,-5.0805,-5.0805,-3.2523,0.0,0.0,0.0,0.0,0.0,0.0,0.0,0.0,0.0,0.0,0.0,0.0,0.0,0.0,0.0,0.0,0.0,0.0,0.0,0.0,0.0,0.0,0.0,0.0,0.0,0.0,0.0,0.0,0.0,0.0,0.0,-4.8306,-4.8306,-4.8306,-4.8306,-4.8306,-4.8306,-4.8326,-4.8458,-4.873,-4.9052,-4.942,-4.9469,-4.9233,-4.8781,-4.8569,-4.8172,-4.7717,-4.7717,-4.7717,-4.7717,-4.7717,-4.7717,-4.7717,-4.7717,-4.7717,-4.7717,-4.7717,-4.788,-4.8025,-4.779,-4.788,-4.8025,-4.7772,-4.7717,-4.7717,-4.7717,-4.7717,-4.7717,-4.7717,-4.7915,-4.8297,-4.8856,-4.9107,-4.942,-4.9963,-5.0271,-5.0615,-5.1176,-5.1484,-5.1828,-5.2389,-5.2498,-5.2498,-5.2498,-5.3162,-5.3906,-5.4482,-5.4742,-5.4371,-5.2949,-5.2551,-5.1831,-5.0418,-5.0111,-5.0031,-5.0082,-5.0114,-5.0133,-5.0031,-5.0089,-5.0158,-5.0188,-5.0355,-5.0486,-5.0587,-5.0832,-5.0965,-5.1005,-5.11,-5.1162,-3.3087,0.0,0.0,0.0,0.0,0.0,0.0,0.0,0.0,0.0,0.0,0.0,0.0,0.0,0.0,0.0,0.0,0.0,0.0,0.0,0.0,0.0,0.0,0.0,0.0,0.0,0.0,0.0,0.0,0.0,0.0,-4.8306,-4.8306,-4.8306,-4.8306,-4.8306,-4.8306,-4.8306,-4.8364,-4.8495,-4.8658,-4.8986,-4.945,-4.9358,-4.9118,-4.8832,-4.8269,-4.7929,-4.7717,-4.7717,-4.7717,-4.7717,-4.7717,-4.7717,-4.7717,-4.7717,-4.7717,-4.7717,-4.7717,-4.7717,-4.7717,-4.7717,-4.7717,-4.7717,-4.7717,-4.7717,-4.7717,-4.7717,-4.7717,-4.7717,-4.7717,-4.7717,-4.7826,-4.8315,-4.8442,-4.8568,-4.9039,-4.9401,-4.9764,-5.0253,-5.0597,-5.1067,-5.1864,-5.2009,-5.2118,-5.2444,-5.3162,-5.3979,-5.4791,-5.4617,-5.3897,-5.2551,-5.2115,-5.1404,-5.0092,-5.0031,-5.0082,-5.0133,-5.0182,-5.0163,-5.0063,-5.0139,-5.0212,-5.031,-5.0466,-5.0625,-5.08,-5.1011,-5.1128,-5.1171,-5.1256,-5.13,0.0,0.0,0.0,0.0,0.0,0.0,0.0,0.0,0.0,0.0,0.0,0.0,0.0,0.0,0.0,0.0,0.0,0.0,0.0,0.0,0.0,0.0,0.0,0.0,0.0,0.0,0.0,0.0,0.0,0.0,0.0,-4.8306,-4.8306,-4.8306,-4.8306,-4.8306,-4.8306,-4.8306,-4.8458,-4.8746,-4.8746,-4.8919,-4.915,-4.9038,-4.8885,-4.876,-4.8014,-4.7717,-4.7717,-4.7717,-4.7717,-4.7717,-4.7717,-4.7717,-4.7717,-4.7717,-4.7717,-4.7717,-4.7717,-4.7717,-4.7717,-4.7717,-4.7717,-4.7717,-4.7717,-4.7717,-4.7717,-4.7717,-4.7717,-4.7717,-4.7717,-4.7717,-4.7717,-4.7717,-4.7717,-4.7717,-4.7717,-4.8279,-4.8822,-4.8894,-4.9492,-5.0234,-5.1049,-5.1176,-5.1475,-5.2273,-5.3023,-5.3809,-5.4564,-5.4029,-5.3252,-5.2381,-5.1642,-5.09,-5.0158,-5.0108,-5.0133,-5.0207,-5.0188,-5.0188,-5.0212,-5.0278,-5.0396,-5.0507,-5.0606,-5.08,-5.1105,-5.1117,-5.1171,-5.13,-5.13,-5.13,0.0,0.0,0.0,0.0,0.0,0.0,0.0,0.0,0.0,0.0,0.0,0.0,0.0,0.0,0.0,0.0,0.0,0.0,0.0,0.0,0.0,0.0,0.0,0.0,0.0,0.0,0.0,0.0,0.0,0.0,-4.8306,-4.8306,-4.8306,-4.8306,-4.8306,-4.8306,-4.8306,-4.8306,-4.8344,0.0,-4.8402,-4.8569,-4.8885,-4.8692,-4.8384,-4.7933,-4.7783,-4.7717,-4.7717,-4.7717,-4.7717,-4.7717,-4.7717,-4.7717,-4.7717,-4.7717,-4.7717,-4.7717,-4.7717,-4.7717,-4.7717,-4.7717,-4.7717,-4.7717,-4.7717,-4.7717,-4.7717,-4.7717,-4.7717,-4.7717,-4.7717,-4.7717,-4.7717,-4.7717,-4.7717,-4.7717,-4.7717,-4.7844,-4.8152,-4.8786,-4.9057,-4.942,-5.0216,-5.0343,-5.0623,-5.1372,-5.1914,-5.2395,-5.2872,-5.2798,-5.2409,-5.163,-5.1383,-5.0954,-5.0158,-5.0108,-5.0133,-5.0207,-5.0188,-5.0212,-5.0278,-5.0399,-5.0506,-5.0586,-5.0848,-5.1024,-5.1105,-5.1211,-5.1265,-5.13,-5.13,-5.13,0.0,0.0,0.0,0.0,0.0,0.0,0.0,0.0,0.0,0.0,0.0,0.0,0.0,0.0,0.0,0.0,0.0,0.0,0.0,0.0,0.0,0.0,0.0,0.0,0.0,0.0,0.0,0.0,0.0,-4.7737,-4.7737,-4.8104,-4.8306,-4.8306,-4.8306,-4.8306,-4.8306,-4.8306,-4.8306,-4.8306,-4.8306,-4.8364,-4.8495,-4.8477,-4.8251,-4.7801,-4.7717,-4.7717,-4.7717,-4.7717,-4.7717,-4.7717,-4.7717,-4.7717,-4.7717,-4.7717,-4.7717,-4.7717,-4.7717,-4.7717,-4.7717,-4.7717,-4.7717,-4.7717,-4.7717,-4.7717,-4.7717,-4.7717,-4.7717,-4.7717,-4.7717,-4.7717,-4.7717,-4.7717,-4.7717,-4.7717,-4.7717,-4.7717,-4.7826,-4.8261,-4.8333,-4.8586,-4.9383,-4.9836,-5.0338,-5.1083,-5.1374,-5.1734,-5.2323,-5.2087,-5.1716,-5.1334,-5.0962,-5.0577,-5.0196,-5.0158,-5.0182,-5.0236,-5.0255,-5.0278,-5.0302,-5.0464,-5.0587,-5.0696,-5.0965,-5.1128,-5.1201,-5.1276,-5.13,-5.13,-5.13,-5.13,0.0,0.0,0.0,0.0,0.0,0.0,0.0,0.0,0.0,0.0,0.0,0.0,0.0,0.0,0.0,0.0,0.0,0.0,0.0,0.0,0.0,0.0,0.0,0.0,0.0,0.0,0.0,0.0,0.0,-4.6911,-4.6911,-4.7535,-4.7884,-4.7884,-4.7884,-4.7884,-4.7884,-4.7884,-4.7884,-4.7884,-4.7884,-4.7864,-4.7805,-4.796,-4.7901,-4.7702,-4.756,-4.75,-4.75,-4.75,-4.7572,-4.7717,-4.7717,-4.7717,-4.7717,-4.7717,-4.7717,-4.7717,-4.7717,-4.7717,-4.7717,-4.7717,-4.7717,-4.7717,-4.7717,-4.7717,-4.7717,-4.7717,-4.7717,-4.7717,-4.7717,-4.7717,-4.7717,-4.7717,-4.7717,-4.7717,-4.7717,-4.7717,-4.7717,-4.7717,-4.7717,-4.7916,-4.8586,-4.9349,-5.0067,-5.0639,-5.0875,-5.1204,-5.183,-5.1432,-5.1068,-5.1095,-5.0501,-5.0139,-5.0212,-5.0231,-5.0255,-5.0302,-5.0302,-5.0302,-5.0302,-5.0485,-5.0643,-5.0761,-5.0992,-5.1161,-5.13,-5.13,-5.13,-5.13,-5.13,-5.13,0.0,0.0,0.0,0.0,0.0,0.0,0.0,0.0,0.0,0.0,0.0,0.0,0.0,0.0,0.0,0.0,0.0,0.0,0.0,0.0,0.0,0.0,0.0,0.0,0.0,0.0,0.0,0.0,-4.5993,-4.6067,-4.6067,-4.6159,-4.6214,-4.6214,-4.6214,-4.6214,-4.6214,-4.6214,-4.6214,-4.6214,-4.6214,-4.6232,-4.6195,-4.6158,-4.641,-4.6866,-4.6726,-4.6667,-4.6667,-4.6667,-4.7083,-4.7717,-4.7717,-4.7717,-4.7717,-4.7717,-4.7717,-4.7717,-4.7717,-4.7717,-4.7717,-4.7717,-4.7717,-4.7717,-4.7717,-4.7717,-4.7717,-4.7717,-4.7717,-4.7717,-4.7717,-4.7717,-4.7717,-4.7717,-4.7717,-4.7717,-4.7717,-4.7717,-4.7717,-4.7717,-4.7717,-4.7735,-4.7844,-4.8469,-4.8901,-4.8714,-4.9487,-5.0014,-4.9897,-5.0052,-5.0228,-5.0335,-5.0239,-5.0212,-5.0278,-5.0278,-5.0302,-5.0302,-5.0302,-5.0302,-5.0302,-5.0485,-5.0606,-5.0625,-5.0937,-5.1161,-5.13,-5.13,-5.13,-5.13,-5.13,-5.13,0.0,0.0,0.0,0.0,0.0,0.0,0.0,0.0,0.0,0.0,0.0,0.0,0.0,0.0,0.0,0.0,0.0,0.0,0.0,0.0,0.0,0.0,0.0,0.0,0.0,0.0,0.0,0.0,-4.4966,-4.5241,-4.5241,-4.5663,-4.5902,-4.5902,-4.5902,-4.5902,-4.5902,-4.5902,-4.5902,-4.5902,-4.5902,-4.5902,-4.5902,-4.581,-4.5898,-4.6072,-4.5972,-4.5874,-4.5834,-4.5834,-4.6051,-4.6359,-4.6359,-4.6359,-4.6359,-4.6359,-4.6649,-4.7029,-4.7029,-4.7319,-4.7717,-4.7717,-4.7717,-4.7717,-4.7717,-4.7717,-4.7717,-4.7717,-4.7717,-4.7717,-4.7717,-4.7717,-4.7717,-4.7717,-4.7717,-4.7717,-4.7717,-4.7717,-4.7717,-4.7717,-4.7717,-4.7717,-4.7717,-4.7992,-4.8269,-4.855,-4.8986,-4.9401,-4.975,-4.9933,-5.0089,-5.0188,-5.0212,-5.0278,-5.0302,-5.0302,-5.0302,-5.0302,-5.0302,-5.0302,-5.0302,-5.0396,-5.0485,-5.0606,-5.0813,-5.1017,-5.1201,-5.1201,-5.123,-5.132,-5.1807,-5.1768,0.0,0.0,0.0,0.0,0.0,0.0,0.0,0.0,0.0,0.0,0.0,0.0,0.0,0.0,0.0,0.0,0.0,0.0,0.0,0.0,0.0,0.0,0.0,0.0,0.0,0.0,0.0,0.0,-4.4066,-4.4397,-4.4397,-4.4966,-4.5278,-4.5278,-4.5278,-4.5278,-4.5278,-4.5278,-4.5278,-4.5278,-4.5278,-4.5278,-4.5296,-4.5242,-4.5169,-4.5057,-4.5162,-4.5137,-4.5001,-4.5001,-4.511,-4.5291,-4.5291,-4.5291,-4.5291,-4.5291,-4.5689,-4.6196,-4.6196,-4.6721,-4.7409,-4.7409,-4.7536,-4.7717,-4.7717,-4.7717,-4.7717,-4.7717,-4.7717,-4.7717,-4.7717,-4.7717,-4.7717,-4.7717,-4.7717,-4.7717,-4.7717,-4.7717,-4.7717,-4.7717,-4.7717,-4.7717,-4.7717,-4.7783,-4.8032,-4.8477,-4.8816,-4.9182,-4.9731,-4.9986,-5.0158,-5.0231,-5.0278,-5.0302,-5.0302,-5.0302,-5.0302,-5.0302,-5.0302,-5.0302,-5.0302,-5.0302,-5.0374,-5.0526,-5.0624,-5.0793,-5.1017,-5.1307,-5.1364,-5.1267,-5.2189,-5.2138,0.0,0.0,0.0,0.0,0.0,0.0,0.0,0.0,0.0,0.0,0.0,0.0,0.0,0.0,0.0,0.0,0.0,0.0,0.0,0.0,0.0,0.0,0.0,0.0,0.0,0.0,0.0,0.0,-4.3534,-4.3552,-4.3552,-4.3589,-4.3608,-4.3608,-4.3608,-4.3608,-4.3608,-4.3608,-4.3608,-4.3608,-4.3608,-4.3608,-4.3608,-4.3608,-4.3591,-4.3559,-4.4126,-4.4302,-4.415,-4.415,-4.4603,-4.5291,-4.5291,-4.5291,-4.5291,-4.5291,-4.5327,-4.5363,-4.5363,-4.5888,-4.6558,-4.6558,-4.7083,-4.7717,-4.7717,-4.7717,-4.7717,-4.7717,-4.7717,-4.7717,-4.7717,-4.7717,-4.7717,-4.7717,-4.7717,-4.7717,-4.7717,-4.7717,-4.7717,-4.7717,-4.7717,-4.7717,-4.7717,-4.801,-4.8208,-4.7966,-4.88,-4.942,-4.9277,-4.9795,-5.0212,-5.0278,-5.0302,-5.0302,-5.0302,-5.0302,-5.0302,-5.0302,-5.0302,-5.0302,-5.0302,-5.0302,-5.0302,-5.0325,-5.0306,-5.0488,-5.0825,-5.1839,-5.1901,-5.1136,-5.2134,-5.2138,0.0,0.0,0.0,0.0,0.0,0.0,0.0,0.0,0.0,0.0,0.0,0.0,0.0,0.0,0.0,0.0,0.0,0.0,0.0,0.0,0.0,0.0,0.0,0.0,0.0,0.0,0.0,0.0,0.0,-4.3497,-4.3497,-4.3497,-4.3497,-4.3497,-4.3497,-4.3497,-4.3497,-4.3497,-4.3497,-4.3497,-4.3497,-4.3497,-4.3497,-4.3497,-4.3463,-4.3412,-4.3615,-4.3634,-4.3429,-4.3373,-4.3498,-4.3751,-4.3751,-4.3751,-4.3751,-4.3751,-4.4077,-4.453,-4.453,-4.5055,-4.5725,-4.5725,-4.6269,-4.6939,-4.6939,-4.7301,-4.7717,-4.7717,-4.7717,-4.7717,-4.7717,-4.7717,-4.7717,-4.7717,-4.7717,-4.7717,-4.7717,-4.7717,-4.7717,-4.7717,-4.7717,-4.7717,-4.7717,-4.7884,-4.8068,-4.821,-4.8623,-4.9005,-4.9182,-4.9608,-4.9903,-4.9981,-5.0169,-5.0302,-5.0302,-5.0302,-5.0302,-5.0302,-5.0302,-5.0302,-5.0302,-5.0302,-5.0302,-5.0302,-5.0302,-5.0421,-5.0661,-5.1059,-5.1122,-5.0937,-5.1845,-5.1813,0.0,0.0,0.0,0.0,0.0,0.0,0.0,0.0,0.0,0.0,0.0,0.0,0.0,0.0,0.0,0.0,0.0,0.0,0.0,0.0,0.0,0.0,0.0,0.0,0.0,0.0,0.0,0.0,0.0,0.0,-4.3497,-4.3497,-4.3497,-4.3497,-4.3497,-4.3497,-4.3497,-4.3497,-4.3497,-4.3497,-4.3497,-4.3497,-4.3497,-4.3497,-4.3463,-4.3446,-4.3429,-4.3323,-4.3123,-4.2994,-4.2956,-4.2938,-4.2938,-4.2882,-4.2882,-4.2882,-4.3226,-4.3697,-4.3697,-4.4222,-4.4892,-4.4892,-4.5436,-4.616,-4.6432,-4.6884,-4.7355,-4.7627,-4.7717,-4.7717,-4.7717,-4.7717,-4.7717,-4.7717,-4.7717,-4.7717,-4.7717,-4.7717,-4.7717,-4.7717,-4.7717,-4.7717,-4.7717,-4.7759,-4.7947,-4.8231,-4.844,-4.8694,-4.9001,-4.9352,-4.9637,-4.9784,-4.9981,-5.0188,-5.0302,-5.0302,-5.0302,-5.0302,-5.0302,-5.0302,-5.0302,-5.0302,-5.0302,-5.0302,-5.0302,-5.0352,-5.0506,-5.0875,-5.0932,-5.0748,-5.1664,-5.1637,0.0,0.0,0.0,0.0,0.0,0.0,0.0,0.0,0.0,0.0,0.0,0.0,0.0,0.0,0.0,0.0,0.0,0.0,0.0,0.0,0.0,0.0,0.0,0.0,0.0,0.0,0.0,0.0,-4.3497,-4.3497,-4.3497,-4.3497,-4.3497,-4.3497,-4.3497,-4.3497,-4.3497,-4.3497,-4.3497,-4.3497,-4.3497,-4.3497,-4.3497,-4.3497,-4.3497,-4.3497,-4.3411,-4.334,-4.3214,-4.3123,-4.3104,-4.3104,-4.2938,-4.292,-4.292,-4.292,-4.292,-4.292,-4.29,-4.3407,-4.4059,-4.4059,-4.4603,-4.5417,-4.6196,-4.645,-4.6631,-4.7446,-4.7663,-4.7681,-4.7699,-4.7717,-4.7717,-4.7717,-4.7717,-4.7717,-4.7717,-4.7717,-4.7717,-4.7717,-4.7717,-4.7717,-4.7717,-4.7699,-4.7783,-4.7951,-4.8289,-4.8549,-4.8746,-4.908,-4.9424,-4.973,-4.9757,-4.9929,-5.0236,-5.0278,-5.0278,-5.0278,-5.0302,-5.0302,-5.0302,-5.0302,-5.0302,-5.0302,-5.0302,-5.0302,-5.0302,-5.135,-5.1414,-5.0606,-5.1597,-5.1583,-3.5622,0.0,0.0,0.0,0.0,0.0,0.0,0.0,0.0,0.0,0.0,0.0,0.0,0.0,0.0,0.0,0.0,0.0,0.0,0.0,0.0,0.0,0.0,0.0,0.0,0.0,0.0,0.0,-4.3497,-4.3497,-4.3497,-4.3497,-4.3497,-4.3497,-4.3497,-4.3497,-4.3497,-4.3497,-4.3497,-4.3497,-4.3497,-4.3497,-4.3497,-4.3497,-4.3497,-4.3497,-4.3463,-4.3463,-4.341,-4.3251,-4.3178,-4.3178,-4.3123,-4.3123,-4.3123,-4.3123,-4.3123,-4.3087,-4.3049,-4.3194,-4.3338,-4.3264,-4.3769,-4.4476,-4.4693,-4.5164,-4.5798,-4.6613,-4.683,-4.6975,-4.7554,-4.7717,-4.7717,-4.7717,-4.7717,-4.7717,-4.7717,-4.7717,-4.7717,-4.7717,-4.7717,-4.7717,-4.7717,-4.7759,-4.7861,-4.7925,-4.813,-4.8306,-4.8344,-4.8676,-4.8949,-4.9067,-4.9302,-4.9483,-4.957,-4.9803,-4.9955,-4.9955,-5.0169,-5.0302,-5.0302,-5.0302,-5.0302,-5.0302,-5.0302,-5.0302,-5.0302,-5.06,-5.0626,-5.0396,-5.0673,-5.0675,0.0,0.0,0.0,0.0,0.0,0.0,-3.6197,-3.6299,0.0,0.0,0.0,0.0,0.0,0.0,0.0,0.0,0.0,0.0,0.0,0.0,0.0,0.0,0.0,0.0,0.0,-4.3497,-4.3497,-4.3497,-4.3497,-4.3497,-4.3497,-4.3497,-4.3497,-4.3497,-4.3497,-4.3497,-4.3497,-4.3497,-4.3497,-4.3497,-4.3497,-4.3497,-4.3497,-4.3497,-4.3497,-4.3497,-4.3497,-4.3497,-4.3479,-4.3375,-4.3322,-4.3286,-4.3214,-4.3214,-4.3214,-4.3214,-4.3214,-4.3196,-4.316,-4.316,-4.3123,-4.3031,-4.332,-4.3717,-4.4005,-4.4421,-4.4965,-4.578,-4.625,-4.6703,-4.75,-4.7717,-4.7717,-4.7717,-4.7717,-4.7717,-4.7717,-4.7717,-4.7717,-4.7717,-4.7717,-4.7717,-4.7717,-4.7759,-4.7861,-4.7925,-4.8028,-4.8148,-4.8208,-4.8439,-4.8658,-4.8781,-4.8949,-4.9145,-4.9283,-4.9483,-4.9599,-4.9599,-4.9757,-4.9955,-5.0095,-5.0076,-5.0144,-5.0302,-5.0302,-5.0302,-5.0302,-5.0302,-5.0302,-5.0302,-5.0325,-5.0325,0.0,0.0,0.0,0.0,0.0,0.0,-3.5622,-3.5622,-3.5622,0.0,0.0,0.0,0.0,0.0,0.0,0.0,0.0,0.0,0.0,0.0,0.0,0.0,0.0,0.0,-4.3222,-4.3296,-4.3369,-4.3369,-4.3442,-4.3497,-4.3497,-4.3497,-4.3497,-4.3497,-4.3497,-4.3497,-4.3497,-4.3497,-4.3497,-4.3497,-4.3497,-4.3497,-4.3497,-4.3497,-4.3497,-4.3497,-4.3497,-4.3497,-4.3497,-4.3497,-4.3463,-4.3376,-4.3286,-4.3232,-4.3232,-4.3232,-4.3232,-4.3232,-4.3214,-4.3214,-4.3214,-4.3141,-4.3104,-4.3194,-4.3808,-4.3969,-4.4132,-4.4928,-4.5816,-4.6667,-4.7391,-4.7645,-4.7717,-4.7717,-4.7717,-4.7717,-4.7717,-4.7717,-4.7717,-4.7717,-4.7717,-4.7717,-4.7717,-4.7717,-4.7783,-4.797,-4.7992,-4.8072,-4.8267,-4.8306,-4.8402,-4.8711,-4.8746,-4.8866,-4.9158,-4.9221,-4.9221,-4.9221,-4.9283,-4.9453,-4.973,-4.973,-4.9884,-5.0169,-5.0188,-5.0212,-5.0212,-5.0278,-5.0302,-5.0302,-5.0371,-5.0412,0.0,0.0,0.0,0.0,0.0,0.0,-3.5622,-3.5622,-3.5711,0.0,0.0,0.0,0.0,0.0,0.0,0.0,0.0,0.0,0.0,0.0,0.0,0.0,0.0,0.0,-4.1589,-4.2158,-4.2525,-4.2525,-4.313,-4.3497,-4.3497,-4.3497,-4.3497,-4.3497,-4.3497,-4.3497,-4.3497,-4.3497,-4.3497,-4.3497,-4.3497,-4.3497,-4.3497,-4.3497,-4.3497,-4.3497,-4.3497,-4.3497,-4.3497,-4.3497,-4.3497,-4.3463,-4.3463,-4.3444,-4.3444,-4.3444,-4.3444,-4.3428,-4.3376,-4.334,-4.334,-4.3214,-4.316,-4.3141,-4.3249,-4.3229,-4.3299,-4.4095,-4.5381,-4.654,-4.6703,-4.721,-4.7717,-4.7717,-4.7717,-4.7717,-4.7717,-4.7717,-4.7717,-4.7717,-4.7717,-4.7717,-4.7717,-4.7717,-4.7759,-4.7902,-4.7988,-4.8032,-4.8226,-4.8286,-4.8344,-4.8402,-4.8402,-4.8421,-4.8495,-4.8746,-4.89,-4.89,-4.9145,-4.9314,-4.9375,-4.9394,-4.9424,-4.9483,-4.9483,-4.956,-4.9674,-5.0095,-5.0325,-5.039,-5.039,-5.0435,0.0,0.0,0.0,-3.5622,0.0,0.0,0.0,-3.5622,-3.5667,-3.5915,0.0,0.0,0.0,0.0,0.0,0.0,0.0,0.0,0.0,0.0,0.0,0.0,0.0,0.0,-4.1079,-4.1479,-4.1699,-4.1699,-4.2084,-4.2304,-4.2304,-4.2304,-4.2304,-4.2304,-4.2304,-4.2506,-4.2892,-4.2892,-4.3094,-4.3497,-4.3497,-4.3497,-4.3497,-4.3497,-4.3497,-4.3497,-4.3497,-4.3497,-4.3497,-4.3497,-4.3497,-4.3497,-4.3497,-4.3497,-4.3497,-4.3497,-4.3497,-4.3497,-4.3463,-4.3446,-4.3428,-4.3322,-4.3269,-4.3251,-4.316,-4.3105,-4.3213,-4.3993,-4.4771,-4.5497,-4.5798,-4.6504,-4.7102,-4.7102,-4.7428,-4.7717,-4.7717,-4.7717,-4.7717,-4.7717,-4.7717,-4.7717,-4.7717,-4.7759,-4.7842,-4.7907,-4.8028,-4.813,-4.8247,-4.8267,-4.8306,-4.8306,-4.8306,-4.8306,-4.8306,-4.8458,-4.8569,-4.8569,-4.8711,-4.8866,-4.9048,-4.9048,-4.9145,-4.9302,-4.9382,-4.9431,-4.9499,-4.9795,-4.9974,-5.0,-5.0044,-5.0051,0.0,0.0,0.0,0.0,0.0,-3.5622,0.0,0.0,0.0,-3.5622,0.0,0.0,0.0,0.0,0.0,0.0,0.0,0.0,0.0,0.0,0.0,0.0,0.0,0.0,0.0,-4.0547,-4.0778,-4.106,-4.1046,-4.1027,-4.1079,-4.1111,-4.1111,-4.1111,-4.1111,-4.1423,-4.2066,-4.2066,-4.247,-4.3259,-4.3259,-4.3332,-4.3497,-4.3497,-4.3497,-4.3497,-4.3497,-4.3497,-4.3497,-4.3497,-4.3497,-4.3497,-4.3497,-4.3497,-4.3497,-4.3497,-4.3497,-4.3497,-4.3497,-4.3497,-4.3497,-4.3446,-4.3429,-4.3376,-4.3251,-4.3214,-4.3306,-4.3943,-4.4196,-4.4431,-4.495,-4.5671,-4.6305,-4.6468,-4.7011,-4.7518,-4.7681,-4.7717,-4.7717,-4.7717,-4.7717,-4.7717,-4.7717,-4.7801,-4.7884,-4.801,-4.809,-4.8226,-4.8267,-4.8306,-4.8306,-4.8306,-4.8306,-4.8306,-4.8306,-4.8306,-4.8306,-4.8306,-4.8306,-4.8439,-4.8676,-4.8711,-4.8832,-4.9094,-4.9214,-4.9221,-4.9071,-4.9145,-4.9329,-4.9627,-4.9533,-4.9485,0.0,0.0,0.0,0.0,-3.5622,0.0,0.0,0.0,-3.5622,-3.5622,0.0,0.0,0.0,0.0,0.0,0.0,0.0,0.0,0.0,0.0,0.0,0.0,0.0,0.0,0.0,-3.8527,-3.9535,-4.0972,-4.0755,-4.0721,-4.1079,-4.1111,-4.1111,-4.1111,-4.1111,-4.1148,-4.1258,-4.1258,-4.1644,-4.2433,-4.2433,-4.28,-4.3497,-4.3497,-4.3497,-4.3497,-4.3497,-4.3497,-4.3497,-4.3497,-4.3497,-4.3497,-4.3497,-4.3497,-4.3497,-4.3497,-4.3497,-4.3497,-4.3497,-4.3497,-4.3497,-4.3497,-4.3446,-4.3376,-4.3251,-4.3214,-4.3233,-4.3324,-4.3797,-4.4304,-4.4395,-4.4917,-4.5617,-4.6341,-4.6576,-4.683,-4.7554,-4.7717,-4.7717,-4.7717,-4.7717,-4.7717,-4.7717,-4.7699,-4.7783,-4.7951,-4.7992,-4.8072,-4.8267,-4.8306,-4.8306,-4.8306,-4.8306,-4.8306,-4.8306,-4.8306,-4.8306,-4.8306,-4.8306,-4.8306,-4.8382,-4.8382,-4.8364,-4.8402,-4.8439,-4.8126,-4.7553,-4.764,-4.8362,-4.9665,-4.8956,-4.867,0.0,0.0,0.0,0.0,0.0,0.0,-3.5622,0.0,-3.5622,0.0,0.0,0.0,0.0,0.0,0.0,0.0,0.0,0.0,0.0,0.0,0.0,0.0,0.0,0.0,0.0,0.0,0.0,0.0,-3.9218,-3.9286,-3.9685,-3.9717,-3.9717,-3.9717,-3.9717,-3.9937,-4.0396,-4.0396,-4.0818,-4.1607,-4.1607,-4.2029,-4.28,-4.28,-4.3057,-4.3497,-4.3497,-4.3497,-4.3497,-4.3497,-4.3497,-4.3497,-4.3497,-4.3497,-4.3497,-4.3497,-4.3497,-4.3497,-4.3497,-4.3497,-4.3497,-4.3497,-4.3463,-4.3446,-4.3393,-4.3375,-4.3358,-4.334,-4.3542,-4.3743,-4.3632,-4.4138,-4.479,-4.5037,-4.5454,-4.6015,-4.683,-4.7011,-4.7156,-4.7627,-4.7759,-4.7819,-4.7819,-4.7824,-4.7888,-4.7992,-4.8111,-4.819,-4.8306,-4.8306,-4.8306,-4.8306,-4.8306,-4.8306,-4.8306,-4.8306,-4.8306,-4.8306,-4.8306,-4.8306,-4.8306,-4.7865,-4.7609,-4.7609,-4.7205,-4.6911,-4.6651,-4.672,-4.7107,-4.7847,-4.7491,-4.7353,-3.5622,0.0,0.0,0.0,0.0,0.0,0.0,0.0,0.0,0.0,0.0,0.0,0.0,0.0,0.0,0.0,0.0,0.0,0.0,0.0,0.0,0.0,0.0,0.0,0.0,0.0,0.0,-3.7913,-3.7948,-3.8101,-3.8515,-3.8627,-3.8707,-3.8707,-3.8707,-3.8982,-3.957,-3.957,-3.9974,-4.0781,-4.0781,-4.1203,-4.1992,-4.2194,-4.2616,-4.3167,-4.3387,-4.3497,-4.3497,-4.3497,-4.3497,-4.3497,-4.3497,-4.3497,-4.3497,-4.3497,-4.3497,-4.3497,-4.3497,-4.3497,-4.3497,-4.3497,-4.3497,-4.3497,-4.3497,-4.3497,-4.3497,-4.3446,-4.3411,-4.3359,-4.3215,-4.3597,-4.4033,-4.4157,-4.4626,-4.5261,-4.6078,-4.6259,-4.6495,-4.7311,-4.7516,-4.767,-4.7888,-4.797,-4.7992,-4.805,-4.8169,-4.8267,-4.8306,-4.8306,-4.8306,-4.8306,-4.8306,-4.8306,-4.8306,-4.8306,-4.8306,-4.8306,-4.8104,-4.7976,-4.7976,-4.7205,-4.6783,-4.6783,-4.6341,-4.6007,-4.5819,-4.5904,-4.5912,-4.5793,-4.6067,-4.616,0.0,0.0,0.0,-3.5622,0.0,0.0,0.0,0.0,-3.5622,0.0,0.0,0.0,0.0,0.0,0.0,-3.5622,0.0,0.0,0.0,0.0,0.0,0.0,0.0,0.0,0.0,0.0,0.0,-3.7469,-3.7505,-3.7685,-3.8101,-3.8483,-3.8707,-3.8707,-3.8707,-3.8707,-3.8744,-3.8744,-3.9148,-3.9937,-3.9937,-4.0359,-4.1167,-4.1937,-4.2304,-4.2378,-4.3149,-4.3497,-4.3497,-4.3497,-4.3497,-4.3497,-4.3497,-4.3497,-4.3497,-4.3497,-4.3497,-4.3497,-4.3497,-4.3497,-4.3497,-4.3497,-4.3497,-4.3497,-4.3497,-4.3497,-4.3497,-4.3497,-4.3446,-4.3394,-4.3394,-4.3305,-4.3452,-4.4198,-4.4399,-4.4636,-4.5455,-4.5638,-4.5875,-4.6658,-4.6843,-4.7098,-4.7864,-4.7992,-4.8032,-4.8187,-4.8187,-4.8226,-4.8306,-4.8306,-4.8306,-4.8306,-4.8306,-4.8306,-4.8306,-4.8306,-4.8306,-4.8306,-4.759,-4.715,-4.715,-4.6379,-4.5938,-4.5938,-4.6047,-4.5696,-4.4849,-4.5038,-4.4749,-4.4008,-4.492,-4.5342,0.0,0.0,-3.5622,-3.5622,0.0,0.0,0.0,0.0,0.0,0.0,0.0,0.0,0.0,0.0,-3.5622,-3.5622,-3.5622,0.0,0.0,0.0,0.0,0.0,0.0,0.0,0.0,0.0,0.0,-3.7055,-3.7094,-3.7283,-3.7685,-3.7844,-3.7913,-3.7913,-3.7913,-3.7913,-3.7913,-3.7913,-3.816,-3.8718,-3.8718,-3.9254,-4.0322,-4.0579,-4.1001,-4.1552,-4.2359,-4.2708,-4.2745,-4.3277,-4.3497,-4.3497,-4.3497,-4.3497,-4.3497,-4.3497,-4.3497,-4.3497,-4.3497,-4.3497,-4.3497,-4.3497,-4.3497,-4.3497,-4.3497,-4.3497,-4.3497,-4.3497,-4.3497,-4.3446,-4.3411,-4.3359,-4.3378,-4.3561,-4.3616,-4.3834,-4.4617,-4.48,-4.5018,-4.5838,-4.6079,-4.6411,-4.7216,-4.7382,-4.7604,-4.8114,-4.8265,-4.8267,-4.8306,-4.8306,-4.8306,-4.8306,-4.8306,-4.8306,-4.8306,-4.7829,-4.7297,-4.6746,-4.6471,-4.6305,-4.6305,-4.5606,-4.5147,-4.5147,-4.4773,-4.4435,-4.4206,-4.4272,-4.4188,-4.3992,-4.4302,-4.4432,-3.5622,-3.5622,0.0,-3.5622,-3.5622,0.0,-3.5667,0.0,0.0,0.0,0.0,0.0,0.0,0.0,0.0,-3.5667,-3.5711,-3.5756,0.0,-3.5888,0.0,0.0,0.0,0.0,0.0,0.0,-3.6409,-3.6678,-3.6821,-3.7017,0.0,0.0,-3.7505,-3.7505,-3.7505,-3.7505,-3.7505,-3.7505,-3.7614,-3.7879,-3.8034,-3.8525,-3.9282,-3.969,-4.0175,-4.0726,-4.1534,-4.2047,-4.2341,-4.2855,-4.3222,-4.3497,-4.3497,-4.3497,-4.3497,-4.3497,-4.3497,-4.3497,-4.3497,-4.3497,-4.3497,-4.3497,-4.3497,-4.3497,-4.3497,-4.3497,-4.3608,-4.4176,-4.3938,-4.3626,-4.4143,-4.3868,-4.3411,-4.3322,-4.3322,-4.345,-4.398,-4.409,-4.4309,-4.5113,-4.5352,-4.5645,-4.6469,-4.6654,-4.702,-4.8082,-4.8286,-4.8306,-4.8306,-4.8306,-4.8196,-4.7921,-4.7884,-4.7774,-4.748,-4.6985,-4.6452,-4.592,-4.5626,-4.5461,-4.5497,-4.4796,-4.4389,-4.4441,-4.4044,-4.3851,-4.3897,-4.3929,-4.3961,-4.4005,-4.4005,-4.4005]}]]